<?xml version="1.0" encoding="UTF-8" standalone="no" ?>
<gpx xmlns="http://www.topografix.com/GPX/1/1" xmlns:xsi="http://www.w3.org/2001/XMLSchema-instance" xsi:schemaLocation="http://www.topografix.com/GPX/1/1 http://www.topografix.com/GPX/1/1/gpx.xsd" version="1.1" creator="VisuGPX - https://www.visugpx.com">
  <metadata>
    <name>Du coté de Preures</name>
    <desc><![CDATA[Une agréable balade à cheval ]]></desc>
  </metadata>
  <trk>
    <name><![CDATA[PREURES14 05:55:42 PM]]></name>
    <trkseg>
      <trkpt lat="50.57299" lon="1.87728">
        <ele>77.04</ele>
        <time>2014-05-02T11:54:36Z</time>
      </trkpt>
      <trkpt lat="50.57295" lon="1.8772">
        <ele>80.41</ele>
        <time>2014-05-02T11:57:02Z</time>
      </trkpt>
      <trkpt lat="50.57295" lon="1.87734">
        <ele>81.37</ele>
        <time>2014-05-02T11:58:09Z</time>
      </trkpt>
      <trkpt lat="50.57303" lon="1.87745">
        <ele>80.41</ele>
        <time>2014-05-02T11:58:16Z</time>
      </trkpt>
      <trkpt lat="50.57311" lon="1.87751">
        <ele>81.37</ele>
        <time>2014-05-02T11:58:23Z</time>
      </trkpt>
      <trkpt lat="50.57327" lon="1.87745">
        <ele>82.81</ele>
        <time>2014-05-02T11:58:35Z</time>
      </trkpt>
      <trkpt lat="50.57335" lon="1.87739">
        <ele>84.25</ele>
        <time>2014-05-02T11:58:42Z</time>
      </trkpt>
      <trkpt lat="50.57345" lon="1.87736">
        <ele>83.77</ele>
        <time>2014-05-02T11:58:51Z</time>
      </trkpt>
      <trkpt lat="50.5736" lon="1.87724">
        <ele>84.73</ele>
        <time>2014-05-02T11:59:00Z</time>
      </trkpt>
      <trkpt lat="50.57361" lon="1.87717">
        <ele>85.21</ele>
        <time>2014-05-02T11:59:49Z</time>
      </trkpt>
      <trkpt lat="50.5736" lon="1.87733">
        <ele>85.69</ele>
        <time>2014-05-02T11:59:58Z</time>
      </trkpt>
      <trkpt lat="50.57369" lon="1.87732">
        <ele>87.14</ele>
        <time>2014-05-02T12:00:11Z</time>
      </trkpt>
      <trkpt lat="50.57383" lon="1.87749">
        <ele>88.58</ele>
        <time>2014-05-02T12:00:20Z</time>
      </trkpt>
      <trkpt lat="50.5739" lon="1.87761">
        <ele>89.06</ele>
        <time>2014-05-02T12:00:27Z</time>
      </trkpt>
      <trkpt lat="50.57396" lon="1.87773">
        <ele>90.02</ele>
        <time>2014-05-02T12:00:34Z</time>
      </trkpt>
      <trkpt lat="50.57402" lon="1.87793">
        <ele>90.02</ele>
        <time>2014-05-02T12:00:42Z</time>
      </trkpt>
      <trkpt lat="50.5741" lon="1.87812">
        <ele>90.98</ele>
        <time>2014-05-02T12:00:50Z</time>
      </trkpt>
      <trkpt lat="50.57417" lon="1.8783">
        <ele>92.42</ele>
        <time>2014-05-02T12:01:00Z</time>
      </trkpt>
      <trkpt lat="50.57421" lon="1.87853">
        <ele>93.39</ele>
        <time>2014-05-02T12:01:09Z</time>
      </trkpt>
      <trkpt lat="50.57427" lon="1.87874">
        <ele>93.87</ele>
        <time>2014-05-02T12:01:19Z</time>
      </trkpt>
      <trkpt lat="50.5743" lon="1.87889">
        <ele>94.83</ele>
        <time>2014-05-02T12:01:25Z</time>
      </trkpt>
      <trkpt lat="50.57431" lon="1.87906">
        <ele>95.31</ele>
        <time>2014-05-02T12:01:32Z</time>
      </trkpt>
      <trkpt lat="50.57436" lon="1.87932">
        <ele>95.79</ele>
        <time>2014-05-02T12:01:41Z</time>
      </trkpt>
      <trkpt lat="50.5744" lon="1.87953">
        <ele>95.79</ele>
        <time>2014-05-02T12:01:49Z</time>
      </trkpt>
      <trkpt lat="50.57444" lon="1.87973">
        <ele>96.75</ele>
        <time>2014-05-02T12:01:57Z</time>
      </trkpt>
      <trkpt lat="50.57451" lon="1.87995">
        <ele>97.23</ele>
        <time>2014-05-02T12:02:07Z</time>
      </trkpt>
      <trkpt lat="50.57458" lon="1.88014">
        <ele>97.23</ele>
        <time>2014-05-02T12:02:16Z</time>
      </trkpt>
      <trkpt lat="50.57462" lon="1.8803">
        <ele>97.23</ele>
        <time>2014-05-02T12:02:22Z</time>
      </trkpt>
      <trkpt lat="50.57467" lon="1.88043">
        <ele>96.75</ele>
        <time>2014-05-02T12:02:29Z</time>
      </trkpt>
      <trkpt lat="50.57475" lon="1.88066">
        <ele>96.75</ele>
        <time>2014-05-02T12:02:38Z</time>
      </trkpt>
      <trkpt lat="50.5748" lon="1.88085">
        <ele>96.27</ele>
        <time>2014-05-02T12:02:47Z</time>
      </trkpt>
      <trkpt lat="50.57485" lon="1.88106">
        <ele>98.19</ele>
        <time>2014-05-02T12:02:57Z</time>
      </trkpt>
      <trkpt lat="50.57488" lon="1.88126">
        <ele>98.67</ele>
        <time>2014-05-02T12:03:05Z</time>
      </trkpt>
      <trkpt lat="50.57493" lon="1.88143">
        <ele>99.63</ele>
        <time>2014-05-02T12:03:13Z</time>
      </trkpt>
      <trkpt lat="50.57501" lon="1.88163">
        <ele>100.6</ele>
        <time>2014-05-02T12:03:21Z</time>
      </trkpt>
      <trkpt lat="50.57506" lon="1.88181">
        <ele>100.6</ele>
        <time>2014-05-02T12:03:28Z</time>
      </trkpt>
      <trkpt lat="50.57504" lon="1.88197">
        <ele>101.08</ele>
        <time>2014-05-02T12:03:37Z</time>
      </trkpt>
      <trkpt lat="50.57498" lon="1.88214">
        <ele>101.08</ele>
        <time>2014-05-02T12:03:44Z</time>
      </trkpt>
      <trkpt lat="50.57489" lon="1.88224">
        <ele>100.11</ele>
        <time>2014-05-02T12:03:51Z</time>
      </trkpt>
      <trkpt lat="50.57472" lon="1.8824">
        <ele>100.11</ele>
        <time>2014-05-02T12:04:02Z</time>
      </trkpt>
      <trkpt lat="50.5746" lon="1.88255">
        <ele>99.15</ele>
        <time>2014-05-02T12:04:10Z</time>
      </trkpt>
      <trkpt lat="50.57461" lon="1.88272">
        <ele>99.63</ele>
        <time>2014-05-02T12:04:20Z</time>
      </trkpt>
      <trkpt lat="50.57469" lon="1.88294">
        <ele>100.6</ele>
        <time>2014-05-02T12:04:28Z</time>
      </trkpt>
      <trkpt lat="50.57471" lon="1.88318">
        <ele>101.56</ele>
        <time>2014-05-02T12:04:37Z</time>
      </trkpt>
      <trkpt lat="50.57473" lon="1.88338">
        <ele>102.04</ele>
        <time>2014-05-02T12:04:44Z</time>
      </trkpt>
      <trkpt lat="50.57476" lon="1.88354">
        <ele>102.52</ele>
        <time>2014-05-02T12:04:52Z</time>
      </trkpt>
      <trkpt lat="50.57479" lon="1.88374">
        <ele>103</ele>
        <time>2014-05-02T12:04:59Z</time>
      </trkpt>
      <trkpt lat="50.57482" lon="1.88392">
        <ele>103.96</ele>
        <time>2014-05-02T12:05:06Z</time>
      </trkpt>
      <trkpt lat="50.57484" lon="1.88411">
        <ele>103.96</ele>
        <time>2014-05-02T12:05:12Z</time>
      </trkpt>
      <trkpt lat="50.57488" lon="1.8843">
        <ele>104.44</ele>
        <time>2014-05-02T12:05:18Z</time>
      </trkpt>
      <trkpt lat="50.57491" lon="1.88448">
        <ele>104.44</ele>
        <time>2014-05-02T12:05:24Z</time>
      </trkpt>
      <trkpt lat="50.57494" lon="1.88465">
        <ele>105.88</ele>
        <time>2014-05-02T12:05:30Z</time>
      </trkpt>
      <trkpt lat="50.57497" lon="1.88483">
        <ele>106.36</ele>
        <time>2014-05-02T12:05:36Z</time>
      </trkpt>
      <trkpt lat="50.57501" lon="1.88501">
        <ele>106.84</ele>
        <time>2014-05-02T12:05:43Z</time>
      </trkpt>
      <trkpt lat="50.57505" lon="1.88519">
        <ele>107.32</ele>
        <time>2014-05-02T12:05:50Z</time>
      </trkpt>
      <trkpt lat="50.57509" lon="1.88537">
        <ele>107.81</ele>
        <time>2014-05-02T12:05:57Z</time>
      </trkpt>
      <trkpt lat="50.57512" lon="1.88556">
        <ele>108.77</ele>
        <time>2014-05-02T12:06:04Z</time>
      </trkpt>
      <trkpt lat="50.57514" lon="1.88575">
        <ele>109.73</ele>
        <time>2014-05-02T12:06:11Z</time>
      </trkpt>
      <trkpt lat="50.57516" lon="1.88589">
        <ele>109.25</ele>
        <time>2014-05-02T12:06:17Z</time>
      </trkpt>
      <trkpt lat="50.5752" lon="1.88607">
        <ele>110.69</ele>
        <time>2014-05-02T12:06:24Z</time>
      </trkpt>
      <trkpt lat="50.57523" lon="1.88624">
        <ele>111.65</ele>
        <time>2014-05-02T12:06:30Z</time>
      </trkpt>
      <trkpt lat="50.57527" lon="1.8864">
        <ele>112.61</ele>
        <time>2014-05-02T12:06:37Z</time>
      </trkpt>
      <trkpt lat="50.57529" lon="1.88661">
        <ele>113.09</ele>
        <time>2014-05-02T12:06:44Z</time>
      </trkpt>
      <trkpt lat="50.57531" lon="1.88678">
        <ele>114.05</ele>
        <time>2014-05-02T12:06:51Z</time>
      </trkpt>
      <trkpt lat="50.57534" lon="1.88695">
        <ele>115.01</ele>
        <time>2014-05-02T12:06:58Z</time>
      </trkpt>
      <trkpt lat="50.57536" lon="1.88715">
        <ele>115.5</ele>
        <time>2014-05-02T12:07:06Z</time>
      </trkpt>
      <trkpt lat="50.57538" lon="1.88734">
        <ele>116.94</ele>
        <time>2014-05-02T12:07:13Z</time>
      </trkpt>
      <trkpt lat="50.57539" lon="1.88752">
        <ele>117.9</ele>
        <time>2014-05-02T12:07:20Z</time>
      </trkpt>
      <trkpt lat="50.57541" lon="1.88769">
        <ele>118.86</ele>
        <time>2014-05-02T12:07:27Z</time>
      </trkpt>
      <trkpt lat="50.57545" lon="1.88785">
        <ele>119.82</ele>
        <time>2014-05-02T12:07:34Z</time>
      </trkpt>
      <trkpt lat="50.57546" lon="1.88805">
        <ele>120.3</ele>
        <time>2014-05-02T12:07:41Z</time>
      </trkpt>
      <trkpt lat="50.57547" lon="1.88823">
        <ele>120.78</ele>
        <time>2014-05-02T12:07:48Z</time>
      </trkpt>
      <trkpt lat="50.57548" lon="1.88845">
        <ele>121.26</ele>
        <time>2014-05-02T12:07:56Z</time>
      </trkpt>
      <trkpt lat="50.57549" lon="1.88867">
        <ele>122.22</ele>
        <time>2014-05-02T12:08:05Z</time>
      </trkpt>
      <trkpt lat="50.57552" lon="1.88891">
        <ele>122.22</ele>
        <time>2014-05-02T12:08:14Z</time>
      </trkpt>
      <trkpt lat="50.57558" lon="1.8891">
        <ele>123.19</ele>
        <time>2014-05-02T12:08:21Z</time>
      </trkpt>
      <trkpt lat="50.57562" lon="1.88927">
        <ele>123.19</ele>
        <time>2014-05-02T12:08:28Z</time>
      </trkpt>
      <trkpt lat="50.57568" lon="1.88946">
        <ele>124.63</ele>
        <time>2014-05-02T12:08:37Z</time>
      </trkpt>
      <trkpt lat="50.57575" lon="1.88962">
        <ele>123.19</ele>
        <time>2014-05-02T12:08:48Z</time>
      </trkpt>
      <trkpt lat="50.57583" lon="1.88977">
        <ele>124.15</ele>
        <time>2014-05-02T12:08:56Z</time>
      </trkpt>
      <trkpt lat="50.57588" lon="1.88994">
        <ele>124.63</ele>
        <time>2014-05-02T12:09:03Z</time>
      </trkpt>
      <trkpt lat="50.57594" lon="1.89007">
        <ele>124.63</ele>
        <time>2014-05-02T12:09:10Z</time>
      </trkpt>
      <trkpt lat="50.57601" lon="1.89027">
        <ele>125.59</ele>
        <time>2014-05-02T12:09:19Z</time>
      </trkpt>
      <trkpt lat="50.57606" lon="1.89045">
        <ele>126.07</ele>
        <time>2014-05-02T12:09:26Z</time>
      </trkpt>
      <trkpt lat="50.57613" lon="1.8906">
        <ele>125.59</ele>
        <time>2014-05-02T12:09:32Z</time>
      </trkpt>
      <trkpt lat="50.57618" lon="1.89075">
        <ele>125.59</ele>
        <time>2014-05-02T12:09:38Z</time>
      </trkpt>
      <trkpt lat="50.57624" lon="1.89088">
        <ele>125.59</ele>
        <time>2014-05-02T12:09:44Z</time>
      </trkpt>
      <trkpt lat="50.57631" lon="1.891">
        <ele>125.59</ele>
        <time>2014-05-02T12:09:50Z</time>
      </trkpt>
      <trkpt lat="50.57638" lon="1.89113">
        <ele>125.11</ele>
        <time>2014-05-02T12:09:56Z</time>
      </trkpt>
      <trkpt lat="50.57645" lon="1.89126">
        <ele>126.55</ele>
        <time>2014-05-02T12:10:02Z</time>
      </trkpt>
      <trkpt lat="50.57653" lon="1.8914">
        <ele>126.55</ele>
        <time>2014-05-02T12:10:08Z</time>
      </trkpt>
      <trkpt lat="50.57661" lon="1.89152">
        <ele>125.59</ele>
        <time>2014-05-02T12:10:14Z</time>
      </trkpt>
      <trkpt lat="50.57669" lon="1.89166">
        <ele>125.59</ele>
        <time>2014-05-02T12:10:22Z</time>
      </trkpt>
      <trkpt lat="50.57678" lon="1.89184">
        <ele>126.07</ele>
        <time>2014-05-02T12:10:31Z</time>
      </trkpt>
      <trkpt lat="50.57687" lon="1.89198">
        <ele>127.03</ele>
        <time>2014-05-02T12:10:38Z</time>
      </trkpt>
      <trkpt lat="50.57697" lon="1.89212">
        <ele>127.03</ele>
        <time>2014-05-02T12:10:44Z</time>
      </trkpt>
      <trkpt lat="50.57705" lon="1.89226">
        <ele>127.51</ele>
        <time>2014-05-02T12:10:50Z</time>
      </trkpt>
      <trkpt lat="50.57712" lon="1.89235">
        <ele>127.03</ele>
        <time>2014-05-02T12:10:55Z</time>
      </trkpt>
      <trkpt lat="50.57719" lon="1.89248">
        <ele>127.51</ele>
        <time>2014-05-02T12:11:01Z</time>
      </trkpt>
      <trkpt lat="50.57726" lon="1.89261">
        <ele>128.47</ele>
        <time>2014-05-02T12:11:07Z</time>
      </trkpt>
      <trkpt lat="50.57732" lon="1.89277">
        <ele>128.95</ele>
        <time>2014-05-02T12:11:14Z</time>
      </trkpt>
      <trkpt lat="50.57737" lon="1.89291">
        <ele>129.43</ele>
        <time>2014-05-02T12:11:20Z</time>
      </trkpt>
      <trkpt lat="50.57742" lon="1.89304">
        <ele>130.88</ele>
        <time>2014-05-02T12:11:26Z</time>
      </trkpt>
      <trkpt lat="50.57746" lon="1.89323">
        <ele>130.88</ele>
        <time>2014-05-02T12:11:33Z</time>
      </trkpt>
      <trkpt lat="50.57749" lon="1.8934">
        <ele>131.36</ele>
        <time>2014-05-02T12:11:39Z</time>
      </trkpt>
      <trkpt lat="50.57753" lon="1.89353">
        <ele>131.84</ele>
        <time>2014-05-02T12:11:45Z</time>
      </trkpt>
      <trkpt lat="50.57758" lon="1.89368">
        <ele>132.8</ele>
        <time>2014-05-02T12:11:51Z</time>
      </trkpt>
      <trkpt lat="50.57763" lon="1.89383">
        <ele>133.76</ele>
        <time>2014-05-02T12:11:57Z</time>
      </trkpt>
      <trkpt lat="50.57768" lon="1.89399">
        <ele>134.24</ele>
        <time>2014-05-02T12:12:03Z</time>
      </trkpt>
      <trkpt lat="50.57771" lon="1.89413">
        <ele>134.24</ele>
        <time>2014-05-02T12:12:08Z</time>
      </trkpt>
      <trkpt lat="50.57776" lon="1.89429">
        <ele>134.72</ele>
        <time>2014-05-02T12:12:14Z</time>
      </trkpt>
      <trkpt lat="50.5778" lon="1.89444">
        <ele>135.2</ele>
        <time>2014-05-02T12:12:19Z</time>
      </trkpt>
      <trkpt lat="50.57785" lon="1.89458">
        <ele>134.72</ele>
        <time>2014-05-02T12:12:24Z</time>
      </trkpt>
      <trkpt lat="50.57792" lon="1.89471">
        <ele>135.68</ele>
        <time>2014-05-02T12:12:30Z</time>
      </trkpt>
      <trkpt lat="50.57797" lon="1.89486">
        <ele>136.64</ele>
        <time>2014-05-02T12:12:36Z</time>
      </trkpt>
      <trkpt lat="50.57803" lon="1.89498">
        <ele>137.13</ele>
        <time>2014-05-02T12:12:41Z</time>
      </trkpt>
      <trkpt lat="50.57808" lon="1.89509">
        <ele>136.64</ele>
        <time>2014-05-02T12:12:46Z</time>
      </trkpt>
      <trkpt lat="50.57812" lon="1.89524">
        <ele>136.64</ele>
        <time>2014-05-02T12:12:52Z</time>
      </trkpt>
      <trkpt lat="50.57815" lon="1.8954">
        <ele>137.61</ele>
        <time>2014-05-02T12:12:58Z</time>
      </trkpt>
      <trkpt lat="50.57819" lon="1.89555">
        <ele>137.61</ele>
        <time>2014-05-02T12:13:04Z</time>
      </trkpt>
      <trkpt lat="50.57822" lon="1.89572">
        <ele>136.64</ele>
        <time>2014-05-02T12:13:10Z</time>
      </trkpt>
      <trkpt lat="50.57826" lon="1.89588">
        <ele>136.64</ele>
        <time>2014-05-02T12:13:15Z</time>
      </trkpt>
      <trkpt lat="50.57827" lon="1.89606">
        <ele>136.16</ele>
        <time>2014-05-02T12:13:21Z</time>
      </trkpt>
      <trkpt lat="50.5783" lon="1.89622">
        <ele>134.72</ele>
        <time>2014-05-02T12:13:27Z</time>
      </trkpt>
      <trkpt lat="50.57832" lon="1.89636">
        <ele>134.24</ele>
        <time>2014-05-02T12:13:32Z</time>
      </trkpt>
      <trkpt lat="50.57835" lon="1.89651">
        <ele>134.24</ele>
        <time>2014-05-02T12:13:38Z</time>
      </trkpt>
      <trkpt lat="50.57838" lon="1.89667">
        <ele>133.76</ele>
        <time>2014-05-02T12:13:44Z</time>
      </trkpt>
      <trkpt lat="50.5784" lon="1.8968">
        <ele>133.76</ele>
        <time>2014-05-02T12:13:49Z</time>
      </trkpt>
      <trkpt lat="50.57843" lon="1.89696">
        <ele>133.28</ele>
        <time>2014-05-02T12:13:54Z</time>
      </trkpt>
      <trkpt lat="50.57845" lon="1.89711">
        <ele>131.84</ele>
        <time>2014-05-02T12:13:59Z</time>
      </trkpt>
      <trkpt lat="50.57848" lon="1.89726">
        <ele>132.8</ele>
        <time>2014-05-02T12:14:04Z</time>
      </trkpt>
      <trkpt lat="50.57849" lon="1.89741">
        <ele>132.8</ele>
        <time>2014-05-02T12:14:09Z</time>
      </trkpt>
      <trkpt lat="50.57851" lon="1.89755">
        <ele>132.32</ele>
        <time>2014-05-02T12:14:14Z</time>
      </trkpt>
      <trkpt lat="50.57853" lon="1.8977">
        <ele>131.84</ele>
        <time>2014-05-02T12:14:19Z</time>
      </trkpt>
      <trkpt lat="50.57855" lon="1.89784">
        <ele>131.36</ele>
        <time>2014-05-02T12:14:24Z</time>
      </trkpt>
      <trkpt lat="50.57858" lon="1.89799">
        <ele>131.36</ele>
        <time>2014-05-02T12:14:29Z</time>
      </trkpt>
      <trkpt lat="50.57861" lon="1.89814">
        <ele>131.36</ele>
        <time>2014-05-02T12:14:34Z</time>
      </trkpt>
      <trkpt lat="50.57863" lon="1.89829">
        <ele>130.88</ele>
        <time>2014-05-02T12:14:39Z</time>
      </trkpt>
      <trkpt lat="50.57866" lon="1.89844">
        <ele>130.4</ele>
        <time>2014-05-02T12:14:44Z</time>
      </trkpt>
      <trkpt lat="50.5787" lon="1.89854">
        <ele>129.92</ele>
        <time>2014-05-02T12:14:49Z</time>
      </trkpt>
      <trkpt lat="50.57874" lon="1.89866">
        <ele>129.43</ele>
        <time>2014-05-02T12:14:54Z</time>
      </trkpt>
      <trkpt lat="50.57879" lon="1.89878">
        <ele>129.43</ele>
        <time>2014-05-02T12:14:59Z</time>
      </trkpt>
      <trkpt lat="50.57886" lon="1.89889">
        <ele>128.95</ele>
        <time>2014-05-02T12:15:04Z</time>
      </trkpt>
      <trkpt lat="50.57892" lon="1.89901">
        <ele>128.47</ele>
        <time>2014-05-02T12:15:09Z</time>
      </trkpt>
      <trkpt lat="50.57899" lon="1.8991">
        <ele>127.99</ele>
        <time>2014-05-02T12:15:14Z</time>
      </trkpt>
      <trkpt lat="50.57908" lon="1.89922">
        <ele>127.03</ele>
        <time>2014-05-02T12:15:20Z</time>
      </trkpt>
      <trkpt lat="50.57914" lon="1.89931">
        <ele>127.03</ele>
        <time>2014-05-02T12:15:25Z</time>
      </trkpt>
      <trkpt lat="50.57923" lon="1.89941">
        <ele>127.51</ele>
        <time>2014-05-02T12:15:31Z</time>
      </trkpt>
      <trkpt lat="50.5793" lon="1.89952">
        <ele>127.03</ele>
        <time>2014-05-02T12:15:37Z</time>
      </trkpt>
      <trkpt lat="50.57938" lon="1.89962">
        <ele>127.51</ele>
        <time>2014-05-02T12:15:43Z</time>
      </trkpt>
      <trkpt lat="50.57945" lon="1.89971">
        <ele>127.99</ele>
        <time>2014-05-02T12:15:48Z</time>
      </trkpt>
      <trkpt lat="50.57953" lon="1.8998">
        <ele>127.99</ele>
        <time>2014-05-02T12:15:53Z</time>
      </trkpt>
      <trkpt lat="50.57961" lon="1.89988">
        <ele>128.95</ele>
        <time>2014-05-02T12:15:58Z</time>
      </trkpt>
      <trkpt lat="50.57968" lon="1.89996">
        <ele>129.43</ele>
        <time>2014-05-02T12:16:03Z</time>
      </trkpt>
      <trkpt lat="50.57975" lon="1.90005">
        <ele>129.92</ele>
        <time>2014-05-02T12:16:08Z</time>
      </trkpt>
      <trkpt lat="50.57983" lon="1.90014">
        <ele>129.92</ele>
        <time>2014-05-02T12:16:13Z</time>
      </trkpt>
      <trkpt lat="50.57991" lon="1.90024">
        <ele>129.92</ele>
        <time>2014-05-02T12:16:18Z</time>
      </trkpt>
      <trkpt lat="50.57999" lon="1.90033">
        <ele>131.36</ele>
        <time>2014-05-02T12:16:23Z</time>
      </trkpt>
      <trkpt lat="50.58006" lon="1.90041">
        <ele>131.36</ele>
        <time>2014-05-02T12:16:28Z</time>
      </trkpt>
      <trkpt lat="50.58014" lon="1.90049">
        <ele>131.36</ele>
        <time>2014-05-02T12:16:33Z</time>
      </trkpt>
      <trkpt lat="50.58021" lon="1.90057">
        <ele>131.84</ele>
        <time>2014-05-02T12:16:38Z</time>
      </trkpt>
      <trkpt lat="50.5803" lon="1.90066">
        <ele>132.32</ele>
        <time>2014-05-02T12:16:44Z</time>
      </trkpt>
      <trkpt lat="50.58038" lon="1.90075">
        <ele>131.84</ele>
        <time>2014-05-02T12:16:50Z</time>
      </trkpt>
      <trkpt lat="50.58047" lon="1.90084">
        <ele>133.28</ele>
        <time>2014-05-02T12:16:56Z</time>
      </trkpt>
      <trkpt lat="50.58056" lon="1.90092">
        <ele>134.24</ele>
        <time>2014-05-02T12:17:02Z</time>
      </trkpt>
      <trkpt lat="50.58065" lon="1.90101">
        <ele>135.2</ele>
        <time>2014-05-02T12:17:08Z</time>
      </trkpt>
      <trkpt lat="50.58074" lon="1.90108">
        <ele>134.72</ele>
        <time>2014-05-02T12:17:14Z</time>
      </trkpt>
      <trkpt lat="50.58083" lon="1.90116">
        <ele>136.16</ele>
        <time>2014-05-02T12:17:20Z</time>
      </trkpt>
      <trkpt lat="50.58092" lon="1.90125">
        <ele>136.64</ele>
        <time>2014-05-02T12:17:26Z</time>
      </trkpt>
      <trkpt lat="50.58101" lon="1.90134">
        <ele>137.13</ele>
        <time>2014-05-02T12:17:32Z</time>
      </trkpt>
      <trkpt lat="50.58109" lon="1.90146">
        <ele>139.05</ele>
        <time>2014-05-02T12:17:39Z</time>
      </trkpt>
      <trkpt lat="50.58116" lon="1.90157">
        <ele>139.05</ele>
        <time>2014-05-02T12:17:45Z</time>
      </trkpt>
      <trkpt lat="50.58123" lon="1.90169">
        <ele>139.53</ele>
        <time>2014-05-02T12:17:51Z</time>
      </trkpt>
      <trkpt lat="50.5813" lon="1.90182">
        <ele>140.01</ele>
        <time>2014-05-02T12:17:57Z</time>
      </trkpt>
      <trkpt lat="50.58137" lon="1.90194">
        <ele>140.49</ele>
        <time>2014-05-02T12:18:03Z</time>
      </trkpt>
      <trkpt lat="50.58143" lon="1.90206">
        <ele>140.97</ele>
        <time>2014-05-02T12:18:08Z</time>
      </trkpt>
      <trkpt lat="50.58149" lon="1.9022">
        <ele>140.97</ele>
        <time>2014-05-02T12:18:14Z</time>
      </trkpt>
      <trkpt lat="50.58155" lon="1.90233">
        <ele>141.93</ele>
        <time>2014-05-02T12:18:20Z</time>
      </trkpt>
      <trkpt lat="50.5816" lon="1.90245">
        <ele>141.45</ele>
        <time>2014-05-02T12:18:25Z</time>
      </trkpt>
      <trkpt lat="50.58166" lon="1.90255">
        <ele>142.89</ele>
        <time>2014-05-02T12:18:30Z</time>
      </trkpt>
      <trkpt lat="50.58171" lon="1.90268">
        <ele>144.34</ele>
        <time>2014-05-02T12:18:35Z</time>
      </trkpt>
      <trkpt lat="50.58177" lon="1.9028">
        <ele>143.37</ele>
        <time>2014-05-02T12:18:41Z</time>
      </trkpt>
      <trkpt lat="50.58181" lon="1.90294">
        <ele>144.82</ele>
        <time>2014-05-02T12:18:47Z</time>
      </trkpt>
      <trkpt lat="50.58187" lon="1.90307">
        <ele>144.82</ele>
        <time>2014-05-02T12:18:52Z</time>
      </trkpt>
      <trkpt lat="50.58191" lon="1.90321">
        <ele>145.78</ele>
        <time>2014-05-02T12:18:58Z</time>
      </trkpt>
      <trkpt lat="50.58194" lon="1.90336">
        <ele>145.78</ele>
        <time>2014-05-02T12:19:05Z</time>
      </trkpt>
      <trkpt lat="50.58198" lon="1.90351">
        <ele>145.78</ele>
        <time>2014-05-02T12:19:12Z</time>
      </trkpt>
      <trkpt lat="50.58201" lon="1.90365">
        <ele>146.74</ele>
        <time>2014-05-02T12:19:18Z</time>
      </trkpt>
      <trkpt lat="50.58205" lon="1.90381">
        <ele>146.26</ele>
        <time>2014-05-02T12:19:24Z</time>
      </trkpt>
      <trkpt lat="50.58212" lon="1.90394">
        <ele>147.22</ele>
        <time>2014-05-02T12:19:30Z</time>
      </trkpt>
      <trkpt lat="50.58219" lon="1.90407">
        <ele>147.7</ele>
        <time>2014-05-02T12:19:36Z</time>
      </trkpt>
      <trkpt lat="50.58224" lon="1.9042">
        <ele>148.66</ele>
        <time>2014-05-02T12:19:42Z</time>
      </trkpt>
      <trkpt lat="50.5823" lon="1.90432">
        <ele>148.66</ele>
        <time>2014-05-02T12:19:47Z</time>
      </trkpt>
      <trkpt lat="50.58237" lon="1.90445">
        <ele>148.18</ele>
        <time>2014-05-02T12:19:53Z</time>
      </trkpt>
      <trkpt lat="50.58242" lon="1.90459">
        <ele>148.18</ele>
        <time>2014-05-02T12:19:59Z</time>
      </trkpt>
      <trkpt lat="50.58248" lon="1.90472">
        <ele>149.62</ele>
        <time>2014-05-02T12:20:05Z</time>
      </trkpt>
      <trkpt lat="50.58252" lon="1.90485">
        <ele>149.62</ele>
        <time>2014-05-02T12:20:10Z</time>
      </trkpt>
      <trkpt lat="50.58258" lon="1.90497">
        <ele>150.1</ele>
        <time>2014-05-02T12:20:15Z</time>
      </trkpt>
      <trkpt lat="50.58263" lon="1.9051">
        <ele>150.1</ele>
        <time>2014-05-02T12:20:20Z</time>
      </trkpt>
      <trkpt lat="50.58268" lon="1.90522">
        <ele>151.06</ele>
        <time>2014-05-02T12:20:25Z</time>
      </trkpt>
      <trkpt lat="50.58273" lon="1.90535">
        <ele>151.06</ele>
        <time>2014-05-02T12:20:31Z</time>
      </trkpt>
      <trkpt lat="50.58281" lon="1.90547">
        <ele>150.1</ele>
        <time>2014-05-02T12:20:37Z</time>
      </trkpt>
      <trkpt lat="50.58286" lon="1.9056">
        <ele>151.54</ele>
        <time>2014-05-02T12:20:43Z</time>
      </trkpt>
      <trkpt lat="50.58292" lon="1.90572">
        <ele>151.06</ele>
        <time>2014-05-02T12:20:49Z</time>
      </trkpt>
      <trkpt lat="50.58298" lon="1.90585">
        <ele>152.03</ele>
        <time>2014-05-02T12:20:55Z</time>
      </trkpt>
      <trkpt lat="50.58304" lon="1.90599">
        <ele>151.54</ele>
        <time>2014-05-02T12:21:01Z</time>
      </trkpt>
      <trkpt lat="50.5831" lon="1.90612">
        <ele>151.54</ele>
        <time>2014-05-02T12:21:07Z</time>
      </trkpt>
      <trkpt lat="50.58315" lon="1.90624">
        <ele>151.54</ele>
        <time>2014-05-02T12:21:13Z</time>
      </trkpt>
      <trkpt lat="50.58321" lon="1.90635">
        <ele>150.58</ele>
        <time>2014-05-02T12:21:19Z</time>
      </trkpt>
      <trkpt lat="50.58327" lon="1.90645">
        <ele>151.06</ele>
        <time>2014-05-02T12:21:24Z</time>
      </trkpt>
      <trkpt lat="50.58334" lon="1.90656">
        <ele>150.58</ele>
        <time>2014-05-02T12:21:30Z</time>
      </trkpt>
      <trkpt lat="50.58341" lon="1.90666">
        <ele>150.1</ele>
        <time>2014-05-02T12:21:35Z</time>
      </trkpt>
      <trkpt lat="50.58348" lon="1.90679">
        <ele>150.58</ele>
        <time>2014-05-02T12:21:41Z</time>
      </trkpt>
      <trkpt lat="50.58354" lon="1.90689">
        <ele>149.14</ele>
        <time>2014-05-02T12:21:46Z</time>
      </trkpt>
      <trkpt lat="50.58361" lon="1.907">
        <ele>149.14</ele>
        <time>2014-05-02T12:21:51Z</time>
      </trkpt>
      <trkpt lat="50.58368" lon="1.9071">
        <ele>149.14</ele>
        <time>2014-05-02T12:21:56Z</time>
      </trkpt>
      <trkpt lat="50.58374" lon="1.90722">
        <ele>148.66</ele>
        <time>2014-05-02T12:22:02Z</time>
      </trkpt>
      <trkpt lat="50.5838" lon="1.90732">
        <ele>148.66</ele>
        <time>2014-05-02T12:22:07Z</time>
      </trkpt>
      <trkpt lat="50.58387" lon="1.90742">
        <ele>148.66</ele>
        <time>2014-05-02T12:22:12Z</time>
      </trkpt>
      <trkpt lat="50.58394" lon="1.90754">
        <ele>149.14</ele>
        <time>2014-05-02T12:22:18Z</time>
      </trkpt>
      <trkpt lat="50.584" lon="1.90764">
        <ele>148.66</ele>
        <time>2014-05-02T12:22:23Z</time>
      </trkpt>
      <trkpt lat="50.58407" lon="1.90775">
        <ele>149.62</ele>
        <time>2014-05-02T12:22:28Z</time>
      </trkpt>
      <trkpt lat="50.58414" lon="1.90784">
        <ele>148.66</ele>
        <time>2014-05-02T12:22:33Z</time>
      </trkpt>
      <trkpt lat="50.5842" lon="1.90797">
        <ele>148.18</ele>
        <time>2014-05-02T12:22:39Z</time>
      </trkpt>
      <trkpt lat="50.58427" lon="1.9081">
        <ele>149.14</ele>
        <time>2014-05-02T12:22:45Z</time>
      </trkpt>
      <trkpt lat="50.58433" lon="1.90823">
        <ele>147.7</ele>
        <time>2014-05-02T12:22:51Z</time>
      </trkpt>
      <trkpt lat="50.5844" lon="1.90833">
        <ele>148.18</ele>
        <time>2014-05-02T12:22:56Z</time>
      </trkpt>
      <trkpt lat="50.58447" lon="1.90845">
        <ele>147.7</ele>
        <time>2014-05-02T12:23:02Z</time>
      </trkpt>
      <trkpt lat="50.58453" lon="1.90858">
        <ele>147.22</ele>
        <time>2014-05-02T12:23:08Z</time>
      </trkpt>
      <trkpt lat="50.58458" lon="1.9087">
        <ele>147.22</ele>
        <time>2014-05-02T12:23:13Z</time>
      </trkpt>
      <trkpt lat="50.58464" lon="1.90883">
        <ele>146.26</ele>
        <time>2014-05-02T12:23:19Z</time>
      </trkpt>
      <trkpt lat="50.58472" lon="1.90895">
        <ele>147.22</ele>
        <time>2014-05-02T12:23:25Z</time>
      </trkpt>
      <trkpt lat="50.58479" lon="1.90907">
        <ele>145.78</ele>
        <time>2014-05-02T12:23:31Z</time>
      </trkpt>
      <trkpt lat="50.58487" lon="1.90917">
        <ele>146.26</ele>
        <time>2014-05-02T12:23:37Z</time>
      </trkpt>
      <trkpt lat="50.58494" lon="1.90926">
        <ele>145.78</ele>
        <time>2014-05-02T12:23:44Z</time>
      </trkpt>
      <trkpt lat="50.58503" lon="1.90935">
        <ele>145.78</ele>
        <time>2014-05-02T12:23:50Z</time>
      </trkpt>
      <trkpt lat="50.58511" lon="1.90946">
        <ele>144.82</ele>
        <time>2014-05-02T12:23:56Z</time>
      </trkpt>
      <trkpt lat="50.58519" lon="1.90958">
        <ele>145.78</ele>
        <time>2014-05-02T12:24:02Z</time>
      </trkpt>
      <trkpt lat="50.58527" lon="1.90968">
        <ele>144.34</ele>
        <time>2014-05-02T12:24:07Z</time>
      </trkpt>
      <trkpt lat="50.58534" lon="1.90978">
        <ele>143.85</ele>
        <time>2014-05-02T12:24:12Z</time>
      </trkpt>
      <trkpt lat="50.58541" lon="1.90988">
        <ele>143.85</ele>
        <time>2014-05-02T12:24:18Z</time>
      </trkpt>
      <trkpt lat="50.58549" lon="1.90998">
        <ele>143.37</ele>
        <time>2014-05-02T12:24:24Z</time>
      </trkpt>
      <trkpt lat="50.58557" lon="1.91007">
        <ele>142.89</ele>
        <time>2014-05-02T12:24:29Z</time>
      </trkpt>
      <trkpt lat="50.58564" lon="1.91015">
        <ele>141.45</ele>
        <time>2014-05-02T12:24:34Z</time>
      </trkpt>
      <trkpt lat="50.58572" lon="1.91024">
        <ele>141.93</ele>
        <time>2014-05-02T12:24:40Z</time>
      </trkpt>
      <trkpt lat="50.5858" lon="1.91034">
        <ele>142.41</ele>
        <time>2014-05-02T12:24:46Z</time>
      </trkpt>
      <trkpt lat="50.58589" lon="1.91042">
        <ele>141.45</ele>
        <time>2014-05-02T12:24:51Z</time>
      </trkpt>
      <trkpt lat="50.58596" lon="1.9105">
        <ele>140.01</ele>
        <time>2014-05-02T12:24:56Z</time>
      </trkpt>
      <trkpt lat="50.58604" lon="1.9106">
        <ele>140.49</ele>
        <time>2014-05-02T12:25:01Z</time>
      </trkpt>
      <trkpt lat="50.58612" lon="1.91069">
        <ele>140.49</ele>
        <time>2014-05-02T12:25:07Z</time>
      </trkpt>
      <trkpt lat="50.5862" lon="1.91081">
        <ele>140.49</ele>
        <time>2014-05-02T12:25:13Z</time>
      </trkpt>
      <trkpt lat="50.58628" lon="1.9109">
        <ele>140.01</ele>
        <time>2014-05-02T12:25:19Z</time>
      </trkpt>
      <trkpt lat="50.58636" lon="1.91102">
        <ele>139.53</ele>
        <time>2014-05-02T12:25:25Z</time>
      </trkpt>
      <trkpt lat="50.58644" lon="1.91115">
        <ele>139.05</ele>
        <time>2014-05-02T12:25:31Z</time>
      </trkpt>
      <trkpt lat="50.5865" lon="1.91127">
        <ele>140.01</ele>
        <time>2014-05-02T12:25:37Z</time>
      </trkpt>
      <trkpt lat="50.58654" lon="1.91142">
        <ele>140.01</ele>
        <time>2014-05-02T12:25:45Z</time>
      </trkpt>
      <trkpt lat="50.58659" lon="1.91156">
        <ele>139.53</ele>
        <time>2014-05-02T12:25:51Z</time>
      </trkpt>
      <trkpt lat="50.58663" lon="1.91169">
        <ele>138.09</ele>
        <time>2014-05-02T12:25:57Z</time>
      </trkpt>
      <trkpt lat="50.58669" lon="1.91184">
        <ele>139.53</ele>
        <time>2014-05-02T12:26:04Z</time>
      </trkpt>
      <trkpt lat="50.58674" lon="1.91199">
        <ele>138.57</ele>
        <time>2014-05-02T12:26:10Z</time>
      </trkpt>
      <trkpt lat="50.58679" lon="1.91215">
        <ele>137.61</ele>
        <time>2014-05-02T12:26:16Z</time>
      </trkpt>
      <trkpt lat="50.58685" lon="1.91228">
        <ele>139.05</ele>
        <time>2014-05-02T12:26:22Z</time>
      </trkpt>
      <trkpt lat="50.5869" lon="1.91242">
        <ele>137.61</ele>
        <time>2014-05-02T12:26:28Z</time>
      </trkpt>
      <trkpt lat="50.58696" lon="1.91257">
        <ele>136.64</ele>
        <time>2014-05-02T12:26:34Z</time>
      </trkpt>
      <trkpt lat="50.58701" lon="1.91271">
        <ele>137.61</ele>
        <time>2014-05-02T12:26:40Z</time>
      </trkpt>
      <trkpt lat="50.58706" lon="1.91284">
        <ele>136.16</ele>
        <time>2014-05-02T12:26:46Z</time>
      </trkpt>
      <trkpt lat="50.58712" lon="1.91297">
        <ele>136.64</ele>
        <time>2014-05-02T12:26:51Z</time>
      </trkpt>
      <trkpt lat="50.58718" lon="1.91313">
        <ele>136.64</ele>
        <time>2014-05-02T12:26:57Z</time>
      </trkpt>
      <trkpt lat="50.58724" lon="1.91326">
        <ele>136.16</ele>
        <time>2014-05-02T12:27:03Z</time>
      </trkpt>
      <trkpt lat="50.58731" lon="1.91338">
        <ele>135.2</ele>
        <time>2014-05-02T12:27:09Z</time>
      </trkpt>
      <trkpt lat="50.58738" lon="1.91351">
        <ele>136.16</ele>
        <time>2014-05-02T12:27:15Z</time>
      </trkpt>
      <trkpt lat="50.58742" lon="1.91362">
        <ele>135.68</ele>
        <time>2014-05-02T12:27:20Z</time>
      </trkpt>
      <trkpt lat="50.58749" lon="1.91375">
        <ele>135.2</ele>
        <time>2014-05-02T12:27:26Z</time>
      </trkpt>
      <trkpt lat="50.58754" lon="1.91387">
        <ele>135.68</ele>
        <time>2014-05-02T12:27:32Z</time>
      </trkpt>
      <trkpt lat="50.58762" lon="1.914">
        <ele>134.72</ele>
        <time>2014-05-02T12:27:38Z</time>
      </trkpt>
      <trkpt lat="50.58769" lon="1.9141">
        <ele>134.24</ele>
        <time>2014-05-02T12:27:44Z</time>
      </trkpt>
      <trkpt lat="50.58778" lon="1.91407">
        <ele>135.2</ele>
        <time>2014-05-02T12:27:52Z</time>
      </trkpt>
      <trkpt lat="50.58784" lon="1.91394">
        <ele>135.2</ele>
        <time>2014-05-02T12:27:58Z</time>
      </trkpt>
      <trkpt lat="50.58789" lon="1.91381">
        <ele>137.13</ele>
        <time>2014-05-02T12:28:05Z</time>
      </trkpt>
      <trkpt lat="50.58796" lon="1.91369">
        <ele>138.09</ele>
        <time>2014-05-02T12:28:12Z</time>
      </trkpt>
      <trkpt lat="50.58803" lon="1.91357">
        <ele>139.53</ele>
        <time>2014-05-02T12:28:18Z</time>
      </trkpt>
      <trkpt lat="50.58812" lon="1.91345">
        <ele>139.53</ele>
        <time>2014-05-02T12:28:25Z</time>
      </trkpt>
      <trkpt lat="50.58819" lon="1.91332">
        <ele>139.53</ele>
        <time>2014-05-02T12:28:32Z</time>
      </trkpt>
      <trkpt lat="50.58828" lon="1.91319">
        <ele>140.01</ele>
        <time>2014-05-02T12:28:39Z</time>
      </trkpt>
      <trkpt lat="50.58833" lon="1.91306">
        <ele>140.49</ele>
        <time>2014-05-02T12:28:45Z</time>
      </trkpt>
      <trkpt lat="50.58841" lon="1.91292">
        <ele>140.49</ele>
        <time>2014-05-02T12:28:52Z</time>
      </trkpt>
      <trkpt lat="50.58849" lon="1.91278">
        <ele>140.01</ele>
        <time>2014-05-02T12:28:59Z</time>
      </trkpt>
      <trkpt lat="50.58857" lon="1.91264">
        <ele>140.97</ele>
        <time>2014-05-02T12:29:06Z</time>
      </trkpt>
      <trkpt lat="50.58865" lon="1.91252">
        <ele>140.49</ele>
        <time>2014-05-02T12:29:12Z</time>
      </trkpt>
      <trkpt lat="50.58875" lon="1.91242">
        <ele>141.45</ele>
        <time>2014-05-02T12:29:18Z</time>
      </trkpt>
      <trkpt lat="50.58884" lon="1.91233">
        <ele>140.97</ele>
        <time>2014-05-02T12:29:24Z</time>
      </trkpt>
      <trkpt lat="50.58894" lon="1.91224">
        <ele>139.05</ele>
        <time>2014-05-02T12:29:30Z</time>
      </trkpt>
      <trkpt lat="50.58904" lon="1.91215">
        <ele>137.13</ele>
        <time>2014-05-02T12:29:37Z</time>
      </trkpt>
      <trkpt lat="50.58916" lon="1.91206">
        <ele>136.64</ele>
        <time>2014-05-02T12:29:44Z</time>
      </trkpt>
      <trkpt lat="50.58926" lon="1.91194">
        <ele>137.13</ele>
        <time>2014-05-02T12:29:51Z</time>
      </trkpt>
      <trkpt lat="50.58934" lon="1.91182">
        <ele>135.68</ele>
        <time>2014-05-02T12:29:57Z</time>
      </trkpt>
      <trkpt lat="50.58942" lon="1.91169">
        <ele>135.2</ele>
        <time>2014-05-02T12:30:03Z</time>
      </trkpt>
      <trkpt lat="50.58949" lon="1.91155">
        <ele>134.72</ele>
        <time>2014-05-02T12:30:09Z</time>
      </trkpt>
      <trkpt lat="50.58953" lon="1.9114">
        <ele>133.28</ele>
        <time>2014-05-02T12:30:15Z</time>
      </trkpt>
      <trkpt lat="50.5896" lon="1.91126">
        <ele>133.28</ele>
        <time>2014-05-02T12:30:21Z</time>
      </trkpt>
      <trkpt lat="50.58964" lon="1.91113">
        <ele>132.32</ele>
        <time>2014-05-02T12:30:27Z</time>
      </trkpt>
      <trkpt lat="50.5897" lon="1.91097">
        <ele>131.84</ele>
        <time>2014-05-02T12:30:34Z</time>
      </trkpt>
      <trkpt lat="50.58975" lon="1.91082">
        <ele>131.36</ele>
        <time>2014-05-02T12:30:40Z</time>
      </trkpt>
      <trkpt lat="50.58981" lon="1.91066">
        <ele>129.92</ele>
        <time>2014-05-02T12:30:47Z</time>
      </trkpt>
      <trkpt lat="50.58988" lon="1.91051">
        <ele>130.4</ele>
        <time>2014-05-02T12:30:53Z</time>
      </trkpt>
      <trkpt lat="50.58994" lon="1.91036">
        <ele>129.43</ele>
        <time>2014-05-02T12:30:59Z</time>
      </trkpt>
      <trkpt lat="50.58999" lon="1.91021">
        <ele>129.92</ele>
        <time>2014-05-02T12:31:05Z</time>
      </trkpt>
      <trkpt lat="50.59003" lon="1.91006">
        <ele>130.88</ele>
        <time>2014-05-02T12:31:12Z</time>
      </trkpt>
      <trkpt lat="50.5901" lon="1.9099">
        <ele>130.88</ele>
        <time>2014-05-02T12:31:19Z</time>
      </trkpt>
      <trkpt lat="50.59017" lon="1.90978">
        <ele>131.36</ele>
        <time>2014-05-02T12:31:26Z</time>
      </trkpt>
      <trkpt lat="50.59023" lon="1.90967">
        <ele>131.36</ele>
        <time>2014-05-02T12:31:31Z</time>
      </trkpt>
      <trkpt lat="50.5903" lon="1.90956">
        <ele>132.32</ele>
        <time>2014-05-02T12:31:37Z</time>
      </trkpt>
      <trkpt lat="50.59038" lon="1.90944">
        <ele>133.28</ele>
        <time>2014-05-02T12:31:43Z</time>
      </trkpt>
      <trkpt lat="50.59049" lon="1.90935">
        <ele>133.28</ele>
        <time>2014-05-02T12:31:49Z</time>
      </trkpt>
      <trkpt lat="50.59059" lon="1.90924">
        <ele>134.72</ele>
        <time>2014-05-02T12:31:55Z</time>
      </trkpt>
      <trkpt lat="50.59069" lon="1.90915">
        <ele>135.2</ele>
        <time>2014-05-02T12:32:01Z</time>
      </trkpt>
      <trkpt lat="50.59079" lon="1.90906">
        <ele>134.72</ele>
        <time>2014-05-02T12:32:06Z</time>
      </trkpt>
      <trkpt lat="50.5909" lon="1.90899">
        <ele>135.2</ele>
        <time>2014-05-02T12:32:12Z</time>
      </trkpt>
      <trkpt lat="50.591" lon="1.90892">
        <ele>135.2</ele>
        <time>2014-05-02T12:32:18Z</time>
      </trkpt>
      <trkpt lat="50.59109" lon="1.90886">
        <ele>134.72</ele>
        <time>2014-05-02T12:32:23Z</time>
      </trkpt>
      <trkpt lat="50.59119" lon="1.90879">
        <ele>134.72</ele>
        <time>2014-05-02T12:32:29Z</time>
      </trkpt>
      <trkpt lat="50.59129" lon="1.9087">
        <ele>134.24</ele>
        <time>2014-05-02T12:32:35Z</time>
      </trkpt>
      <trkpt lat="50.59138" lon="1.90861">
        <ele>133.28</ele>
        <time>2014-05-02T12:32:41Z</time>
      </trkpt>
      <trkpt lat="50.59147" lon="1.90854">
        <ele>132.8</ele>
        <time>2014-05-02T12:32:46Z</time>
      </trkpt>
      <trkpt lat="50.59156" lon="1.90848">
        <ele>133.28</ele>
        <time>2014-05-02T12:32:51Z</time>
      </trkpt>
      <trkpt lat="50.59167" lon="1.90841">
        <ele>131.36</ele>
        <time>2014-05-02T12:32:57Z</time>
      </trkpt>
      <trkpt lat="50.59178" lon="1.90836">
        <ele>130.4</ele>
        <time>2014-05-02T12:33:03Z</time>
      </trkpt>
      <trkpt lat="50.59188" lon="1.9083">
        <ele>129.92</ele>
        <time>2014-05-02T12:33:09Z</time>
      </trkpt>
      <trkpt lat="50.59199" lon="1.90827">
        <ele>128.95</ele>
        <time>2014-05-02T12:33:15Z</time>
      </trkpt>
      <trkpt lat="50.59209" lon="1.90822">
        <ele>127.99</ele>
        <time>2014-05-02T12:33:21Z</time>
      </trkpt>
      <trkpt lat="50.59219" lon="1.90819">
        <ele>126.55</ele>
        <time>2014-05-02T12:33:27Z</time>
      </trkpt>
      <trkpt lat="50.59229" lon="1.90814">
        <ele>127.03</ele>
        <time>2014-05-02T12:33:33Z</time>
      </trkpt>
      <trkpt lat="50.59238" lon="1.90808">
        <ele>126.55</ele>
        <time>2014-05-02T12:33:38Z</time>
      </trkpt>
      <trkpt lat="50.59247" lon="1.908">
        <ele>127.03</ele>
        <time>2014-05-02T12:33:44Z</time>
      </trkpt>
      <trkpt lat="50.59255" lon="1.90792">
        <ele>126.55</ele>
        <time>2014-05-02T12:33:49Z</time>
      </trkpt>
      <trkpt lat="50.59265" lon="1.90782">
        <ele>127.51</ele>
        <time>2014-05-02T12:33:55Z</time>
      </trkpt>
      <trkpt lat="50.59274" lon="1.90774">
        <ele>127.03</ele>
        <time>2014-05-02T12:34:01Z</time>
      </trkpt>
      <trkpt lat="50.59283" lon="1.90764">
        <ele>126.55</ele>
        <time>2014-05-02T12:34:07Z</time>
      </trkpt>
      <trkpt lat="50.59291" lon="1.90753">
        <ele>127.03</ele>
        <time>2014-05-02T12:34:13Z</time>
      </trkpt>
      <trkpt lat="50.593" lon="1.90741">
        <ele>126.55</ele>
        <time>2014-05-02T12:34:19Z</time>
      </trkpt>
      <trkpt lat="50.59308" lon="1.90729">
        <ele>125.59</ele>
        <time>2014-05-02T12:34:25Z</time>
      </trkpt>
      <trkpt lat="50.59315" lon="1.90718">
        <ele>125.59</ele>
        <time>2014-05-02T12:34:30Z</time>
      </trkpt>
      <trkpt lat="50.59324" lon="1.90708">
        <ele>126.07</ele>
        <time>2014-05-02T12:34:36Z</time>
      </trkpt>
      <trkpt lat="50.59333" lon="1.90697">
        <ele>126.07</ele>
        <time>2014-05-02T12:34:42Z</time>
      </trkpt>
      <trkpt lat="50.59341" lon="1.90685">
        <ele>126.07</ele>
        <time>2014-05-02T12:34:48Z</time>
      </trkpt>
      <trkpt lat="50.59348" lon="1.90673">
        <ele>125.11</ele>
        <time>2014-05-02T12:34:53Z</time>
      </trkpt>
      <trkpt lat="50.59356" lon="1.90661">
        <ele>125.59</ele>
        <time>2014-05-02T12:34:59Z</time>
      </trkpt>
      <trkpt lat="50.59362" lon="1.90647">
        <ele>126.07</ele>
        <time>2014-05-02T12:35:05Z</time>
      </trkpt>
      <trkpt lat="50.5937" lon="1.90635">
        <ele>126.07</ele>
        <time>2014-05-02T12:35:11Z</time>
      </trkpt>
      <trkpt lat="50.59377" lon="1.9062">
        <ele>126.55</ele>
        <time>2014-05-02T12:35:17Z</time>
      </trkpt>
      <trkpt lat="50.59385" lon="1.90608">
        <ele>126.55</ele>
        <time>2014-05-02T12:35:23Z</time>
      </trkpt>
      <trkpt lat="50.59393" lon="1.90594">
        <ele>126.55</ele>
        <time>2014-05-02T12:35:29Z</time>
      </trkpt>
      <trkpt lat="50.59401" lon="1.90581">
        <ele>126.07</ele>
        <time>2014-05-02T12:35:35Z</time>
      </trkpt>
      <trkpt lat="50.59409" lon="1.9057">
        <ele>127.03</ele>
        <time>2014-05-02T12:35:41Z</time>
      </trkpt>
      <trkpt lat="50.59417" lon="1.90558">
        <ele>126.55</ele>
        <time>2014-05-02T12:35:48Z</time>
      </trkpt>
      <trkpt lat="50.59423" lon="1.90545">
        <ele>126.07</ele>
        <time>2014-05-02T12:35:54Z</time>
      </trkpt>
      <trkpt lat="50.59432" lon="1.90532">
        <ele>126.07</ele>
        <time>2014-05-02T12:36:01Z</time>
      </trkpt>
      <trkpt lat="50.59441" lon="1.90519">
        <ele>126.55</ele>
        <time>2014-05-02T12:36:07Z</time>
      </trkpt>
      <trkpt lat="50.59451" lon="1.90505">
        <ele>126.07</ele>
        <time>2014-05-02T12:36:14Z</time>
      </trkpt>
      <trkpt lat="50.59459" lon="1.9049">
        <ele>126.55</ele>
        <time>2014-05-02T12:36:21Z</time>
      </trkpt>
      <trkpt lat="50.59468" lon="1.90475">
        <ele>125.59</ele>
        <time>2014-05-02T12:36:29Z</time>
      </trkpt>
      <trkpt lat="50.59477" lon="1.9046">
        <ele>126.07</ele>
        <time>2014-05-02T12:36:36Z</time>
      </trkpt>
      <trkpt lat="50.59486" lon="1.90444">
        <ele>127.03</ele>
        <time>2014-05-02T12:36:43Z</time>
      </trkpt>
      <trkpt lat="50.59493" lon="1.90429">
        <ele>126.55</ele>
        <time>2014-05-02T12:36:50Z</time>
      </trkpt>
      <trkpt lat="50.59501" lon="1.90416">
        <ele>126.07</ele>
        <time>2014-05-02T12:36:57Z</time>
      </trkpt>
      <trkpt lat="50.59509" lon="1.904">
        <ele>126.55</ele>
        <time>2014-05-02T12:37:04Z</time>
      </trkpt>
      <trkpt lat="50.59519" lon="1.90387">
        <ele>126.07</ele>
        <time>2014-05-02T12:37:10Z</time>
      </trkpt>
      <trkpt lat="50.59527" lon="1.90373">
        <ele>125.59</ele>
        <time>2014-05-02T12:37:17Z</time>
      </trkpt>
      <trkpt lat="50.59535" lon="1.9036">
        <ele>126.07</ele>
        <time>2014-05-02T12:37:23Z</time>
      </trkpt>
      <trkpt lat="50.59544" lon="1.90347">
        <ele>126.07</ele>
        <time>2014-05-02T12:37:30Z</time>
      </trkpt>
      <trkpt lat="50.59552" lon="1.90331">
        <ele>126.07</ele>
        <time>2014-05-02T12:37:37Z</time>
      </trkpt>
      <trkpt lat="50.5956" lon="1.90316">
        <ele>126.07</ele>
        <time>2014-05-02T12:37:43Z</time>
      </trkpt>
      <trkpt lat="50.59568" lon="1.90299">
        <ele>126.55</ele>
        <time>2014-05-02T12:37:50Z</time>
      </trkpt>
      <trkpt lat="50.59576" lon="1.90287">
        <ele>126.07</ele>
        <time>2014-05-02T12:37:56Z</time>
      </trkpt>
      <trkpt lat="50.59584" lon="1.90274">
        <ele>126.55</ele>
        <time>2014-05-02T12:38:02Z</time>
      </trkpt>
      <trkpt lat="50.59592" lon="1.90261">
        <ele>126.55</ele>
        <time>2014-05-02T12:38:08Z</time>
      </trkpt>
      <trkpt lat="50.596" lon="1.90248">
        <ele>127.03</ele>
        <time>2014-05-02T12:38:14Z</time>
      </trkpt>
      <trkpt lat="50.59608" lon="1.90234">
        <ele>127.03</ele>
        <time>2014-05-02T12:38:20Z</time>
      </trkpt>
      <trkpt lat="50.59617" lon="1.90221">
        <ele>127.03</ele>
        <time>2014-05-02T12:38:27Z</time>
      </trkpt>
      <trkpt lat="50.59626" lon="1.90208">
        <ele>127.99</ele>
        <time>2014-05-02T12:38:35Z</time>
      </trkpt>
      <trkpt lat="50.59635" lon="1.90195">
        <ele>127.99</ele>
        <time>2014-05-02T12:38:42Z</time>
      </trkpt>
      <trkpt lat="50.59644" lon="1.90186">
        <ele>127.51</ele>
        <time>2014-05-02T12:38:49Z</time>
      </trkpt>
      <trkpt lat="50.59653" lon="1.90174">
        <ele>127.03</ele>
        <time>2014-05-02T12:38:57Z</time>
      </trkpt>
      <trkpt lat="50.59662" lon="1.90163">
        <ele>127.03</ele>
        <time>2014-05-02T12:39:03Z</time>
      </trkpt>
      <trkpt lat="50.59671" lon="1.90153">
        <ele>127.03</ele>
        <time>2014-05-02T12:39:09Z</time>
      </trkpt>
      <trkpt lat="50.5968" lon="1.90143">
        <ele>127.99</ele>
        <time>2014-05-02T12:39:15Z</time>
      </trkpt>
      <trkpt lat="50.5969" lon="1.90133">
        <ele>127.51</ele>
        <time>2014-05-02T12:39:21Z</time>
      </trkpt>
      <trkpt lat="50.597" lon="1.90123">
        <ele>127.99</ele>
        <time>2014-05-02T12:39:27Z</time>
      </trkpt>
      <trkpt lat="50.5971" lon="1.90112">
        <ele>127.51</ele>
        <time>2014-05-02T12:39:34Z</time>
      </trkpt>
      <trkpt lat="50.59719" lon="1.90102">
        <ele>127.03</ele>
        <time>2014-05-02T12:39:40Z</time>
      </trkpt>
      <trkpt lat="50.59727" lon="1.90094">
        <ele>127.51</ele>
        <time>2014-05-02T12:39:45Z</time>
      </trkpt>
      <trkpt lat="50.59737" lon="1.90084">
        <ele>125.11</ele>
        <time>2014-05-02T12:39:51Z</time>
      </trkpt>
      <trkpt lat="50.59746" lon="1.90075">
        <ele>127.03</ele>
        <time>2014-05-02T12:39:57Z</time>
      </trkpt>
      <trkpt lat="50.59754" lon="1.90066">
        <ele>127.03</ele>
        <time>2014-05-02T12:40:03Z</time>
      </trkpt>
      <trkpt lat="50.59764" lon="1.90057">
        <ele>126.55</ele>
        <time>2014-05-02T12:40:09Z</time>
      </trkpt>
      <trkpt lat="50.59773" lon="1.90047">
        <ele>127.51</ele>
        <time>2014-05-02T12:40:14Z</time>
      </trkpt>
      <trkpt lat="50.59781" lon="1.90038">
        <ele>127.99</ele>
        <time>2014-05-02T12:40:20Z</time>
      </trkpt>
      <trkpt lat="50.59793" lon="1.90029">
        <ele>127.99</ele>
        <time>2014-05-02T12:40:27Z</time>
      </trkpt>
      <trkpt lat="50.59802" lon="1.90021">
        <ele>128.95</ele>
        <time>2014-05-02T12:40:33Z</time>
      </trkpt>
      <trkpt lat="50.59811" lon="1.90012">
        <ele>128.47</ele>
        <time>2014-05-02T12:40:39Z</time>
      </trkpt>
      <trkpt lat="50.59822" lon="1.90005">
        <ele>128.47</ele>
        <time>2014-05-02T12:40:45Z</time>
      </trkpt>
      <trkpt lat="50.59833" lon="1.89998">
        <ele>128.47</ele>
        <time>2014-05-02T12:40:51Z</time>
      </trkpt>
      <trkpt lat="50.59843" lon="1.89992">
        <ele>127.99</ele>
        <time>2014-05-02T12:40:57Z</time>
      </trkpt>
      <trkpt lat="50.59853" lon="1.89986">
        <ele>128.47</ele>
        <time>2014-05-02T12:41:03Z</time>
      </trkpt>
      <trkpt lat="50.59862" lon="1.8998">
        <ele>127.99</ele>
        <time>2014-05-02T12:41:08Z</time>
      </trkpt>
      <trkpt lat="50.59872" lon="1.89973">
        <ele>127.99</ele>
        <time>2014-05-02T12:41:14Z</time>
      </trkpt>
      <trkpt lat="50.59882" lon="1.89966">
        <ele>127.99</ele>
        <time>2014-05-02T12:41:20Z</time>
      </trkpt>
      <trkpt lat="50.59893" lon="1.89959">
        <ele>127.99</ele>
        <time>2014-05-02T12:41:26Z</time>
      </trkpt>
      <trkpt lat="50.59903" lon="1.89953">
        <ele>127.99</ele>
        <time>2014-05-02T12:41:32Z</time>
      </trkpt>
      <trkpt lat="50.59913" lon="1.89948">
        <ele>128.47</ele>
        <time>2014-05-02T12:41:38Z</time>
      </trkpt>
      <trkpt lat="50.59923" lon="1.89944">
        <ele>128.95</ele>
        <time>2014-05-02T12:41:44Z</time>
      </trkpt>
      <trkpt lat="50.59933" lon="1.89938">
        <ele>129.43</ele>
        <time>2014-05-02T12:41:51Z</time>
      </trkpt>
      <trkpt lat="50.59933" lon="1.89922">
        <ele>129.92</ele>
        <time>2014-05-02T12:41:58Z</time>
      </trkpt>
      <trkpt lat="50.59932" lon="1.89904">
        <ele>130.4</ele>
        <time>2014-05-02T12:42:04Z</time>
      </trkpt>
      <trkpt lat="50.59929" lon="1.89888">
        <ele>129.92</ele>
        <time>2014-05-02T12:42:10Z</time>
      </trkpt>
      <trkpt lat="50.59926" lon="1.89872">
        <ele>129.92</ele>
        <time>2014-05-02T12:42:16Z</time>
      </trkpt>
      <trkpt lat="50.59925" lon="1.89855">
        <ele>129.92</ele>
        <time>2014-05-02T12:42:22Z</time>
      </trkpt>
      <trkpt lat="50.59924" lon="1.89838">
        <ele>130.4</ele>
        <time>2014-05-02T12:42:28Z</time>
      </trkpt>
      <trkpt lat="50.59922" lon="1.89822">
        <ele>130.4</ele>
        <time>2014-05-02T12:42:34Z</time>
      </trkpt>
      <trkpt lat="50.59919" lon="1.89804">
        <ele>130.4</ele>
        <time>2014-05-02T12:42:41Z</time>
      </trkpt>
      <trkpt lat="50.59917" lon="1.89788">
        <ele>130.88</ele>
        <time>2014-05-02T12:42:47Z</time>
      </trkpt>
      <trkpt lat="50.59912" lon="1.89772">
        <ele>130.4</ele>
        <time>2014-05-02T12:42:52Z</time>
      </trkpt>
      <trkpt lat="50.59907" lon="1.89757">
        <ele>130.88</ele>
        <time>2014-05-02T12:42:58Z</time>
      </trkpt>
      <trkpt lat="50.59906" lon="1.89743">
        <ele>130.88</ele>
        <time>2014-05-02T12:43:03Z</time>
      </trkpt>
      <trkpt lat="50.59905" lon="1.89728">
        <ele>131.36</ele>
        <time>2014-05-02T12:43:09Z</time>
      </trkpt>
      <trkpt lat="50.59899" lon="1.89711">
        <ele>130.4</ele>
        <time>2014-05-02T12:43:15Z</time>
      </trkpt>
      <trkpt lat="50.59899" lon="1.89698">
        <ele>130.88</ele>
        <time>2014-05-02T12:43:21Z</time>
      </trkpt>
      <trkpt lat="50.59896" lon="1.8968">
        <ele>131.36</ele>
        <time>2014-05-02T12:43:28Z</time>
      </trkpt>
      <trkpt lat="50.59892" lon="1.89661">
        <ele>130.88</ele>
        <time>2014-05-02T12:43:34Z</time>
      </trkpt>
      <trkpt lat="50.59891" lon="1.89648">
        <ele>131.84</ele>
        <time>2014-05-02T12:43:39Z</time>
      </trkpt>
      <trkpt lat="50.59889" lon="1.89633">
        <ele>132.32</ele>
        <time>2014-05-02T12:43:44Z</time>
      </trkpt>
      <trkpt lat="50.59889" lon="1.89619">
        <ele>132.32</ele>
        <time>2014-05-02T12:43:50Z</time>
      </trkpt>
      <trkpt lat="50.59886" lon="1.89604">
        <ele>132.32</ele>
        <time>2014-05-02T12:43:55Z</time>
      </trkpt>
      <trkpt lat="50.59884" lon="1.8959">
        <ele>132.8</ele>
        <time>2014-05-02T12:44:00Z</time>
      </trkpt>
      <trkpt lat="50.59882" lon="1.89575">
        <ele>133.28</ele>
        <time>2014-05-02T12:44:05Z</time>
      </trkpt>
      <trkpt lat="50.59881" lon="1.89558">
        <ele>133.28</ele>
        <time>2014-05-02T12:44:11Z</time>
      </trkpt>
      <trkpt lat="50.59879" lon="1.89541">
        <ele>133.76</ele>
        <time>2014-05-02T12:44:16Z</time>
      </trkpt>
      <trkpt lat="50.59877" lon="1.89527">
        <ele>133.76</ele>
        <time>2014-05-02T12:44:21Z</time>
      </trkpt>
      <trkpt lat="50.59875" lon="1.89513">
        <ele>134.24</ele>
        <time>2014-05-02T12:44:26Z</time>
      </trkpt>
      <trkpt lat="50.59874" lon="1.89498">
        <ele>134.72</ele>
        <time>2014-05-02T12:44:32Z</time>
      </trkpt>
      <trkpt lat="50.59872" lon="1.89485">
        <ele>134.72</ele>
        <time>2014-05-02T12:44:39Z</time>
      </trkpt>
      <trkpt lat="50.5987" lon="1.89469">
        <ele>134.72</ele>
        <time>2014-05-02T12:44:45Z</time>
      </trkpt>
      <trkpt lat="50.59869" lon="1.89454">
        <ele>134.72</ele>
        <time>2014-05-02T12:44:50Z</time>
      </trkpt>
      <trkpt lat="50.59869" lon="1.89439">
        <ele>134.72</ele>
        <time>2014-05-02T12:44:56Z</time>
      </trkpt>
      <trkpt lat="50.59869" lon="1.89423">
        <ele>135.2</ele>
        <time>2014-05-02T12:45:01Z</time>
      </trkpt>
      <trkpt lat="50.59869" lon="1.89407">
        <ele>135.68</ele>
        <time>2014-05-02T12:45:06Z</time>
      </trkpt>
      <trkpt lat="50.59868" lon="1.89393">
        <ele>135.2</ele>
        <time>2014-05-02T12:45:12Z</time>
      </trkpt>
      <trkpt lat="50.59866" lon="1.89377">
        <ele>135.2</ele>
        <time>2014-05-02T12:45:17Z</time>
      </trkpt>
      <trkpt lat="50.59867" lon="1.89364">
        <ele>135.68</ele>
        <time>2014-05-02T12:45:23Z</time>
      </trkpt>
      <trkpt lat="50.59866" lon="1.89347">
        <ele>135.68</ele>
        <time>2014-05-02T12:45:29Z</time>
      </trkpt>
      <trkpt lat="50.59866" lon="1.8933">
        <ele>135.68</ele>
        <time>2014-05-02T12:45:35Z</time>
      </trkpt>
      <trkpt lat="50.59865" lon="1.89315">
        <ele>136.16</ele>
        <time>2014-05-02T12:45:40Z</time>
      </trkpt>
      <trkpt lat="50.59866" lon="1.89299">
        <ele>136.16</ele>
        <time>2014-05-02T12:45:46Z</time>
      </trkpt>
      <trkpt lat="50.59865" lon="1.89284">
        <ele>136.64</ele>
        <time>2014-05-02T12:45:51Z</time>
      </trkpt>
      <trkpt lat="50.59864" lon="1.89267">
        <ele>135.68</ele>
        <time>2014-05-02T12:45:57Z</time>
      </trkpt>
      <trkpt lat="50.59863" lon="1.8925">
        <ele>136.16</ele>
        <time>2014-05-02T12:46:02Z</time>
      </trkpt>
      <trkpt lat="50.59863" lon="1.89234">
        <ele>136.64</ele>
        <time>2014-05-02T12:46:07Z</time>
      </trkpt>
      <trkpt lat="50.59864" lon="1.89219">
        <ele>136.64</ele>
        <time>2014-05-02T12:46:12Z</time>
      </trkpt>
      <trkpt lat="50.59864" lon="1.89203">
        <ele>136.64</ele>
        <time>2014-05-02T12:46:17Z</time>
      </trkpt>
      <trkpt lat="50.59864" lon="1.89187">
        <ele>136.64</ele>
        <time>2014-05-02T12:46:22Z</time>
      </trkpt>
      <trkpt lat="50.59864" lon="1.89172">
        <ele>136.64</ele>
        <time>2014-05-02T12:46:27Z</time>
      </trkpt>
      <trkpt lat="50.59864" lon="1.89156">
        <ele>137.13</ele>
        <time>2014-05-02T12:46:32Z</time>
      </trkpt>
      <trkpt lat="50.59864" lon="1.89143">
        <ele>137.61</ele>
        <time>2014-05-02T12:46:37Z</time>
      </trkpt>
      <trkpt lat="50.59863" lon="1.89129">
        <ele>138.09</ele>
        <time>2014-05-02T12:46:42Z</time>
      </trkpt>
      <trkpt lat="50.59863" lon="1.89115">
        <ele>137.61</ele>
        <time>2014-05-02T12:46:47Z</time>
      </trkpt>
      <trkpt lat="50.59863" lon="1.891">
        <ele>137.61</ele>
        <time>2014-05-02T12:46:52Z</time>
      </trkpt>
      <trkpt lat="50.59862" lon="1.89085">
        <ele>137.61</ele>
        <time>2014-05-02T12:46:57Z</time>
      </trkpt>
      <trkpt lat="50.59861" lon="1.89069">
        <ele>137.61</ele>
        <time>2014-05-02T12:47:02Z</time>
      </trkpt>
      <trkpt lat="50.59862" lon="1.89054">
        <ele>137.13</ele>
        <time>2014-05-02T12:47:07Z</time>
      </trkpt>
      <trkpt lat="50.59862" lon="1.89041">
        <ele>137.61</ele>
        <time>2014-05-02T12:47:12Z</time>
      </trkpt>
      <trkpt lat="50.59863" lon="1.89026">
        <ele>138.09</ele>
        <time>2014-05-02T12:47:18Z</time>
      </trkpt>
      <trkpt lat="50.59863" lon="1.89008">
        <ele>138.09</ele>
        <time>2014-05-02T12:47:24Z</time>
      </trkpt>
      <trkpt lat="50.59864" lon="1.88991">
        <ele>138.57</ele>
        <time>2014-05-02T12:47:30Z</time>
      </trkpt>
      <trkpt lat="50.59863" lon="1.88972">
        <ele>138.57</ele>
        <time>2014-05-02T12:47:37Z</time>
      </trkpt>
      <trkpt lat="50.59863" lon="1.88956">
        <ele>138.57</ele>
        <time>2014-05-02T12:47:43Z</time>
      </trkpt>
      <trkpt lat="50.59862" lon="1.88939">
        <ele>138.57</ele>
        <time>2014-05-02T12:47:48Z</time>
      </trkpt>
      <trkpt lat="50.59861" lon="1.88921">
        <ele>138.57</ele>
        <time>2014-05-02T12:47:54Z</time>
      </trkpt>
      <trkpt lat="50.59861" lon="1.88903">
        <ele>138.57</ele>
        <time>2014-05-02T12:48:00Z</time>
      </trkpt>
      <trkpt lat="50.59862" lon="1.88884">
        <ele>140.01</ele>
        <time>2014-05-02T12:48:06Z</time>
      </trkpt>
      <trkpt lat="50.59862" lon="1.88868">
        <ele>139.53</ele>
        <time>2014-05-02T12:48:11Z</time>
      </trkpt>
      <trkpt lat="50.59862" lon="1.88853">
        <ele>139.05</ele>
        <time>2014-05-02T12:48:17Z</time>
      </trkpt>
      <trkpt lat="50.59861" lon="1.88835">
        <ele>140.49</ele>
        <time>2014-05-02T12:48:24Z</time>
      </trkpt>
      <trkpt lat="50.59862" lon="1.88818">
        <ele>141.45</ele>
        <time>2014-05-02T12:48:31Z</time>
      </trkpt>
      <trkpt lat="50.59867" lon="1.88801">
        <ele>141.45</ele>
        <time>2014-05-02T12:48:39Z</time>
      </trkpt>
      <trkpt lat="50.59871" lon="1.88782">
        <ele>142.41</ele>
        <time>2014-05-02T12:48:48Z</time>
      </trkpt>
      <trkpt lat="50.59869" lon="1.88768">
        <ele>143.85</ele>
        <time>2014-05-02T12:48:54Z</time>
      </trkpt>
      <trkpt lat="50.59874" lon="1.8873">
        <ele>143.85</ele>
        <time>2014-05-02T12:49:07Z</time>
      </trkpt>
      <trkpt lat="50.59863" lon="1.88697">
        <ele>143.85</ele>
        <time>2014-05-02T12:49:16Z</time>
      </trkpt>
      <trkpt lat="50.59856" lon="1.88659">
        <ele>144.34</ele>
        <time>2014-05-02T12:49:26Z</time>
      </trkpt>
      <trkpt lat="50.59856" lon="1.8864">
        <ele>144.82</ele>
        <time>2014-05-02T12:49:35Z</time>
      </trkpt>
      <trkpt lat="50.59852" lon="1.88619">
        <ele>144.34</ele>
        <time>2014-05-02T12:49:43Z</time>
      </trkpt>
      <trkpt lat="50.5985" lon="1.88599">
        <ele>145.3</ele>
        <time>2014-05-02T12:49:51Z</time>
      </trkpt>
      <trkpt lat="50.59854" lon="1.88581">
        <ele>145.3</ele>
        <time>2014-05-02T12:49:59Z</time>
      </trkpt>
      <trkpt lat="50.5984" lon="1.88545">
        <ele>144.82</ele>
        <time>2014-05-02T12:50:09Z</time>
      </trkpt>
      <trkpt lat="50.59837" lon="1.88528">
        <ele>145.78</ele>
        <time>2014-05-02T12:50:16Z</time>
      </trkpt>
      <trkpt lat="50.59833" lon="1.88507">
        <ele>145.3</ele>
        <time>2014-05-02T12:50:24Z</time>
      </trkpt>
      <trkpt lat="50.59834" lon="1.88488">
        <ele>145.78</ele>
        <time>2014-05-02T12:50:33Z</time>
      </trkpt>
      <trkpt lat="50.5983" lon="1.88467">
        <ele>145.78</ele>
        <time>2014-05-02T12:50:42Z</time>
      </trkpt>
      <trkpt lat="50.59826" lon="1.88453">
        <ele>147.7</ele>
        <time>2014-05-02T12:51:01Z</time>
      </trkpt>
      <trkpt lat="50.59825" lon="1.88433">
        <ele>148.66</ele>
        <time>2014-05-02T12:51:08Z</time>
      </trkpt>
      <trkpt lat="50.59828" lon="1.88416">
        <ele>148.18</ele>
        <time>2014-05-02T12:51:14Z</time>
      </trkpt>
      <trkpt lat="50.59831" lon="1.88399">
        <ele>147.22</ele>
        <time>2014-05-02T12:51:20Z</time>
      </trkpt>
      <trkpt lat="50.59835" lon="1.88384">
        <ele>146.74</ele>
        <time>2014-05-02T12:51:27Z</time>
      </trkpt>
      <trkpt lat="50.59838" lon="1.88363">
        <ele>147.22</ele>
        <time>2014-05-02T12:51:34Z</time>
      </trkpt>
      <trkpt lat="50.59839" lon="1.88342">
        <ele>147.7</ele>
        <time>2014-05-02T12:51:40Z</time>
      </trkpt>
      <trkpt lat="50.5984" lon="1.88326">
        <ele>147.7</ele>
        <time>2014-05-02T12:51:46Z</time>
      </trkpt>
      <trkpt lat="50.59842" lon="1.88308">
        <ele>148.18</ele>
        <time>2014-05-02T12:51:53Z</time>
      </trkpt>
      <trkpt lat="50.59842" lon="1.88294">
        <ele>148.66</ele>
        <time>2014-05-02T12:52:00Z</time>
      </trkpt>
      <trkpt lat="50.59842" lon="1.88276">
        <ele>148.66</ele>
        <time>2014-05-02T12:52:07Z</time>
      </trkpt>
      <trkpt lat="50.59843" lon="1.88251">
        <ele>149.14</ele>
        <time>2014-05-02T12:52:15Z</time>
      </trkpt>
      <trkpt lat="50.59845" lon="1.8823">
        <ele>149.62</ele>
        <time>2014-05-02T12:52:22Z</time>
      </trkpt>
      <trkpt lat="50.59847" lon="1.88213">
        <ele>150.58</ele>
        <time>2014-05-02T12:52:29Z</time>
      </trkpt>
      <trkpt lat="50.5985" lon="1.88198">
        <ele>151.06</ele>
        <time>2014-05-02T12:52:36Z</time>
      </trkpt>
      <trkpt lat="50.59851" lon="1.88169">
        <ele>152.03</ele>
        <time>2014-05-02T12:52:45Z</time>
      </trkpt>
      <trkpt lat="50.59853" lon="1.88146">
        <ele>152.99</ele>
        <time>2014-05-02T12:52:53Z</time>
      </trkpt>
      <trkpt lat="50.59855" lon="1.88121">
        <ele>153.47</ele>
        <time>2014-05-02T12:53:02Z</time>
      </trkpt>
      <trkpt lat="50.59857" lon="1.881">
        <ele>154.43</ele>
        <time>2014-05-02T12:53:09Z</time>
      </trkpt>
      <trkpt lat="50.59858" lon="1.88082">
        <ele>154.43</ele>
        <time>2014-05-02T12:53:16Z</time>
      </trkpt>
      <trkpt lat="50.5986" lon="1.88062">
        <ele>155.39</ele>
        <time>2014-05-02T12:53:23Z</time>
      </trkpt>
      <trkpt lat="50.59863" lon="1.88043">
        <ele>155.87</ele>
        <time>2014-05-02T12:53:35Z</time>
      </trkpt>
      <trkpt lat="50.59864" lon="1.88033">
        <ele>155.87</ele>
        <time>2014-05-02T12:53:57Z</time>
      </trkpt>
      <trkpt lat="50.59868" lon="1.88015">
        <ele>155.87</ele>
        <time>2014-05-02T12:54:05Z</time>
      </trkpt>
      <trkpt lat="50.5987" lon="1.87993">
        <ele>155.39</ele>
        <time>2014-05-02T12:54:14Z</time>
      </trkpt>
      <trkpt lat="50.59871" lon="1.87979">
        <ele>155.87</ele>
        <time>2014-05-02T12:54:20Z</time>
      </trkpt>
      <trkpt lat="50.59872" lon="1.87958">
        <ele>155.39</ele>
        <time>2014-05-02T12:54:26Z</time>
      </trkpt>
      <trkpt lat="50.59874" lon="1.87941">
        <ele>156.35</ele>
        <time>2014-05-02T12:54:33Z</time>
      </trkpt>
      <trkpt lat="50.59875" lon="1.87923">
        <ele>155.87</ele>
        <time>2014-05-02T12:54:40Z</time>
      </trkpt>
      <trkpt lat="50.59877" lon="1.87905">
        <ele>155.87</ele>
        <time>2014-05-02T12:54:47Z</time>
      </trkpt>
      <trkpt lat="50.59881" lon="1.87887">
        <ele>155.87</ele>
        <time>2014-05-02T12:54:55Z</time>
      </trkpt>
      <trkpt lat="50.59884" lon="1.87867">
        <ele>155.39</ele>
        <time>2014-05-02T12:55:02Z</time>
      </trkpt>
      <trkpt lat="50.59886" lon="1.87849">
        <ele>156.35</ele>
        <time>2014-05-02T12:55:09Z</time>
      </trkpt>
      <trkpt lat="50.59889" lon="1.87832">
        <ele>155.39</ele>
        <time>2014-05-02T12:55:15Z</time>
      </trkpt>
      <trkpt lat="50.5989" lon="1.87817">
        <ele>156.35</ele>
        <time>2014-05-02T12:55:21Z</time>
      </trkpt>
      <trkpt lat="50.59888" lon="1.87801">
        <ele>155.39</ele>
        <time>2014-05-02T12:55:27Z</time>
      </trkpt>
      <trkpt lat="50.59885" lon="1.87785">
        <ele>153.95</ele>
        <time>2014-05-02T12:55:33Z</time>
      </trkpt>
      <trkpt lat="50.59881" lon="1.8777">
        <ele>155.87</ele>
        <time>2014-05-02T12:55:39Z</time>
      </trkpt>
      <trkpt lat="50.59879" lon="1.87753">
        <ele>154.91</ele>
        <time>2014-05-02T12:55:45Z</time>
      </trkpt>
      <trkpt lat="50.59876" lon="1.87738">
        <ele>154.91</ele>
        <time>2014-05-02T12:55:51Z</time>
      </trkpt>
      <trkpt lat="50.59874" lon="1.87721">
        <ele>154.91</ele>
        <time>2014-05-02T12:55:57Z</time>
      </trkpt>
      <trkpt lat="50.59871" lon="1.87707">
        <ele>154.43</ele>
        <time>2014-05-02T12:56:01Z</time>
      </trkpt>
      <trkpt lat="50.59868" lon="1.87695">
        <ele>155.39</ele>
        <time>2014-05-02T12:56:06Z</time>
      </trkpt>
      <trkpt lat="50.59865" lon="1.87684">
        <ele>154.43</ele>
        <time>2014-05-02T12:56:11Z</time>
      </trkpt>
      <trkpt lat="50.5986" lon="1.87669">
        <ele>153.95</ele>
        <time>2014-05-02T12:56:17Z</time>
      </trkpt>
      <trkpt lat="50.59855" lon="1.87656">
        <ele>154.43</ele>
        <time>2014-05-02T12:56:23Z</time>
      </trkpt>
      <trkpt lat="50.5985" lon="1.87642">
        <ele>154.91</ele>
        <time>2014-05-02T12:56:29Z</time>
      </trkpt>
      <trkpt lat="50.59845" lon="1.87626">
        <ele>154.43</ele>
        <time>2014-05-02T12:56:35Z</time>
      </trkpt>
      <trkpt lat="50.5984" lon="1.87612">
        <ele>154.91</ele>
        <time>2014-05-02T12:56:41Z</time>
      </trkpt>
      <trkpt lat="50.59835" lon="1.87595">
        <ele>154.91</ele>
        <time>2014-05-02T12:56:48Z</time>
      </trkpt>
      <trkpt lat="50.59829" lon="1.87577">
        <ele>155.39</ele>
        <time>2014-05-02T12:56:55Z</time>
      </trkpt>
      <trkpt lat="50.59825" lon="1.87562">
        <ele>155.39</ele>
        <time>2014-05-02T12:57:01Z</time>
      </trkpt>
      <trkpt lat="50.5982" lon="1.87547">
        <ele>154.91</ele>
        <time>2014-05-02T12:57:07Z</time>
      </trkpt>
      <trkpt lat="50.59815" lon="1.87534">
        <ele>155.87</ele>
        <time>2014-05-02T12:57:13Z</time>
      </trkpt>
      <trkpt lat="50.59811" lon="1.87519">
        <ele>156.35</ele>
        <time>2014-05-02T12:57:19Z</time>
      </trkpt>
      <trkpt lat="50.59807" lon="1.87503">
        <ele>155.39</ele>
        <time>2014-05-02T12:57:25Z</time>
      </trkpt>
      <trkpt lat="50.59803" lon="1.87485">
        <ele>155.39</ele>
        <time>2014-05-02T12:57:31Z</time>
      </trkpt>
      <trkpt lat="50.598" lon="1.8747">
        <ele>154.91</ele>
        <time>2014-05-02T12:57:37Z</time>
      </trkpt>
      <trkpt lat="50.59798" lon="1.87453">
        <ele>154.91</ele>
        <time>2014-05-02T12:57:44Z</time>
      </trkpt>
      <trkpt lat="50.59794" lon="1.87437">
        <ele>154.43</ele>
        <time>2014-05-02T12:57:50Z</time>
      </trkpt>
      <trkpt lat="50.59792" lon="1.8742">
        <ele>154.91</ele>
        <time>2014-05-02T12:57:57Z</time>
      </trkpt>
      <trkpt lat="50.59789" lon="1.87403">
        <ele>154.43</ele>
        <time>2014-05-02T12:58:04Z</time>
      </trkpt>
      <trkpt lat="50.59786" lon="1.87386">
        <ele>154.43</ele>
        <time>2014-05-02T12:58:10Z</time>
      </trkpt>
      <trkpt lat="50.59784" lon="1.87371">
        <ele>154.43</ele>
        <time>2014-05-02T12:58:16Z</time>
      </trkpt>
      <trkpt lat="50.5978" lon="1.87355">
        <ele>154.43</ele>
        <time>2014-05-02T12:58:22Z</time>
      </trkpt>
      <trkpt lat="50.59778" lon="1.87339">
        <ele>153.95</ele>
        <time>2014-05-02T12:58:27Z</time>
      </trkpt>
      <trkpt lat="50.59776" lon="1.87322">
        <ele>154.91</ele>
        <time>2014-05-02T12:58:34Z</time>
      </trkpt>
      <trkpt lat="50.59774" lon="1.87309">
        <ele>154.43</ele>
        <time>2014-05-02T12:58:47Z</time>
      </trkpt>
      <trkpt lat="50.59773" lon="1.87289">
        <ele>154.43</ele>
        <time>2014-05-02T12:58:55Z</time>
      </trkpt>
      <trkpt lat="50.59769" lon="1.87268">
        <ele>154.43</ele>
        <time>2014-05-02T12:59:03Z</time>
      </trkpt>
      <trkpt lat="50.59766" lon="1.87252">
        <ele>154.91</ele>
        <time>2014-05-02T12:59:09Z</time>
      </trkpt>
      <trkpt lat="50.59763" lon="1.87233">
        <ele>154.43</ele>
        <time>2014-05-02T12:59:16Z</time>
      </trkpt>
      <trkpt lat="50.59761" lon="1.87214">
        <ele>155.39</ele>
        <time>2014-05-02T12:59:22Z</time>
      </trkpt>
      <trkpt lat="50.59759" lon="1.87198">
        <ele>155.87</ele>
        <time>2014-05-02T12:59:28Z</time>
      </trkpt>
      <trkpt lat="50.59758" lon="1.8718">
        <ele>155.39</ele>
        <time>2014-05-02T12:59:34Z</time>
      </trkpt>
      <trkpt lat="50.59757" lon="1.8716">
        <ele>156.35</ele>
        <time>2014-05-02T12:59:41Z</time>
      </trkpt>
      <trkpt lat="50.59761" lon="1.87145">
        <ele>156.83</ele>
        <time>2014-05-02T12:59:47Z</time>
      </trkpt>
      <trkpt lat="50.59768" lon="1.87134">
        <ele>156.35</ele>
        <time>2014-05-02T12:59:53Z</time>
      </trkpt>
      <trkpt lat="50.59776" lon="1.87121">
        <ele>155.87</ele>
        <time>2014-05-02T13:00:01Z</time>
      </trkpt>
      <trkpt lat="50.59781" lon="1.87107">
        <ele>156.35</ele>
        <time>2014-05-02T13:00:07Z</time>
      </trkpt>
      <trkpt lat="50.59786" lon="1.87092">
        <ele>155.87</ele>
        <time>2014-05-02T13:00:13Z</time>
      </trkpt>
      <trkpt lat="50.5979" lon="1.87078">
        <ele>156.35</ele>
        <time>2014-05-02T13:00:19Z</time>
      </trkpt>
      <trkpt lat="50.59795" lon="1.87064">
        <ele>154.91</ele>
        <time>2014-05-02T13:00:26Z</time>
      </trkpt>
      <trkpt lat="50.598" lon="1.8705">
        <ele>154.91</ele>
        <time>2014-05-02T13:00:32Z</time>
      </trkpt>
      <trkpt lat="50.59805" lon="1.87036">
        <ele>154.43</ele>
        <time>2014-05-02T13:00:38Z</time>
      </trkpt>
      <trkpt lat="50.59808" lon="1.8702">
        <ele>153.95</ele>
        <time>2014-05-02T13:00:44Z</time>
      </trkpt>
      <trkpt lat="50.59813" lon="1.87005">
        <ele>153.47</ele>
        <time>2014-05-02T13:00:50Z</time>
      </trkpt>
      <trkpt lat="50.59819" lon="1.8699">
        <ele>152.51</ele>
        <time>2014-05-02T13:00:56Z</time>
      </trkpt>
      <trkpt lat="50.59823" lon="1.86976">
        <ele>152.03</ele>
        <time>2014-05-02T13:01:01Z</time>
      </trkpt>
      <trkpt lat="50.59827" lon="1.86962">
        <ele>151.06</ele>
        <time>2014-05-02T13:01:07Z</time>
      </trkpt>
      <trkpt lat="50.59831" lon="1.86949">
        <ele>150.58</ele>
        <time>2014-05-02T13:01:12Z</time>
      </trkpt>
      <trkpt lat="50.59834" lon="1.86937">
        <ele>150.58</ele>
        <time>2014-05-02T13:01:17Z</time>
      </trkpt>
      <trkpt lat="50.59839" lon="1.86923">
        <ele>149.62</ele>
        <time>2014-05-02T13:01:23Z</time>
      </trkpt>
      <trkpt lat="50.59843" lon="1.8691">
        <ele>149.62</ele>
        <time>2014-05-02T13:01:29Z</time>
      </trkpt>
      <trkpt lat="50.5985" lon="1.86896">
        <ele>150.1</ele>
        <time>2014-05-02T13:01:35Z</time>
      </trkpt>
      <trkpt lat="50.59855" lon="1.86883">
        <ele>148.66</ele>
        <time>2014-05-02T13:01:41Z</time>
      </trkpt>
      <trkpt lat="50.59861" lon="1.86871">
        <ele>148.66</ele>
        <time>2014-05-02T13:01:47Z</time>
      </trkpt>
      <trkpt lat="50.59868" lon="1.86857">
        <ele>148.66</ele>
        <time>2014-05-02T13:01:53Z</time>
      </trkpt>
      <trkpt lat="50.59875" lon="1.86843">
        <ele>148.18</ele>
        <time>2014-05-02T13:01:59Z</time>
      </trkpt>
      <trkpt lat="50.59881" lon="1.8683">
        <ele>147.22</ele>
        <time>2014-05-02T13:02:05Z</time>
      </trkpt>
      <trkpt lat="50.59887" lon="1.86817">
        <ele>146.74</ele>
        <time>2014-05-02T13:02:11Z</time>
      </trkpt>
      <trkpt lat="50.59893" lon="1.86805">
        <ele>146.74</ele>
        <time>2014-05-02T13:02:17Z</time>
      </trkpt>
      <trkpt lat="50.59897" lon="1.86793">
        <ele>146.26</ele>
        <time>2014-05-02T13:02:23Z</time>
      </trkpt>
      <trkpt lat="50.59902" lon="1.86778">
        <ele>147.7</ele>
        <time>2014-05-02T13:02:28Z</time>
      </trkpt>
      <trkpt lat="50.59906" lon="1.86763">
        <ele>147.22</ele>
        <time>2014-05-02T13:02:33Z</time>
      </trkpt>
      <trkpt lat="50.59909" lon="1.86748">
        <ele>146.26</ele>
        <time>2014-05-02T13:02:39Z</time>
      </trkpt>
      <trkpt lat="50.59912" lon="1.86735">
        <ele>147.7</ele>
        <time>2014-05-02T13:02:44Z</time>
      </trkpt>
      <trkpt lat="50.59915" lon="1.86721">
        <ele>147.22</ele>
        <time>2014-05-02T13:02:49Z</time>
      </trkpt>
      <trkpt lat="50.59918" lon="1.86704">
        <ele>146.26</ele>
        <time>2014-05-02T13:02:55Z</time>
      </trkpt>
      <trkpt lat="50.59921" lon="1.8669">
        <ele>145.78</ele>
        <time>2014-05-02T13:03:00Z</time>
      </trkpt>
      <trkpt lat="50.59922" lon="1.86676">
        <ele>145.78</ele>
        <time>2014-05-02T13:03:05Z</time>
      </trkpt>
      <trkpt lat="50.59923" lon="1.86659">
        <ele>146.26</ele>
        <time>2014-05-02T13:03:11Z</time>
      </trkpt>
      <trkpt lat="50.59926" lon="1.86643">
        <ele>146.74</ele>
        <time>2014-05-02T13:03:17Z</time>
      </trkpt>
      <trkpt lat="50.59929" lon="1.86629">
        <ele>146.74</ele>
        <time>2014-05-02T13:03:22Z</time>
      </trkpt>
      <trkpt lat="50.59932" lon="1.86612">
        <ele>147.22</ele>
        <time>2014-05-02T13:03:28Z</time>
      </trkpt>
      <trkpt lat="50.59935" lon="1.86596">
        <ele>147.7</ele>
        <time>2014-05-02T13:03:33Z</time>
      </trkpt>
      <trkpt lat="50.59938" lon="1.86583">
        <ele>148.18</ele>
        <time>2014-05-02T13:03:38Z</time>
      </trkpt>
      <trkpt lat="50.59942" lon="1.86567">
        <ele>148.66</ele>
        <time>2014-05-02T13:03:44Z</time>
      </trkpt>
      <trkpt lat="50.59945" lon="1.86551">
        <ele>149.14</ele>
        <time>2014-05-02T13:03:50Z</time>
      </trkpt>
      <trkpt lat="50.59948" lon="1.86534">
        <ele>149.14</ele>
        <time>2014-05-02T13:03:56Z</time>
      </trkpt>
      <trkpt lat="50.59949" lon="1.8652">
        <ele>149.62</ele>
        <time>2014-05-02T13:04:01Z</time>
      </trkpt>
      <trkpt lat="50.59952" lon="1.86507">
        <ele>150.58</ele>
        <time>2014-05-02T13:04:06Z</time>
      </trkpt>
      <trkpt lat="50.59955" lon="1.86493">
        <ele>150.58</ele>
        <time>2014-05-02T13:04:11Z</time>
      </trkpt>
      <trkpt lat="50.59957" lon="1.86479">
        <ele>151.54</ele>
        <time>2014-05-02T13:04:16Z</time>
      </trkpt>
      <trkpt lat="50.5996" lon="1.86466">
        <ele>152.03</ele>
        <time>2014-05-02T13:04:21Z</time>
      </trkpt>
      <trkpt lat="50.59963" lon="1.86452">
        <ele>152.51</ele>
        <time>2014-05-02T13:04:26Z</time>
      </trkpt>
      <trkpt lat="50.59966" lon="1.86438">
        <ele>152.99</ele>
        <time>2014-05-02T13:04:31Z</time>
      </trkpt>
      <trkpt lat="50.59969" lon="1.86422">
        <ele>153.47</ele>
        <time>2014-05-02T13:04:37Z</time>
      </trkpt>
      <trkpt lat="50.59972" lon="1.86409">
        <ele>154.43</ele>
        <time>2014-05-02T13:04:43Z</time>
      </trkpt>
      <trkpt lat="50.59974" lon="1.86393">
        <ele>154.91</ele>
        <time>2014-05-02T13:04:49Z</time>
      </trkpt>
      <trkpt lat="50.59975" lon="1.86374">
        <ele>155.87</ele>
        <time>2014-05-02T13:04:55Z</time>
      </trkpt>
      <trkpt lat="50.59978" lon="1.86355">
        <ele>156.35</ele>
        <time>2014-05-02T13:05:01Z</time>
      </trkpt>
      <trkpt lat="50.59979" lon="1.86336">
        <ele>156.83</ele>
        <time>2014-05-02T13:05:07Z</time>
      </trkpt>
      <trkpt lat="50.59981" lon="1.86322">
        <ele>157.79</ele>
        <time>2014-05-02T13:05:12Z</time>
      </trkpt>
      <trkpt lat="50.59986" lon="1.8631">
        <ele>158.75</ele>
        <time>2014-05-02T13:05:21Z</time>
      </trkpt>
      <trkpt lat="50.59974" lon="1.86309">
        <ele>158.27</ele>
        <time>2014-05-02T13:05:30Z</time>
      </trkpt>
      <trkpt lat="50.5998" lon="1.86311">
        <ele>157.31</ele>
        <time>2014-05-02T13:07:49Z</time>
      </trkpt>
      <trkpt lat="50.59991" lon="1.86316">
        <ele>157.31</ele>
        <time>2014-05-02T13:07:56Z</time>
      </trkpt>
      <trkpt lat="50.60002" lon="1.86321">
        <ele>157.79</ele>
        <time>2014-05-02T13:08:02Z</time>
      </trkpt>
      <trkpt lat="50.60011" lon="1.86324">
        <ele>157.79</ele>
        <time>2014-05-02T13:08:08Z</time>
      </trkpt>
      <trkpt lat="50.60022" lon="1.86328">
        <ele>158.27</ele>
        <time>2014-05-02T13:08:14Z</time>
      </trkpt>
      <trkpt lat="50.60031" lon="1.86332">
        <ele>157.79</ele>
        <time>2014-05-02T13:08:20Z</time>
      </trkpt>
      <trkpt lat="50.60041" lon="1.86337">
        <ele>158.75</ele>
        <time>2014-05-02T13:08:26Z</time>
      </trkpt>
      <trkpt lat="50.60051" lon="1.86341">
        <ele>158.27</ele>
        <time>2014-05-02T13:08:32Z</time>
      </trkpt>
      <trkpt lat="50.60061" lon="1.86345">
        <ele>157.31</ele>
        <time>2014-05-02T13:08:38Z</time>
      </trkpt>
      <trkpt lat="50.60072" lon="1.8635">
        <ele>157.79</ele>
        <time>2014-05-02T13:08:44Z</time>
      </trkpt>
      <trkpt lat="50.60082" lon="1.86353">
        <ele>157.79</ele>
        <time>2014-05-02T13:08:50Z</time>
      </trkpt>
      <trkpt lat="50.60093" lon="1.86357">
        <ele>159.24</ele>
        <time>2014-05-02T13:08:56Z</time>
      </trkpt>
      <trkpt lat="50.60102" lon="1.86361">
        <ele>158.75</ele>
        <time>2014-05-02T13:09:01Z</time>
      </trkpt>
      <trkpt lat="50.60112" lon="1.86364">
        <ele>158.75</ele>
        <time>2014-05-02T13:09:07Z</time>
      </trkpt>
      <trkpt lat="50.60121" lon="1.86368">
        <ele>160.2</ele>
        <time>2014-05-02T13:09:12Z</time>
      </trkpt>
      <trkpt lat="50.60131" lon="1.86371">
        <ele>160.2</ele>
        <time>2014-05-02T13:09:18Z</time>
      </trkpt>
      <trkpt lat="50.60141" lon="1.86374">
        <ele>161.16</ele>
        <time>2014-05-02T13:09:24Z</time>
      </trkpt>
      <trkpt lat="50.60152" lon="1.86377">
        <ele>161.16</ele>
        <time>2014-05-02T13:09:30Z</time>
      </trkpt>
      <trkpt lat="50.60162" lon="1.86381">
        <ele>161.64</ele>
        <time>2014-05-02T13:09:35Z</time>
      </trkpt>
      <trkpt lat="50.60172" lon="1.86383">
        <ele>162.12</ele>
        <time>2014-05-02T13:09:41Z</time>
      </trkpt>
      <trkpt lat="50.60182" lon="1.86387">
        <ele>162.12</ele>
        <time>2014-05-02T13:09:47Z</time>
      </trkpt>
      <trkpt lat="50.60192" lon="1.86392">
        <ele>162.6</ele>
        <time>2014-05-02T13:09:53Z</time>
      </trkpt>
      <trkpt lat="50.60203" lon="1.86395">
        <ele>162.6</ele>
        <time>2014-05-02T13:10:00Z</time>
      </trkpt>
      <trkpt lat="50.60202" lon="1.8638">
        <ele>163.56</ele>
        <time>2014-05-02T13:10:09Z</time>
      </trkpt>
      <trkpt lat="50.60197" lon="1.86365">
        <ele>163.08</ele>
        <time>2014-05-02T13:10:15Z</time>
      </trkpt>
      <trkpt lat="50.60194" lon="1.86349">
        <ele>163.56</ele>
        <time>2014-05-02T13:10:21Z</time>
      </trkpt>
      <trkpt lat="50.60189" lon="1.86332">
        <ele>162.6</ele>
        <time>2014-05-02T13:10:27Z</time>
      </trkpt>
      <trkpt lat="50.60186" lon="1.86317">
        <ele>162.6</ele>
        <time>2014-05-02T13:10:32Z</time>
      </trkpt>
      <trkpt lat="50.60183" lon="1.86301">
        <ele>162.12</ele>
        <time>2014-05-02T13:10:38Z</time>
      </trkpt>
      <trkpt lat="50.60178" lon="1.86284">
        <ele>161.64</ele>
        <time>2014-05-02T13:10:44Z</time>
      </trkpt>
      <trkpt lat="50.60175" lon="1.86268">
        <ele>161.16</ele>
        <time>2014-05-02T13:10:49Z</time>
      </trkpt>
      <trkpt lat="50.60173" lon="1.86251">
        <ele>160.68</ele>
        <time>2014-05-02T13:10:54Z</time>
      </trkpt>
      <trkpt lat="50.6017" lon="1.86236">
        <ele>160.68</ele>
        <time>2014-05-02T13:10:59Z</time>
      </trkpt>
      <trkpt lat="50.60167" lon="1.86221">
        <ele>160.2</ele>
        <time>2014-05-02T13:11:04Z</time>
      </trkpt>
      <trkpt lat="50.60164" lon="1.86206">
        <ele>158.27</ele>
        <time>2014-05-02T13:11:09Z</time>
      </trkpt>
      <trkpt lat="50.60162" lon="1.86191">
        <ele>158.75</ele>
        <time>2014-05-02T13:11:14Z</time>
      </trkpt>
      <trkpt lat="50.60158" lon="1.86175">
        <ele>158.27</ele>
        <time>2014-05-02T13:11:19Z</time>
      </trkpt>
      <trkpt lat="50.60155" lon="1.8616">
        <ele>157.79</ele>
        <time>2014-05-02T13:11:24Z</time>
      </trkpt>
      <trkpt lat="50.60151" lon="1.86145">
        <ele>157.31</ele>
        <time>2014-05-02T13:11:29Z</time>
      </trkpt>
      <trkpt lat="50.60148" lon="1.8613">
        <ele>157.31</ele>
        <time>2014-05-02T13:11:34Z</time>
      </trkpt>
      <trkpt lat="50.60146" lon="1.86117">
        <ele>158.27</ele>
        <time>2014-05-02T13:11:39Z</time>
      </trkpt>
      <trkpt lat="50.60142" lon="1.861">
        <ele>156.83</ele>
        <time>2014-05-02T13:11:44Z</time>
      </trkpt>
      <trkpt lat="50.6014" lon="1.86086">
        <ele>156.35</ele>
        <time>2014-05-02T13:11:49Z</time>
      </trkpt>
      <trkpt lat="50.60137" lon="1.86071">
        <ele>155.87</ele>
        <time>2014-05-02T13:11:54Z</time>
      </trkpt>
      <trkpt lat="50.60135" lon="1.86055">
        <ele>155.87</ele>
        <time>2014-05-02T13:11:58Z</time>
      </trkpt>
      <trkpt lat="50.60133" lon="1.86039">
        <ele>155.87</ele>
        <time>2014-05-02T13:12:01Z</time>
      </trkpt>
      <trkpt lat="50.6013" lon="1.86022">
        <ele>156.35</ele>
        <time>2014-05-02T13:12:04Z</time>
      </trkpt>
      <trkpt lat="50.60129" lon="1.86005">
        <ele>155.87</ele>
        <time>2014-05-02T13:12:07Z</time>
      </trkpt>
      <trkpt lat="50.6013" lon="1.85987">
        <ele>155.39</ele>
        <time>2014-05-02T13:12:10Z</time>
      </trkpt>
      <trkpt lat="50.60131" lon="1.85969">
        <ele>155.39</ele>
        <time>2014-05-02T13:12:13Z</time>
      </trkpt>
      <trkpt lat="50.60133" lon="1.8595">
        <ele>155.87</ele>
        <time>2014-05-02T13:12:16Z</time>
      </trkpt>
      <trkpt lat="50.60136" lon="1.85932">
        <ele>156.35</ele>
        <time>2014-05-02T13:12:19Z</time>
      </trkpt>
      <trkpt lat="50.60138" lon="1.85912">
        <ele>157.31</ele>
        <time>2014-05-02T13:12:22Z</time>
      </trkpt>
      <trkpt lat="50.60141" lon="1.85892">
        <ele>157.31</ele>
        <time>2014-05-02T13:12:25Z</time>
      </trkpt>
      <trkpt lat="50.60144" lon="1.85874">
        <ele>156.83</ele>
        <time>2014-05-02T13:12:28Z</time>
      </trkpt>
      <trkpt lat="50.60148" lon="1.85853">
        <ele>157.79</ele>
        <time>2014-05-02T13:12:31Z</time>
      </trkpt>
      <trkpt lat="50.60152" lon="1.85829">
        <ele>157.31</ele>
        <time>2014-05-02T13:12:34Z</time>
      </trkpt>
      <trkpt lat="50.60155" lon="1.85813">
        <ele>156.83</ele>
        <time>2014-05-02T13:12:36Z</time>
      </trkpt>
      <trkpt lat="50.60159" lon="1.85791">
        <ele>156.83</ele>
        <time>2014-05-02T13:12:39Z</time>
      </trkpt>
      <trkpt lat="50.60161" lon="1.85775">
        <ele>156.83</ele>
        <time>2014-05-02T13:12:42Z</time>
      </trkpt>
      <trkpt lat="50.60163" lon="1.85757">
        <ele>155.87</ele>
        <time>2014-05-02T13:12:47Z</time>
      </trkpt>
      <trkpt lat="50.60165" lon="1.85742">
        <ele>154.91</ele>
        <time>2014-05-02T13:12:52Z</time>
      </trkpt>
      <trkpt lat="50.60167" lon="1.85728">
        <ele>154.43</ele>
        <time>2014-05-02T13:12:57Z</time>
      </trkpt>
      <trkpt lat="50.60169" lon="1.85713">
        <ele>153.95</ele>
        <time>2014-05-02T13:13:03Z</time>
      </trkpt>
      <trkpt lat="50.60172" lon="1.857">
        <ele>154.43</ele>
        <time>2014-05-02T13:13:08Z</time>
      </trkpt>
      <trkpt lat="50.60174" lon="1.85685">
        <ele>154.43</ele>
        <time>2014-05-02T13:13:14Z</time>
      </trkpt>
      <trkpt lat="50.60177" lon="1.85671">
        <ele>153.95</ele>
        <time>2014-05-02T13:13:19Z</time>
      </trkpt>
      <trkpt lat="50.60179" lon="1.85655">
        <ele>153.95</ele>
        <time>2014-05-02T13:13:25Z</time>
      </trkpt>
      <trkpt lat="50.60181" lon="1.85641">
        <ele>153.95</ele>
        <time>2014-05-02T13:13:30Z</time>
      </trkpt>
      <trkpt lat="50.60182" lon="1.85627">
        <ele>153.47</ele>
        <time>2014-05-02T13:13:34Z</time>
      </trkpt>
      <trkpt lat="50.60183" lon="1.85613">
        <ele>153.95</ele>
        <time>2014-05-02T13:13:39Z</time>
      </trkpt>
      <trkpt lat="50.60182" lon="1.85596">
        <ele>154.43</ele>
        <time>2014-05-02T13:13:44Z</time>
      </trkpt>
      <trkpt lat="50.60181" lon="1.8558">
        <ele>153.95</ele>
        <time>2014-05-02T13:13:49Z</time>
      </trkpt>
      <trkpt lat="50.60178" lon="1.85564">
        <ele>154.91</ele>
        <time>2014-05-02T13:13:55Z</time>
      </trkpt>
      <trkpt lat="50.60177" lon="1.85551">
        <ele>154.91</ele>
        <time>2014-05-02T13:14:00Z</time>
      </trkpt>
      <trkpt lat="50.60176" lon="1.85537">
        <ele>154.91</ele>
        <time>2014-05-02T13:14:06Z</time>
      </trkpt>
      <trkpt lat="50.60177" lon="1.85522">
        <ele>154.91</ele>
        <time>2014-05-02T13:14:13Z</time>
      </trkpt>
      <trkpt lat="50.60179" lon="1.85508">
        <ele>154.91</ele>
        <time>2014-05-02T13:14:20Z</time>
      </trkpt>
      <trkpt lat="50.60181" lon="1.85493">
        <ele>154.91</ele>
        <time>2014-05-02T13:14:26Z</time>
      </trkpt>
      <trkpt lat="50.60185" lon="1.85481">
        <ele>155.39</ele>
        <time>2014-05-02T13:14:32Z</time>
      </trkpt>
      <trkpt lat="50.60187" lon="1.85467">
        <ele>155.87</ele>
        <time>2014-05-02T13:14:37Z</time>
      </trkpt>
      <trkpt lat="50.6019" lon="1.85453">
        <ele>154.91</ele>
        <time>2014-05-02T13:14:42Z</time>
      </trkpt>
      <trkpt lat="50.60194" lon="1.85439">
        <ele>154.43</ele>
        <time>2014-05-02T13:14:47Z</time>
      </trkpt>
      <trkpt lat="50.60198" lon="1.85423">
        <ele>154.91</ele>
        <time>2014-05-02T13:14:51Z</time>
      </trkpt>
      <trkpt lat="50.60202" lon="1.85407">
        <ele>154.43</ele>
        <time>2014-05-02T13:14:55Z</time>
      </trkpt>
      <trkpt lat="50.60206" lon="1.85387">
        <ele>154.43</ele>
        <time>2014-05-02T13:14:59Z</time>
      </trkpt>
      <trkpt lat="50.60209" lon="1.85371">
        <ele>155.39</ele>
        <time>2014-05-02T13:15:02Z</time>
      </trkpt>
      <trkpt lat="50.60212" lon="1.85356">
        <ele>154.43</ele>
        <time>2014-05-02T13:15:05Z</time>
      </trkpt>
      <trkpt lat="50.60215" lon="1.85337">
        <ele>154.43</ele>
        <time>2014-05-02T13:15:08Z</time>
      </trkpt>
      <trkpt lat="50.60217" lon="1.85317">
        <ele>154.43</ele>
        <time>2014-05-02T13:15:11Z</time>
      </trkpt>
      <trkpt lat="50.60218" lon="1.85303">
        <ele>154.91</ele>
        <time>2014-05-02T13:15:13Z</time>
      </trkpt>
      <trkpt lat="50.60219" lon="1.85289">
        <ele>155.39</ele>
        <time>2014-05-02T13:15:15Z</time>
      </trkpt>
      <trkpt lat="50.60218" lon="1.85273">
        <ele>154.91</ele>
        <time>2014-05-02T13:15:17Z</time>
      </trkpt>
      <trkpt lat="50.60217" lon="1.85258">
        <ele>154.91</ele>
        <time>2014-05-02T13:15:19Z</time>
      </trkpt>
      <trkpt lat="50.60212" lon="1.85238">
        <ele>153.47</ele>
        <time>2014-05-02T13:15:22Z</time>
      </trkpt>
      <trkpt lat="50.60207" lon="1.85218">
        <ele>153.95</ele>
        <time>2014-05-02T13:15:25Z</time>
      </trkpt>
      <trkpt lat="50.60204" lon="1.85205">
        <ele>153.47</ele>
        <time>2014-05-02T13:15:27Z</time>
      </trkpt>
      <trkpt lat="50.602" lon="1.85189">
        <ele>152.51</ele>
        <time>2014-05-02T13:15:29Z</time>
      </trkpt>
      <trkpt lat="50.60196" lon="1.85173">
        <ele>152.51</ele>
        <time>2014-05-02T13:15:31Z</time>
      </trkpt>
      <trkpt lat="50.60193" lon="1.85158">
        <ele>153.47</ele>
        <time>2014-05-02T13:15:33Z</time>
      </trkpt>
      <trkpt lat="50.60189" lon="1.85143">
        <ele>152.99</ele>
        <time>2014-05-02T13:15:35Z</time>
      </trkpt>
      <trkpt lat="50.60183" lon="1.85124">
        <ele>152.51</ele>
        <time>2014-05-02T13:15:38Z</time>
      </trkpt>
      <trkpt lat="50.60178" lon="1.85106">
        <ele>152.99</ele>
        <time>2014-05-02T13:15:41Z</time>
      </trkpt>
      <trkpt lat="50.60173" lon="1.85092">
        <ele>152.03</ele>
        <time>2014-05-02T13:15:46Z</time>
      </trkpt>
      <trkpt lat="50.60168" lon="1.85077">
        <ele>152.51</ele>
        <time>2014-05-02T13:15:53Z</time>
      </trkpt>
      <trkpt lat="50.60163" lon="1.85064">
        <ele>152.51</ele>
        <time>2014-05-02T13:16:01Z</time>
      </trkpt>
      <trkpt lat="50.60157" lon="1.85051">
        <ele>152.51</ele>
        <time>2014-05-02T13:16:08Z</time>
      </trkpt>
      <trkpt lat="50.60151" lon="1.85039">
        <ele>152.03</ele>
        <time>2014-05-02T13:16:16Z</time>
      </trkpt>
      <trkpt lat="50.60146" lon="1.85026">
        <ele>152.03</ele>
        <time>2014-05-02T13:16:23Z</time>
      </trkpt>
      <trkpt lat="50.60138" lon="1.85013">
        <ele>151.54</ele>
        <time>2014-05-02T13:16:29Z</time>
      </trkpt>
      <trkpt lat="50.60132" lon="1.85001">
        <ele>150.58</ele>
        <time>2014-05-02T13:16:35Z</time>
      </trkpt>
      <trkpt lat="50.60125" lon="1.84991">
        <ele>151.06</ele>
        <time>2014-05-02T13:16:41Z</time>
      </trkpt>
      <trkpt lat="50.60117" lon="1.84978">
        <ele>152.51</ele>
        <time>2014-05-02T13:16:47Z</time>
      </trkpt>
      <trkpt lat="50.60109" lon="1.84964">
        <ele>150.1</ele>
        <time>2014-05-02T13:16:53Z</time>
      </trkpt>
      <trkpt lat="50.60103" lon="1.84952">
        <ele>151.06</ele>
        <time>2014-05-02T13:16:59Z</time>
      </trkpt>
      <trkpt lat="50.60096" lon="1.84939">
        <ele>150.58</ele>
        <time>2014-05-02T13:17:05Z</time>
      </trkpt>
      <trkpt lat="50.6009" lon="1.84925">
        <ele>150.58</ele>
        <time>2014-05-02T13:17:12Z</time>
      </trkpt>
      <trkpt lat="50.60083" lon="1.84912">
        <ele>151.06</ele>
        <time>2014-05-02T13:17:18Z</time>
      </trkpt>
      <trkpt lat="50.60076" lon="1.84899">
        <ele>151.06</ele>
        <time>2014-05-02T13:17:24Z</time>
      </trkpt>
      <trkpt lat="50.6007" lon="1.84886">
        <ele>151.54</ele>
        <time>2014-05-02T13:17:29Z</time>
      </trkpt>
      <trkpt lat="50.60062" lon="1.84875">
        <ele>151.06</ele>
        <time>2014-05-02T13:17:35Z</time>
      </trkpt>
      <trkpt lat="50.60057" lon="1.84861">
        <ele>152.03</ele>
        <time>2014-05-02T13:17:41Z</time>
      </trkpt>
      <trkpt lat="50.60051" lon="1.84849">
        <ele>152.99</ele>
        <time>2014-05-02T13:17:47Z</time>
      </trkpt>
      <trkpt lat="50.60044" lon="1.84837">
        <ele>152.51</ele>
        <time>2014-05-02T13:17:52Z</time>
      </trkpt>
      <trkpt lat="50.60038" lon="1.84826">
        <ele>152.51</ele>
        <time>2014-05-02T13:17:58Z</time>
      </trkpt>
      <trkpt lat="50.60031" lon="1.84814">
        <ele>152.51</ele>
        <time>2014-05-02T13:18:03Z</time>
      </trkpt>
      <trkpt lat="50.60024" lon="1.84802">
        <ele>153.47</ele>
        <time>2014-05-02T13:18:10Z</time>
      </trkpt>
      <trkpt lat="50.60017" lon="1.84793">
        <ele>154.43</ele>
        <time>2014-05-02T13:18:16Z</time>
      </trkpt>
      <trkpt lat="50.60011" lon="1.84781">
        <ele>153.95</ele>
        <time>2014-05-02T13:18:22Z</time>
      </trkpt>
      <trkpt lat="50.60004" lon="1.84768">
        <ele>153.95</ele>
        <time>2014-05-02T13:18:28Z</time>
      </trkpt>
      <trkpt lat="50.59997" lon="1.84755">
        <ele>154.43</ele>
        <time>2014-05-02T13:18:34Z</time>
      </trkpt>
      <trkpt lat="50.59992" lon="1.84744">
        <ele>155.39</ele>
        <time>2014-05-02T13:18:39Z</time>
      </trkpt>
      <trkpt lat="50.59985" lon="1.84731">
        <ele>155.39</ele>
        <time>2014-05-02T13:18:45Z</time>
      </trkpt>
      <trkpt lat="50.59979" lon="1.84721">
        <ele>155.87</ele>
        <time>2014-05-02T13:18:50Z</time>
      </trkpt>
      <trkpt lat="50.59972" lon="1.84711">
        <ele>155.39</ele>
        <time>2014-05-02T13:18:55Z</time>
      </trkpt>
      <trkpt lat="50.59964" lon="1.84699">
        <ele>154.91</ele>
        <time>2014-05-02T13:19:01Z</time>
      </trkpt>
      <trkpt lat="50.59957" lon="1.84689">
        <ele>154.91</ele>
        <time>2014-05-02T13:19:06Z</time>
      </trkpt>
      <trkpt lat="50.5995" lon="1.84679">
        <ele>155.39</ele>
        <time>2014-05-02T13:19:11Z</time>
      </trkpt>
      <trkpt lat="50.59942" lon="1.8467">
        <ele>155.39</ele>
        <time>2014-05-02T13:19:16Z</time>
      </trkpt>
      <trkpt lat="50.59935" lon="1.8466">
        <ele>155.87</ele>
        <time>2014-05-02T13:19:21Z</time>
      </trkpt>
      <trkpt lat="50.59926" lon="1.84651">
        <ele>154.91</ele>
        <time>2014-05-02T13:19:27Z</time>
      </trkpt>
      <trkpt lat="50.59917" lon="1.84642">
        <ele>154.91</ele>
        <time>2014-05-02T13:19:32Z</time>
      </trkpt>
      <trkpt lat="50.59909" lon="1.84633">
        <ele>154.91</ele>
        <time>2014-05-02T13:19:37Z</time>
      </trkpt>
      <trkpt lat="50.599" lon="1.84624">
        <ele>154.91</ele>
        <time>2014-05-02T13:19:42Z</time>
      </trkpt>
      <trkpt lat="50.59893" lon="1.84616">
        <ele>154.91</ele>
        <time>2014-05-02T13:19:47Z</time>
      </trkpt>
      <trkpt lat="50.59885" lon="1.84607">
        <ele>154.43</ele>
        <time>2014-05-02T13:19:52Z</time>
      </trkpt>
      <trkpt lat="50.59879" lon="1.84597">
        <ele>154.43</ele>
        <time>2014-05-02T13:19:57Z</time>
      </trkpt>
      <trkpt lat="50.59872" lon="1.84585">
        <ele>153.95</ele>
        <time>2014-05-02T13:20:02Z</time>
      </trkpt>
      <trkpt lat="50.59866" lon="1.84574">
        <ele>153.95</ele>
        <time>2014-05-02T13:20:07Z</time>
      </trkpt>
      <trkpt lat="50.59859" lon="1.84561">
        <ele>154.43</ele>
        <time>2014-05-02T13:20:13Z</time>
      </trkpt>
      <trkpt lat="50.59853" lon="1.8455">
        <ele>154.91</ele>
        <time>2014-05-02T13:20:18Z</time>
      </trkpt>
      <trkpt lat="50.59846" lon="1.84537">
        <ele>153.95</ele>
        <time>2014-05-02T13:20:24Z</time>
      </trkpt>
      <trkpt lat="50.59839" lon="1.84526">
        <ele>152.51</ele>
        <time>2014-05-02T13:20:30Z</time>
      </trkpt>
      <trkpt lat="50.59832" lon="1.84514">
        <ele>152.99</ele>
        <time>2014-05-02T13:20:35Z</time>
      </trkpt>
      <trkpt lat="50.59825" lon="1.84503">
        <ele>153.47</ele>
        <time>2014-05-02T13:20:40Z</time>
      </trkpt>
      <trkpt lat="50.59819" lon="1.84492">
        <ele>152.99</ele>
        <time>2014-05-02T13:20:45Z</time>
      </trkpt>
      <trkpt lat="50.59812" lon="1.8448">
        <ele>152.99</ele>
        <time>2014-05-02T13:20:50Z</time>
      </trkpt>
      <trkpt lat="50.59806" lon="1.8447">
        <ele>152.51</ele>
        <time>2014-05-02T13:20:55Z</time>
      </trkpt>
      <trkpt lat="50.59798" lon="1.84456">
        <ele>152.51</ele>
        <time>2014-05-02T13:21:01Z</time>
      </trkpt>
      <trkpt lat="50.59791" lon="1.84444">
        <ele>152.03</ele>
        <time>2014-05-02T13:21:06Z</time>
      </trkpt>
      <trkpt lat="50.59785" lon="1.84434">
        <ele>152.51</ele>
        <time>2014-05-02T13:21:11Z</time>
      </trkpt>
      <trkpt lat="50.59777" lon="1.84421">
        <ele>152.03</ele>
        <time>2014-05-02T13:21:17Z</time>
      </trkpt>
      <trkpt lat="50.59771" lon="1.84407">
        <ele>151.54</ele>
        <time>2014-05-02T13:21:23Z</time>
      </trkpt>
      <trkpt lat="50.59767" lon="1.84392">
        <ele>151.54</ele>
        <time>2014-05-02T13:21:28Z</time>
      </trkpt>
      <trkpt lat="50.59765" lon="1.84379">
        <ele>151.06</ele>
        <time>2014-05-02T13:21:33Z</time>
      </trkpt>
      <trkpt lat="50.59761" lon="1.84363">
        <ele>150.58</ele>
        <time>2014-05-02T13:21:38Z</time>
      </trkpt>
      <trkpt lat="50.59759" lon="1.84349">
        <ele>150.58</ele>
        <time>2014-05-02T13:21:43Z</time>
      </trkpt>
      <trkpt lat="50.59757" lon="1.84334">
        <ele>150.1</ele>
        <time>2014-05-02T13:21:48Z</time>
      </trkpt>
      <trkpt lat="50.59753" lon="1.8432">
        <ele>150.1</ele>
        <time>2014-05-02T13:21:53Z</time>
      </trkpt>
      <trkpt lat="50.5975" lon="1.84305">
        <ele>149.62</ele>
        <time>2014-05-02T13:21:58Z</time>
      </trkpt>
      <trkpt lat="50.59747" lon="1.84292">
        <ele>148.66</ele>
        <time>2014-05-02T13:22:03Z</time>
      </trkpt>
      <trkpt lat="50.59744" lon="1.84276">
        <ele>149.14</ele>
        <time>2014-05-02T13:22:09Z</time>
      </trkpt>
      <trkpt lat="50.59741" lon="1.8426">
        <ele>149.14</ele>
        <time>2014-05-02T13:22:15Z</time>
      </trkpt>
      <trkpt lat="50.59737" lon="1.84244">
        <ele>148.66</ele>
        <time>2014-05-02T13:22:21Z</time>
      </trkpt>
      <trkpt lat="50.59734" lon="1.84231">
        <ele>148.18</ele>
        <time>2014-05-02T13:22:26Z</time>
      </trkpt>
      <trkpt lat="50.59731" lon="1.84214">
        <ele>148.18</ele>
        <time>2014-05-02T13:22:32Z</time>
      </trkpt>
      <trkpt lat="50.59728" lon="1.84199">
        <ele>147.22</ele>
        <time>2014-05-02T13:22:37Z</time>
      </trkpt>
      <trkpt lat="50.59724" lon="1.84184">
        <ele>146.26</ele>
        <time>2014-05-02T13:22:43Z</time>
      </trkpt>
      <trkpt lat="50.59722" lon="1.84171">
        <ele>146.26</ele>
        <time>2014-05-02T13:22:48Z</time>
      </trkpt>
      <trkpt lat="50.5972" lon="1.84153">
        <ele>146.74</ele>
        <time>2014-05-02T13:22:54Z</time>
      </trkpt>
      <trkpt lat="50.59716" lon="1.84138">
        <ele>146.74</ele>
        <time>2014-05-02T13:23:00Z</time>
      </trkpt>
      <trkpt lat="50.59713" lon="1.84122">
        <ele>144.34</ele>
        <time>2014-05-02T13:23:07Z</time>
      </trkpt>
      <trkpt lat="50.59709" lon="1.84106">
        <ele>144.34</ele>
        <time>2014-05-02T13:23:15Z</time>
      </trkpt>
      <trkpt lat="50.59705" lon="1.84091">
        <ele>143.85</ele>
        <time>2014-05-02T13:23:31Z</time>
      </trkpt>
      <trkpt lat="50.59703" lon="1.84075">
        <ele>144.34</ele>
        <time>2014-05-02T13:23:38Z</time>
      </trkpt>
      <trkpt lat="50.597" lon="1.84058">
        <ele>142.41</ele>
        <time>2014-05-02T13:23:47Z</time>
      </trkpt>
      <trkpt lat="50.59698" lon="1.84038">
        <ele>142.89</ele>
        <time>2014-05-02T13:23:55Z</time>
      </trkpt>
      <trkpt lat="50.59697" lon="1.84019">
        <ele>141.93</ele>
        <time>2014-05-02T13:24:01Z</time>
      </trkpt>
      <trkpt lat="50.59695" lon="1.84004">
        <ele>143.37</ele>
        <time>2014-05-02T13:24:07Z</time>
      </trkpt>
      <trkpt lat="50.59695" lon="1.83987">
        <ele>140.01</ele>
        <time>2014-05-02T13:24:16Z</time>
      </trkpt>
      <trkpt lat="50.59692" lon="1.8397">
        <ele>140.01</ele>
        <time>2014-05-02T13:24:23Z</time>
      </trkpt>
      <trkpt lat="50.59689" lon="1.83954">
        <ele>139.05</ele>
        <time>2014-05-02T13:24:30Z</time>
      </trkpt>
      <trkpt lat="50.59686" lon="1.83939">
        <ele>138.57</ele>
        <time>2014-05-02T13:24:37Z</time>
      </trkpt>
      <trkpt lat="50.59683" lon="1.83925">
        <ele>137.13</ele>
        <time>2014-05-02T13:24:44Z</time>
      </trkpt>
      <trkpt lat="50.59678" lon="1.83911">
        <ele>137.61</ele>
        <time>2014-05-02T13:24:50Z</time>
      </trkpt>
      <trkpt lat="50.59675" lon="1.83898">
        <ele>137.61</ele>
        <time>2014-05-02T13:24:56Z</time>
      </trkpt>
      <trkpt lat="50.5967" lon="1.83883">
        <ele>136.16</ele>
        <time>2014-05-02T13:25:02Z</time>
      </trkpt>
      <trkpt lat="50.59666" lon="1.83871">
        <ele>135.2</ele>
        <time>2014-05-02T13:25:08Z</time>
      </trkpt>
      <trkpt lat="50.59662" lon="1.83857">
        <ele>134.72</ele>
        <time>2014-05-02T13:25:14Z</time>
      </trkpt>
      <trkpt lat="50.59658" lon="1.83845">
        <ele>133.76</ele>
        <time>2014-05-02T13:25:20Z</time>
      </trkpt>
      <trkpt lat="50.59655" lon="1.8383">
        <ele>133.28</ele>
        <time>2014-05-02T13:25:27Z</time>
      </trkpt>
      <trkpt lat="50.59651" lon="1.83814">
        <ele>132.8</ele>
        <time>2014-05-02T13:25:34Z</time>
      </trkpt>
      <trkpt lat="50.59647" lon="1.83797">
        <ele>131.36</ele>
        <time>2014-05-02T13:25:41Z</time>
      </trkpt>
      <trkpt lat="50.59645" lon="1.83781">
        <ele>129.92</ele>
        <time>2014-05-02T13:25:48Z</time>
      </trkpt>
      <trkpt lat="50.59644" lon="1.83764">
        <ele>128.95</ele>
        <time>2014-05-02T13:25:56Z</time>
      </trkpt>
      <trkpt lat="50.59642" lon="1.83748">
        <ele>128.47</ele>
        <time>2014-05-02T13:26:03Z</time>
      </trkpt>
      <trkpt lat="50.5964" lon="1.8373">
        <ele>126.55</ele>
        <time>2014-05-02T13:26:10Z</time>
      </trkpt>
      <trkpt lat="50.59638" lon="1.83712">
        <ele>124.63</ele>
        <time>2014-05-02T13:26:17Z</time>
      </trkpt>
      <trkpt lat="50.59636" lon="1.83697">
        <ele>124.15</ele>
        <time>2014-05-02T13:26:23Z</time>
      </trkpt>
      <trkpt lat="50.59634" lon="1.83679">
        <ele>123.19</ele>
        <time>2014-05-02T13:26:30Z</time>
      </trkpt>
      <trkpt lat="50.59631" lon="1.83664">
        <ele>122.22</ele>
        <time>2014-05-02T13:26:37Z</time>
      </trkpt>
      <trkpt lat="50.59629" lon="1.83648">
        <ele>120.78</ele>
        <time>2014-05-02T13:26:44Z</time>
      </trkpt>
      <trkpt lat="50.59627" lon="1.83632">
        <ele>119.34</ele>
        <time>2014-05-02T13:26:51Z</time>
      </trkpt>
      <trkpt lat="50.59625" lon="1.83615">
        <ele>117.9</ele>
        <time>2014-05-02T13:26:58Z</time>
      </trkpt>
      <trkpt lat="50.59622" lon="1.836">
        <ele>116.94</ele>
        <time>2014-05-02T13:27:05Z</time>
      </trkpt>
      <trkpt lat="50.5962" lon="1.83586">
        <ele>115.5</ele>
        <time>2014-05-02T13:27:11Z</time>
      </trkpt>
      <trkpt lat="50.59617" lon="1.83573">
        <ele>115.5</ele>
        <time>2014-05-02T13:27:17Z</time>
      </trkpt>
      <trkpt lat="50.59614" lon="1.83558">
        <ele>114.53</ele>
        <time>2014-05-02T13:27:24Z</time>
      </trkpt>
      <trkpt lat="50.59611" lon="1.83543">
        <ele>112.61</ele>
        <time>2014-05-02T13:27:31Z</time>
      </trkpt>
      <trkpt lat="50.59609" lon="1.83527">
        <ele>110.69</ele>
        <time>2014-05-02T13:27:37Z</time>
      </trkpt>
      <trkpt lat="50.59606" lon="1.83514">
        <ele>110.69</ele>
        <time>2014-05-02T13:27:43Z</time>
      </trkpt>
      <trkpt lat="50.59604" lon="1.83501">
        <ele>107.81</ele>
        <time>2014-05-02T13:27:49Z</time>
      </trkpt>
      <trkpt lat="50.59601" lon="1.83487">
        <ele>107.32</ele>
        <time>2014-05-02T13:27:55Z</time>
      </trkpt>
      <trkpt lat="50.59599" lon="1.83472">
        <ele>107.32</ele>
        <time>2014-05-02T13:28:02Z</time>
      </trkpt>
      <trkpt lat="50.59597" lon="1.83455">
        <ele>105.88</ele>
        <time>2014-05-02T13:28:09Z</time>
      </trkpt>
      <trkpt lat="50.59594" lon="1.8344">
        <ele>105.4</ele>
        <time>2014-05-02T13:28:15Z</time>
      </trkpt>
      <trkpt lat="50.59592" lon="1.83425">
        <ele>103.48</ele>
        <time>2014-05-02T13:28:22Z</time>
      </trkpt>
      <trkpt lat="50.59588" lon="1.83408">
        <ele>101.08</ele>
        <time>2014-05-02T13:28:30Z</time>
      </trkpt>
      <trkpt lat="50.59585" lon="1.83394">
        <ele>101.08</ele>
        <time>2014-05-02T13:28:37Z</time>
      </trkpt>
      <trkpt lat="50.59581" lon="1.83378">
        <ele>99.63</ele>
        <time>2014-05-02T13:28:43Z</time>
      </trkpt>
      <trkpt lat="50.5958" lon="1.83363">
        <ele>99.15</ele>
        <time>2014-05-02T13:28:49Z</time>
      </trkpt>
      <trkpt lat="50.59577" lon="1.83348">
        <ele>97.23</ele>
        <time>2014-05-02T13:28:56Z</time>
      </trkpt>
      <trkpt lat="50.59574" lon="1.83332">
        <ele>96.27</ele>
        <time>2014-05-02T13:29:03Z</time>
      </trkpt>
      <trkpt lat="50.59572" lon="1.83317">
        <ele>95.79</ele>
        <time>2014-05-02T13:29:09Z</time>
      </trkpt>
      <trkpt lat="50.5957" lon="1.83303">
        <ele>94.83</ele>
        <time>2014-05-02T13:29:16Z</time>
      </trkpt>
      <trkpt lat="50.59568" lon="1.83288">
        <ele>92.42</ele>
        <time>2014-05-02T13:29:23Z</time>
      </trkpt>
      <trkpt lat="50.59566" lon="1.83273">
        <ele>91.94</ele>
        <time>2014-05-02T13:29:30Z</time>
      </trkpt>
      <trkpt lat="50.59565" lon="1.83258">
        <ele>90.98</ele>
        <time>2014-05-02T13:29:36Z</time>
      </trkpt>
      <trkpt lat="50.59563" lon="1.83242">
        <ele>90.02</ele>
        <time>2014-05-02T13:29:43Z</time>
      </trkpt>
      <trkpt lat="50.5956" lon="1.83226">
        <ele>89.54</ele>
        <time>2014-05-02T13:29:49Z</time>
      </trkpt>
      <trkpt lat="50.59557" lon="1.83212">
        <ele>87.62</ele>
        <time>2014-05-02T13:29:55Z</time>
      </trkpt>
      <trkpt lat="50.59554" lon="1.83197">
        <ele>86.66</ele>
        <time>2014-05-02T13:30:01Z</time>
      </trkpt>
      <trkpt lat="50.59552" lon="1.83182">
        <ele>85.21</ele>
        <time>2014-05-02T13:30:22Z</time>
      </trkpt>
      <trkpt lat="50.59549" lon="1.83169">
        <ele>84.25</ele>
        <time>2014-05-02T13:30:28Z</time>
      </trkpt>
      <trkpt lat="50.59546" lon="1.83153">
        <ele>82.81</ele>
        <time>2014-05-02T13:30:35Z</time>
      </trkpt>
      <trkpt lat="50.59544" lon="1.83139">
        <ele>82.33</ele>
        <time>2014-05-02T13:30:41Z</time>
      </trkpt>
      <trkpt lat="50.59541" lon="1.83124">
        <ele>80.89</ele>
        <time>2014-05-02T13:30:47Z</time>
      </trkpt>
      <trkpt lat="50.5954" lon="1.83111">
        <ele>80.41</ele>
        <time>2014-05-02T13:30:53Z</time>
      </trkpt>
      <trkpt lat="50.59544" lon="1.83099">
        <ele>80.41</ele>
        <time>2014-05-02T13:31:00Z</time>
      </trkpt>
      <trkpt lat="50.59555" lon="1.83095">
        <ele>79.93</ele>
        <time>2014-05-02T13:31:38Z</time>
      </trkpt>
      <trkpt lat="50.5957" lon="1.83085">
        <ele>78.97</ele>
        <time>2014-05-02T13:31:47Z</time>
      </trkpt>
      <trkpt lat="50.59589" lon="1.83072">
        <ele>76.56</ele>
        <time>2014-05-02T13:31:57Z</time>
      </trkpt>
      <trkpt lat="50.59601" lon="1.83063">
        <ele>74.64</ele>
        <time>2014-05-02T13:32:07Z</time>
      </trkpt>
      <trkpt lat="50.59615" lon="1.83052">
        <ele>73.2</ele>
        <time>2014-05-02T13:32:16Z</time>
      </trkpt>
      <trkpt lat="50.59629" lon="1.83038">
        <ele>72.24</ele>
        <time>2014-05-02T13:32:25Z</time>
      </trkpt>
      <trkpt lat="50.59634" lon="1.83021">
        <ele>70.79</ele>
        <time>2014-05-02T13:32:32Z</time>
      </trkpt>
      <trkpt lat="50.59644" lon="1.83009">
        <ele>70.79</ele>
        <time>2014-05-02T13:32:40Z</time>
      </trkpt>
      <trkpt lat="50.59652" lon="1.82994">
        <ele>68.87</ele>
        <time>2014-05-02T13:32:48Z</time>
      </trkpt>
      <trkpt lat="50.5966" lon="1.82978">
        <ele>68.39</ele>
        <time>2014-05-02T13:32:56Z</time>
      </trkpt>
      <trkpt lat="50.5967" lon="1.82966">
        <ele>69.35</ele>
        <time>2014-05-02T13:33:03Z</time>
      </trkpt>
      <trkpt lat="50.59678" lon="1.82952">
        <ele>66.95</ele>
        <time>2014-05-02T13:33:17Z</time>
      </trkpt>
      <trkpt lat="50.59686" lon="1.82942">
        <ele>66.47</ele>
        <time>2014-05-02T13:33:23Z</time>
      </trkpt>
      <trkpt lat="50.59696" lon="1.82932">
        <ele>65.99</ele>
        <time>2014-05-02T13:33:31Z</time>
      </trkpt>
      <trkpt lat="50.59702" lon="1.82929">
        <ele>65.99</ele>
        <time>2014-05-02T13:33:56Z</time>
      </trkpt>
      <trkpt lat="50.59697" lon="1.82931">
        <ele>66.47</ele>
        <time>2014-05-02T13:35:37Z</time>
      </trkpt>
      <trkpt lat="50.597" lon="1.82928">
        <ele>65.99</ele>
        <time>2014-05-02T13:37:18Z</time>
      </trkpt>
      <trkpt lat="50.59713" lon="1.82932">
        <ele>65.99</ele>
        <time>2014-05-02T13:37:28Z</time>
      </trkpt>
      <trkpt lat="50.5972" lon="1.82945">
        <ele>65.99</ele>
        <time>2014-05-02T13:37:36Z</time>
      </trkpt>
      <trkpt lat="50.59727" lon="1.8296">
        <ele>66.95</ele>
        <time>2014-05-02T13:37:44Z</time>
      </trkpt>
      <trkpt lat="50.59735" lon="1.82973">
        <ele>66.47</ele>
        <time>2014-05-02T13:37:51Z</time>
      </trkpt>
      <trkpt lat="50.59743" lon="1.82985">
        <ele>67.43</ele>
        <time>2014-05-02T13:37:58Z</time>
      </trkpt>
      <trkpt lat="50.59753" lon="1.82991">
        <ele>68.39</ele>
        <time>2014-05-02T13:38:07Z</time>
      </trkpt>
      <trkpt lat="50.59765" lon="1.82981">
        <ele>67.43</ele>
        <time>2014-05-02T13:38:15Z</time>
      </trkpt>
      <trkpt lat="50.59774" lon="1.8297">
        <ele>68.39</ele>
        <time>2014-05-02T13:38:22Z</time>
      </trkpt>
      <trkpt lat="50.59782" lon="1.82957">
        <ele>68.39</ele>
        <time>2014-05-02T13:38:29Z</time>
      </trkpt>
      <trkpt lat="50.5979" lon="1.82946">
        <ele>69.35</ele>
        <time>2014-05-02T13:38:37Z</time>
      </trkpt>
      <trkpt lat="50.59803" lon="1.82937">
        <ele>69.83</ele>
        <time>2014-05-02T13:38:47Z</time>
      </trkpt>
      <trkpt lat="50.59813" lon="1.82934">
        <ele>70.79</ele>
        <time>2014-05-02T13:38:56Z</time>
      </trkpt>
      <trkpt lat="50.59827" lon="1.82933">
        <ele>72.72</ele>
        <time>2014-05-02T13:39:04Z</time>
      </trkpt>
      <trkpt lat="50.59843" lon="1.8293">
        <ele>72.72</ele>
        <time>2014-05-02T13:39:14Z</time>
      </trkpt>
      <trkpt lat="50.59853" lon="1.82931">
        <ele>73.68</ele>
        <time>2014-05-02T13:39:22Z</time>
      </trkpt>
      <trkpt lat="50.59862" lon="1.82933">
        <ele>73.2</ele>
        <time>2014-05-02T13:39:31Z</time>
      </trkpt>
      <trkpt lat="50.59879" lon="1.82934">
        <ele>75.12</ele>
        <time>2014-05-02T13:39:41Z</time>
      </trkpt>
      <trkpt lat="50.59889" lon="1.82933">
        <ele>75.6</ele>
        <time>2014-05-02T13:39:50Z</time>
      </trkpt>
      <trkpt lat="50.59898" lon="1.82932">
        <ele>77.04</ele>
        <time>2014-05-02T13:39:59Z</time>
      </trkpt>
      <trkpt lat="50.59908" lon="1.82931">
        <ele>77.52</ele>
        <time>2014-05-02T13:40:08Z</time>
      </trkpt>
      <trkpt lat="50.59932" lon="1.82925">
        <ele>76.56</ele>
        <time>2014-05-02T13:40:22Z</time>
      </trkpt>
      <trkpt lat="50.59935" lon="1.82925">
        <ele>76.08</ele>
        <time>2014-05-02T13:41:18Z</time>
      </trkpt>
      <trkpt lat="50.5995" lon="1.82928">
        <ele>78.48</ele>
        <time>2014-05-02T13:41:26Z</time>
      </trkpt>
      <trkpt lat="50.5996" lon="1.82924">
        <ele>79.93</ele>
        <time>2014-05-02T13:41:32Z</time>
      </trkpt>
      <trkpt lat="50.59972" lon="1.82919">
        <ele>79.93</ele>
        <time>2014-05-02T13:41:38Z</time>
      </trkpt>
      <trkpt lat="50.59982" lon="1.82914">
        <ele>78.97</ele>
        <time>2014-05-02T13:41:45Z</time>
      </trkpt>
      <trkpt lat="50.59993" lon="1.8291">
        <ele>80.41</ele>
        <time>2014-05-02T13:41:51Z</time>
      </trkpt>
      <trkpt lat="50.60003" lon="1.82905">
        <ele>80.41</ele>
        <time>2014-05-02T13:41:57Z</time>
      </trkpt>
      <trkpt lat="50.60014" lon="1.82902">
        <ele>81.37</ele>
        <time>2014-05-02T13:42:03Z</time>
      </trkpt>
      <trkpt lat="50.60024" lon="1.82897">
        <ele>83.77</ele>
        <time>2014-05-02T13:42:10Z</time>
      </trkpt>
      <trkpt lat="50.60035" lon="1.82892">
        <ele>83.29</ele>
        <time>2014-05-02T13:42:17Z</time>
      </trkpt>
      <trkpt lat="50.60045" lon="1.82887">
        <ele>85.21</ele>
        <time>2014-05-02T13:42:23Z</time>
      </trkpt>
      <trkpt lat="50.60055" lon="1.82884">
        <ele>85.21</ele>
        <time>2014-05-02T13:42:29Z</time>
      </trkpt>
      <trkpt lat="50.60065" lon="1.82881">
        <ele>85.69</ele>
        <time>2014-05-02T13:42:35Z</time>
      </trkpt>
      <trkpt lat="50.60075" lon="1.82878">
        <ele>86.18</ele>
        <time>2014-05-02T13:42:41Z</time>
      </trkpt>
      <trkpt lat="50.60085" lon="1.82874">
        <ele>86.66</ele>
        <time>2014-05-02T13:42:47Z</time>
      </trkpt>
      <trkpt lat="50.60094" lon="1.82871">
        <ele>87.14</ele>
        <time>2014-05-02T13:42:53Z</time>
      </trkpt>
      <trkpt lat="50.60105" lon="1.82867">
        <ele>88.58</ele>
        <time>2014-05-02T13:42:59Z</time>
      </trkpt>
      <trkpt lat="50.60115" lon="1.82865">
        <ele>89.54</ele>
        <time>2014-05-02T13:43:05Z</time>
      </trkpt>
      <trkpt lat="50.60125" lon="1.82861">
        <ele>89.54</ele>
        <time>2014-05-02T13:43:11Z</time>
      </trkpt>
      <trkpt lat="50.60135" lon="1.82859">
        <ele>91.94</ele>
        <time>2014-05-02T13:43:17Z</time>
      </trkpt>
      <trkpt lat="50.60146" lon="1.82857">
        <ele>92.42</ele>
        <time>2014-05-02T13:43:23Z</time>
      </trkpt>
      <trkpt lat="50.60154" lon="1.8285">
        <ele>92.42</ele>
        <time>2014-05-02T13:43:30Z</time>
      </trkpt>
      <trkpt lat="50.60153" lon="1.82834">
        <ele>91.94</ele>
        <time>2014-05-02T13:43:37Z</time>
      </trkpt>
      <trkpt lat="50.60144" lon="1.82823">
        <ele>92.9</ele>
        <time>2014-05-02T13:43:43Z</time>
      </trkpt>
      <trkpt lat="50.60137" lon="1.82813">
        <ele>92.42</ele>
        <time>2014-05-02T13:43:48Z</time>
      </trkpt>
      <trkpt lat="50.60129" lon="1.82803">
        <ele>92.9</ele>
        <time>2014-05-02T13:43:53Z</time>
      </trkpt>
      <trkpt lat="50.60121" lon="1.82794">
        <ele>93.39</ele>
        <time>2014-05-02T13:43:59Z</time>
      </trkpt>
      <trkpt lat="50.60112" lon="1.82785">
        <ele>94.35</ele>
        <time>2014-05-02T13:44:05Z</time>
      </trkpt>
      <trkpt lat="50.60104" lon="1.82775">
        <ele>93.87</ele>
        <time>2014-05-02T13:44:11Z</time>
      </trkpt>
      <trkpt lat="50.60095" lon="1.82768">
        <ele>94.35</ele>
        <time>2014-05-02T13:44:17Z</time>
      </trkpt>
      <trkpt lat="50.60087" lon="1.82759">
        <ele>93.87</ele>
        <time>2014-05-02T13:44:22Z</time>
      </trkpt>
      <trkpt lat="50.60078" lon="1.82748">
        <ele>93.39</ele>
        <time>2014-05-02T13:44:28Z</time>
      </trkpt>
      <trkpt lat="50.60071" lon="1.82738">
        <ele>94.35</ele>
        <time>2014-05-02T13:44:33Z</time>
      </trkpt>
      <trkpt lat="50.60063" lon="1.8273">
        <ele>94.35</ele>
        <time>2014-05-02T13:44:38Z</time>
      </trkpt>
      <trkpt lat="50.60054" lon="1.8272">
        <ele>93.87</ele>
        <time>2014-05-02T13:44:44Z</time>
      </trkpt>
      <trkpt lat="50.60046" lon="1.82708">
        <ele>93.87</ele>
        <time>2014-05-02T13:44:50Z</time>
      </trkpt>
      <trkpt lat="50.60037" lon="1.82696">
        <ele>93.87</ele>
        <time>2014-05-02T13:44:56Z</time>
      </trkpt>
      <trkpt lat="50.60029" lon="1.82683">
        <ele>94.35</ele>
        <time>2014-05-02T13:45:03Z</time>
      </trkpt>
      <trkpt lat="50.60021" lon="1.82671">
        <ele>93.87</ele>
        <time>2014-05-02T13:45:08Z</time>
      </trkpt>
      <trkpt lat="50.60014" lon="1.8266">
        <ele>94.35</ele>
        <time>2014-05-02T13:45:14Z</time>
      </trkpt>
      <trkpt lat="50.60005" lon="1.82647">
        <ele>93.39</ele>
        <time>2014-05-02T13:45:20Z</time>
      </trkpt>
      <trkpt lat="50.59998" lon="1.82636">
        <ele>92.9</ele>
        <time>2014-05-02T13:45:26Z</time>
      </trkpt>
      <trkpt lat="50.59991" lon="1.82625">
        <ele>93.87</ele>
        <time>2014-05-02T13:45:31Z</time>
      </trkpt>
      <trkpt lat="50.59983" lon="1.82614">
        <ele>92.9</ele>
        <time>2014-05-02T13:45:36Z</time>
      </trkpt>
      <trkpt lat="50.59976" lon="1.82605">
        <ele>93.39</ele>
        <time>2014-05-02T13:45:41Z</time>
      </trkpt>
      <trkpt lat="50.59969" lon="1.82596">
        <ele>93.87</ele>
        <time>2014-05-02T13:45:46Z</time>
      </trkpt>
      <trkpt lat="50.5996" lon="1.82588">
        <ele>95.31</ele>
        <time>2014-05-02T13:45:52Z</time>
      </trkpt>
      <trkpt lat="50.59951" lon="1.82578">
        <ele>94.83</ele>
        <time>2014-05-02T13:45:58Z</time>
      </trkpt>
      <trkpt lat="50.59942" lon="1.8257">
        <ele>95.79</ele>
        <time>2014-05-02T13:46:04Z</time>
      </trkpt>
      <trkpt lat="50.59933" lon="1.82561">
        <ele>97.23</ele>
        <time>2014-05-02T13:46:10Z</time>
      </trkpt>
      <trkpt lat="50.59925" lon="1.8255">
        <ele>97.23</ele>
        <time>2014-05-02T13:46:16Z</time>
      </trkpt>
      <trkpt lat="50.59917" lon="1.82538">
        <ele>98.19</ele>
        <time>2014-05-02T13:46:23Z</time>
      </trkpt>
      <trkpt lat="50.5991" lon="1.82525">
        <ele>98.19</ele>
        <time>2014-05-02T13:46:29Z</time>
      </trkpt>
      <trkpt lat="50.59905" lon="1.82512">
        <ele>98.67</ele>
        <time>2014-05-02T13:46:34Z</time>
      </trkpt>
      <trkpt lat="50.59898" lon="1.82498">
        <ele>99.15</ele>
        <time>2014-05-02T13:46:40Z</time>
      </trkpt>
      <trkpt lat="50.59891" lon="1.82485">
        <ele>100.11</ele>
        <time>2014-05-02T13:46:46Z</time>
      </trkpt>
      <trkpt lat="50.59883" lon="1.82472">
        <ele>101.56</ele>
        <time>2014-05-02T13:46:52Z</time>
      </trkpt>
      <trkpt lat="50.59876" lon="1.82458">
        <ele>102.04</ele>
        <time>2014-05-02T13:46:58Z</time>
      </trkpt>
      <trkpt lat="50.59869" lon="1.82446">
        <ele>103</ele>
        <time>2014-05-02T13:47:04Z</time>
      </trkpt>
      <trkpt lat="50.59861" lon="1.82433">
        <ele>103.96</ele>
        <time>2014-05-02T13:47:10Z</time>
      </trkpt>
      <trkpt lat="50.59855" lon="1.82422">
        <ele>104.44</ele>
        <time>2014-05-02T13:47:15Z</time>
      </trkpt>
      <trkpt lat="50.59848" lon="1.82409">
        <ele>104.44</ele>
        <time>2014-05-02T13:47:20Z</time>
      </trkpt>
      <trkpt lat="50.59842" lon="1.82396">
        <ele>104.44</ele>
        <time>2014-05-02T13:47:25Z</time>
      </trkpt>
      <trkpt lat="50.59835" lon="1.82383">
        <ele>106.84</ele>
        <time>2014-05-02T13:47:31Z</time>
      </trkpt>
      <trkpt lat="50.59828" lon="1.82371">
        <ele>106.84</ele>
        <time>2014-05-02T13:47:37Z</time>
      </trkpt>
      <trkpt lat="50.59822" lon="1.8236">
        <ele>107.81</ele>
        <time>2014-05-02T13:47:43Z</time>
      </trkpt>
      <trkpt lat="50.59816" lon="1.82348">
        <ele>107.81</ele>
        <time>2014-05-02T13:47:49Z</time>
      </trkpt>
      <trkpt lat="50.59809" lon="1.82335">
        <ele>109.25</ele>
        <time>2014-05-02T13:47:55Z</time>
      </trkpt>
      <trkpt lat="50.59802" lon="1.82323">
        <ele>110.21</ele>
        <time>2014-05-02T13:48:01Z</time>
      </trkpt>
      <trkpt lat="50.59795" lon="1.82311">
        <ele>110.69</ele>
        <time>2014-05-02T13:48:07Z</time>
      </trkpt>
      <trkpt lat="50.59789" lon="1.823">
        <ele>111.17</ele>
        <time>2014-05-02T13:48:12Z</time>
      </trkpt>
      <trkpt lat="50.59782" lon="1.82287">
        <ele>111.17</ele>
        <time>2014-05-02T13:48:18Z</time>
      </trkpt>
      <trkpt lat="50.59774" lon="1.82277">
        <ele>112.13</ele>
        <time>2014-05-02T13:48:24Z</time>
      </trkpt>
      <trkpt lat="50.59767" lon="1.82266">
        <ele>113.09</ele>
        <time>2014-05-02T13:48:30Z</time>
      </trkpt>
      <trkpt lat="50.5976" lon="1.82254">
        <ele>113.09</ele>
        <time>2014-05-02T13:48:36Z</time>
      </trkpt>
      <trkpt lat="50.59752" lon="1.82241">
        <ele>113.09</ele>
        <time>2014-05-02T13:48:42Z</time>
      </trkpt>
      <trkpt lat="50.59745" lon="1.82229">
        <ele>114.05</ele>
        <time>2014-05-02T13:48:48Z</time>
      </trkpt>
      <trkpt lat="50.59739" lon="1.82219">
        <ele>113.57</ele>
        <time>2014-05-02T13:48:53Z</time>
      </trkpt>
      <trkpt lat="50.59732" lon="1.82209">
        <ele>114.53</ele>
        <time>2014-05-02T13:48:58Z</time>
      </trkpt>
      <trkpt lat="50.59724" lon="1.82196">
        <ele>113.57</ele>
        <time>2014-05-02T13:49:03Z</time>
      </trkpt>
      <trkpt lat="50.59718" lon="1.82185">
        <ele>114.05</ele>
        <time>2014-05-02T13:49:06Z</time>
      </trkpt>
      <trkpt lat="50.5971" lon="1.82173">
        <ele>115.01</ele>
        <time>2014-05-02T13:49:09Z</time>
      </trkpt>
      <trkpt lat="50.59702" lon="1.82162">
        <ele>115.5</ele>
        <time>2014-05-02T13:49:13Z</time>
      </trkpt>
      <trkpt lat="50.59697" lon="1.82158">
        <ele>117.42</ele>
        <time>2014-05-02T13:49:22Z</time>
      </trkpt>
      <trkpt lat="50.59695" lon="1.82148">
        <ele>115.98</ele>
        <time>2014-05-02T13:50:00Z</time>
      </trkpt>
      <trkpt lat="50.59687" lon="1.82139">
        <ele>116.46</ele>
        <time>2014-05-02T13:50:06Z</time>
      </trkpt>
      <trkpt lat="50.59681" lon="1.82129">
        <ele>116.94</ele>
        <time>2014-05-02T13:50:12Z</time>
      </trkpt>
      <trkpt lat="50.59674" lon="1.82118">
        <ele>117.42</ele>
        <time>2014-05-02T13:50:18Z</time>
      </trkpt>
      <trkpt lat="50.59666" lon="1.82108">
        <ele>117.42</ele>
        <time>2014-05-02T13:50:24Z</time>
      </trkpt>
      <trkpt lat="50.59658" lon="1.82098">
        <ele>117.42</ele>
        <time>2014-05-02T13:50:30Z</time>
      </trkpt>
      <trkpt lat="50.59651" lon="1.82089">
        <ele>117.9</ele>
        <time>2014-05-02T13:50:36Z</time>
      </trkpt>
      <trkpt lat="50.59644" lon="1.82078">
        <ele>117.42</ele>
        <time>2014-05-02T13:50:41Z</time>
      </trkpt>
      <trkpt lat="50.59636" lon="1.82067">
        <ele>116.46</ele>
        <time>2014-05-02T13:50:47Z</time>
      </trkpt>
      <trkpt lat="50.59628" lon="1.82055">
        <ele>118.38</ele>
        <time>2014-05-02T13:50:53Z</time>
      </trkpt>
      <trkpt lat="50.59621" lon="1.82046">
        <ele>118.38</ele>
        <time>2014-05-02T13:50:58Z</time>
      </trkpt>
      <trkpt lat="50.59613" lon="1.82035">
        <ele>118.38</ele>
        <time>2014-05-02T13:51:03Z</time>
      </trkpt>
      <trkpt lat="50.59605" lon="1.82023">
        <ele>118.38</ele>
        <time>2014-05-02T13:51:09Z</time>
      </trkpt>
      <trkpt lat="50.59597" lon="1.82013">
        <ele>118.38</ele>
        <time>2014-05-02T13:51:15Z</time>
      </trkpt>
      <trkpt lat="50.59589" lon="1.82002">
        <ele>118.38</ele>
        <time>2014-05-02T13:51:21Z</time>
      </trkpt>
      <trkpt lat="50.59579" lon="1.81992">
        <ele>117.9</ele>
        <time>2014-05-02T13:51:27Z</time>
      </trkpt>
      <trkpt lat="50.59572" lon="1.81983">
        <ele>119.34</ele>
        <time>2014-05-02T13:51:32Z</time>
      </trkpt>
      <trkpt lat="50.59563" lon="1.81973">
        <ele>118.86</ele>
        <time>2014-05-02T13:51:38Z</time>
      </trkpt>
      <trkpt lat="50.59554" lon="1.81964">
        <ele>119.82</ele>
        <time>2014-05-02T13:51:44Z</time>
      </trkpt>
      <trkpt lat="50.59543" lon="1.81952">
        <ele>119.34</ele>
        <time>2014-05-02T13:51:51Z</time>
      </trkpt>
      <trkpt lat="50.59535" lon="1.81944">
        <ele>119.82</ele>
        <time>2014-05-02T13:51:57Z</time>
      </trkpt>
      <trkpt lat="50.59526" lon="1.81934">
        <ele>120.3</ele>
        <time>2014-05-02T13:52:03Z</time>
      </trkpt>
      <trkpt lat="50.59516" lon="1.81918">
        <ele>120.78</ele>
        <time>2014-05-02T13:52:10Z</time>
      </trkpt>
      <trkpt lat="50.59506" lon="1.81907">
        <ele>120.3</ele>
        <time>2014-05-02T13:52:16Z</time>
      </trkpt>
      <trkpt lat="50.59497" lon="1.81898">
        <ele>120.78</ele>
        <time>2014-05-02T13:52:22Z</time>
      </trkpt>
      <trkpt lat="50.59488" lon="1.81889">
        <ele>121.74</ele>
        <time>2014-05-02T13:52:28Z</time>
      </trkpt>
      <trkpt lat="50.5948" lon="1.81881">
        <ele>121.74</ele>
        <time>2014-05-02T13:52:33Z</time>
      </trkpt>
      <trkpt lat="50.59471" lon="1.81874">
        <ele>121.74</ele>
        <time>2014-05-02T13:52:39Z</time>
      </trkpt>
      <trkpt lat="50.59461" lon="1.81868">
        <ele>122.71</ele>
        <time>2014-05-02T13:52:44Z</time>
      </trkpt>
      <trkpt lat="50.5945" lon="1.81861">
        <ele>123.19</ele>
        <time>2014-05-02T13:52:50Z</time>
      </trkpt>
      <trkpt lat="50.59438" lon="1.81856">
        <ele>123.67</ele>
        <time>2014-05-02T13:52:57Z</time>
      </trkpt>
      <trkpt lat="50.59428" lon="1.8185">
        <ele>124.15</ele>
        <time>2014-05-02T13:53:04Z</time>
      </trkpt>
      <trkpt lat="50.5942" lon="1.81842">
        <ele>124.63</ele>
        <time>2014-05-02T13:53:10Z</time>
      </trkpt>
      <trkpt lat="50.59407" lon="1.81832">
        <ele>125.11</ele>
        <time>2014-05-02T13:53:17Z</time>
      </trkpt>
      <trkpt lat="50.59397" lon="1.81822">
        <ele>125.59</ele>
        <time>2014-05-02T13:53:23Z</time>
      </trkpt>
      <trkpt lat="50.59388" lon="1.81813">
        <ele>126.55</ele>
        <time>2014-05-02T13:53:29Z</time>
      </trkpt>
      <trkpt lat="50.59378" lon="1.81803">
        <ele>127.99</ele>
        <time>2014-05-02T13:53:36Z</time>
      </trkpt>
      <trkpt lat="50.59369" lon="1.81796">
        <ele>128.47</ele>
        <time>2014-05-02T13:53:42Z</time>
      </trkpt>
      <trkpt lat="50.5936" lon="1.81787">
        <ele>128.47</ele>
        <time>2014-05-02T13:53:48Z</time>
      </trkpt>
      <trkpt lat="50.59351" lon="1.8178">
        <ele>128.95</ele>
        <time>2014-05-02T13:53:54Z</time>
      </trkpt>
      <trkpt lat="50.59341" lon="1.81772">
        <ele>129.92</ele>
        <time>2014-05-02T13:54:00Z</time>
      </trkpt>
      <trkpt lat="50.59332" lon="1.81766">
        <ele>129.92</ele>
        <time>2014-05-02T13:54:06Z</time>
      </trkpt>
      <trkpt lat="50.59324" lon="1.81757">
        <ele>129.92</ele>
        <time>2014-05-02T13:54:12Z</time>
      </trkpt>
      <trkpt lat="50.59316" lon="1.81746">
        <ele>130.4</ele>
        <time>2014-05-02T13:54:18Z</time>
      </trkpt>
      <trkpt lat="50.59308" lon="1.81732">
        <ele>130.88</ele>
        <time>2014-05-02T13:54:25Z</time>
      </trkpt>
      <trkpt lat="50.593" lon="1.81721">
        <ele>130.88</ele>
        <time>2014-05-02T13:54:32Z</time>
      </trkpt>
      <trkpt lat="50.59295" lon="1.81708">
        <ele>130.88</ele>
        <time>2014-05-02T13:54:39Z</time>
      </trkpt>
      <trkpt lat="50.59288" lon="1.81694">
        <ele>131.36</ele>
        <time>2014-05-02T13:54:46Z</time>
      </trkpt>
      <trkpt lat="50.59281" lon="1.81679">
        <ele>131.36</ele>
        <time>2014-05-02T13:54:54Z</time>
      </trkpt>
      <trkpt lat="50.59268" lon="1.81661">
        <ele>130.88</ele>
        <time>2014-05-02T13:55:02Z</time>
      </trkpt>
      <trkpt lat="50.59259" lon="1.81651">
        <ele>131.36</ele>
        <time>2014-05-02T13:55:10Z</time>
      </trkpt>
      <trkpt lat="50.59246" lon="1.81643">
        <ele>130.4</ele>
        <time>2014-05-02T13:55:17Z</time>
      </trkpt>
      <trkpt lat="50.5923" lon="1.81635">
        <ele>129.92</ele>
        <time>2014-05-02T13:55:24Z</time>
      </trkpt>
      <trkpt lat="50.59218" lon="1.8163">
        <ele>129.92</ele>
        <time>2014-05-02T13:55:31Z</time>
      </trkpt>
      <trkpt lat="50.59204" lon="1.81627">
        <ele>129.43</ele>
        <time>2014-05-02T13:55:39Z</time>
      </trkpt>
      <trkpt lat="50.5919" lon="1.81623">
        <ele>129.43</ele>
        <time>2014-05-02T13:55:46Z</time>
      </trkpt>
      <trkpt lat="50.59178" lon="1.81626">
        <ele>127.99</ele>
        <time>2014-05-02T13:55:53Z</time>
      </trkpt>
      <trkpt lat="50.59168" lon="1.81621">
        <ele>129.92</ele>
        <time>2014-05-02T13:56:01Z</time>
      </trkpt>
      <trkpt lat="50.59159" lon="1.81607">
        <ele>130.4</ele>
        <time>2014-05-02T13:56:10Z</time>
      </trkpt>
      <trkpt lat="50.59148" lon="1.81588">
        <ele>131.84</ele>
        <time>2014-05-02T13:56:20Z</time>
      </trkpt>
      <trkpt lat="50.59136" lon="1.8157">
        <ele>132.32</ele>
        <time>2014-05-02T13:56:28Z</time>
      </trkpt>
      <trkpt lat="50.59126" lon="1.81558">
        <ele>133.28</ele>
        <time>2014-05-02T13:56:35Z</time>
      </trkpt>
      <trkpt lat="50.59115" lon="1.81547">
        <ele>133.76</ele>
        <time>2014-05-02T13:56:42Z</time>
      </trkpt>
      <trkpt lat="50.59106" lon="1.81539">
        <ele>133.76</ele>
        <time>2014-05-02T13:56:48Z</time>
      </trkpt>
      <trkpt lat="50.59096" lon="1.81531">
        <ele>133.76</ele>
        <time>2014-05-02T13:56:55Z</time>
      </trkpt>
      <trkpt lat="50.59082" lon="1.81526">
        <ele>134.24</ele>
        <time>2014-05-02T13:57:03Z</time>
      </trkpt>
      <trkpt lat="50.59066" lon="1.81521">
        <ele>134.24</ele>
        <time>2014-05-02T13:57:10Z</time>
      </trkpt>
      <trkpt lat="50.59053" lon="1.81522">
        <ele>135.2</ele>
        <time>2014-05-02T13:57:17Z</time>
      </trkpt>
      <trkpt lat="50.59038" lon="1.81523">
        <ele>135.2</ele>
        <time>2014-05-02T13:57:24Z</time>
      </trkpt>
      <trkpt lat="50.59026" lon="1.81524">
        <ele>135.68</ele>
        <time>2014-05-02T13:57:30Z</time>
      </trkpt>
      <trkpt lat="50.59015" lon="1.81527">
        <ele>135.2</ele>
        <time>2014-05-02T13:57:37Z</time>
      </trkpt>
      <trkpt lat="50.59005" lon="1.8153">
        <ele>135.2</ele>
        <time>2014-05-02T13:57:43Z</time>
      </trkpt>
      <trkpt lat="50.58993" lon="1.81533">
        <ele>134.72</ele>
        <time>2014-05-02T13:57:49Z</time>
      </trkpt>
      <trkpt lat="50.58982" lon="1.8154">
        <ele>133.76</ele>
        <time>2014-05-02T13:57:56Z</time>
      </trkpt>
      <trkpt lat="50.58972" lon="1.81549">
        <ele>133.76</ele>
        <time>2014-05-02T13:58:02Z</time>
      </trkpt>
      <trkpt lat="50.5896" lon="1.81558">
        <ele>132.8</ele>
        <time>2014-05-02T13:58:09Z</time>
      </trkpt>
      <trkpt lat="50.58946" lon="1.81569">
        <ele>133.76</ele>
        <time>2014-05-02T13:58:16Z</time>
      </trkpt>
      <trkpt lat="50.58937" lon="1.81578">
        <ele>133.28</ele>
        <time>2014-05-02T13:58:22Z</time>
      </trkpt>
      <trkpt lat="50.58926" lon="1.81587">
        <ele>132.32</ele>
        <time>2014-05-02T13:58:28Z</time>
      </trkpt>
      <trkpt lat="50.58918" lon="1.81599">
        <ele>131.36</ele>
        <time>2014-05-02T13:58:34Z</time>
      </trkpt>
      <trkpt lat="50.58912" lon="1.81612">
        <ele>130.88</ele>
        <time>2014-05-02T13:58:41Z</time>
      </trkpt>
      <trkpt lat="50.58905" lon="1.81627">
        <ele>129.92</ele>
        <time>2014-05-02T13:58:49Z</time>
      </trkpt>
      <trkpt lat="50.58896" lon="1.81639">
        <ele>128.47</ele>
        <time>2014-05-02T13:58:57Z</time>
      </trkpt>
      <trkpt lat="50.5888" lon="1.81662">
        <ele>127.51</ele>
        <time>2014-05-02T13:59:04Z</time>
      </trkpt>
      <trkpt lat="50.5887" lon="1.81677">
        <ele>126.55</ele>
        <time>2014-05-02T13:59:10Z</time>
      </trkpt>
      <trkpt lat="50.58861" lon="1.81692">
        <ele>125.11</ele>
        <time>2014-05-02T13:59:17Z</time>
      </trkpt>
      <trkpt lat="50.58851" lon="1.8171">
        <ele>124.15</ele>
        <time>2014-05-02T13:59:24Z</time>
      </trkpt>
      <trkpt lat="50.58838" lon="1.8173">
        <ele>123.19</ele>
        <time>2014-05-02T13:59:33Z</time>
      </trkpt>
      <trkpt lat="50.58825" lon="1.81751">
        <ele>123.67</ele>
        <time>2014-05-02T13:59:46Z</time>
      </trkpt>
      <trkpt lat="50.58816" lon="1.81767">
        <ele>121.26</ele>
        <time>2014-05-02T13:59:58Z</time>
      </trkpt>
      <trkpt lat="50.58809" lon="1.81776">
        <ele>120.3</ele>
        <time>2014-05-02T14:00:05Z</time>
      </trkpt>
      <trkpt lat="50.58799" lon="1.8179">
        <ele>120.3</ele>
        <time>2014-05-02T14:00:13Z</time>
      </trkpt>
      <trkpt lat="50.5879" lon="1.81804">
        <ele>119.82</ele>
        <time>2014-05-02T14:00:22Z</time>
      </trkpt>
      <trkpt lat="50.58783" lon="1.81814">
        <ele>118.38</ele>
        <time>2014-05-02T14:00:30Z</time>
      </trkpt>
      <trkpt lat="50.58771" lon="1.8183">
        <ele>116.46</ele>
        <time>2014-05-02T14:00:39Z</time>
      </trkpt>
      <trkpt lat="50.58761" lon="1.81841">
        <ele>115.5</ele>
        <time>2014-05-02T14:00:47Z</time>
      </trkpt>
      <trkpt lat="50.58748" lon="1.81856">
        <ele>113.09</ele>
        <time>2014-05-02T14:00:57Z</time>
      </trkpt>
      <trkpt lat="50.58742" lon="1.8186">
        <ele>113.09</ele>
        <time>2014-05-02T14:01:14Z</time>
      </trkpt>
      <trkpt lat="50.58746" lon="1.81859">
        <ele>112.61</ele>
        <time>2014-05-02T14:02:02Z</time>
      </trkpt>
      <trkpt lat="50.58745" lon="1.81869">
        <ele>112.13</ele>
        <time>2014-05-02T14:02:15Z</time>
      </trkpt>
      <trkpt lat="50.58738" lon="1.81878">
        <ele>112.61</ele>
        <time>2014-05-02T14:04:13Z</time>
      </trkpt>
      <trkpt lat="50.58741" lon="1.81872">
        <ele>115.98</ele>
        <time>2014-05-02T14:06:10Z</time>
      </trkpt>
      <trkpt lat="50.58748" lon="1.81861">
        <ele>116.94</ele>
        <time>2014-05-02T14:06:18Z</time>
      </trkpt>
      <trkpt lat="50.58757" lon="1.81851">
        <ele>118.86</ele>
        <time>2014-05-02T14:06:27Z</time>
      </trkpt>
      <trkpt lat="50.58767" lon="1.81837">
        <ele>119.34</ele>
        <time>2014-05-02T14:06:36Z</time>
      </trkpt>
      <trkpt lat="50.58781" lon="1.8182">
        <ele>119.82</ele>
        <time>2014-05-02T14:06:48Z</time>
      </trkpt>
      <trkpt lat="50.58794" lon="1.81789">
        <ele>122.71</ele>
        <time>2014-05-02T14:07:03Z</time>
      </trkpt>
      <trkpt lat="50.58804" lon="1.8177">
        <ele>122.71</ele>
        <time>2014-05-02T14:07:15Z</time>
      </trkpt>
      <trkpt lat="50.58814" lon="1.81753">
        <ele>124.15</ele>
        <time>2014-05-02T14:07:23Z</time>
      </trkpt>
      <trkpt lat="50.5883" lon="1.81732">
        <ele>123.19</ele>
        <time>2014-05-02T14:07:31Z</time>
      </trkpt>
      <trkpt lat="50.5885" lon="1.81704">
        <ele>125.59</ele>
        <time>2014-05-02T14:07:41Z</time>
      </trkpt>
      <trkpt lat="50.5886" lon="1.81687">
        <ele>126.07</ele>
        <time>2014-05-02T14:07:50Z</time>
      </trkpt>
      <trkpt lat="50.58871" lon="1.81671">
        <ele>127.03</ele>
        <time>2014-05-02T14:07:58Z</time>
      </trkpt>
      <trkpt lat="50.58886" lon="1.81653">
        <ele>127.99</ele>
        <time>2014-05-02T14:08:08Z</time>
      </trkpt>
      <trkpt lat="50.58908" lon="1.81625">
        <ele>128.95</ele>
        <time>2014-05-02T14:08:18Z</time>
      </trkpt>
      <trkpt lat="50.58919" lon="1.81603">
        <ele>129.92</ele>
        <time>2014-05-02T14:08:27Z</time>
      </trkpt>
      <trkpt lat="50.58926" lon="1.81592">
        <ele>129.43</ele>
        <time>2014-05-02T14:08:35Z</time>
      </trkpt>
      <trkpt lat="50.5894" lon="1.81575">
        <ele>130.88</ele>
        <time>2014-05-02T14:08:44Z</time>
      </trkpt>
      <trkpt lat="50.58958" lon="1.81561">
        <ele>130.88</ele>
        <time>2014-05-02T14:08:54Z</time>
      </trkpt>
      <trkpt lat="50.58966" lon="1.81551">
        <ele>132.32</ele>
        <time>2014-05-02T14:09:04Z</time>
      </trkpt>
      <trkpt lat="50.58978" lon="1.81539">
        <ele>131.84</ele>
        <time>2014-05-02T14:09:11Z</time>
      </trkpt>
      <trkpt lat="50.58995" lon="1.81531">
        <ele>132.32</ele>
        <time>2014-05-02T14:09:20Z</time>
      </trkpt>
      <trkpt lat="50.59013" lon="1.81529">
        <ele>132.8</ele>
        <time>2014-05-02T14:09:28Z</time>
      </trkpt>
      <trkpt lat="50.59028" lon="1.81524">
        <ele>132.32</ele>
        <time>2014-05-02T14:09:36Z</time>
      </trkpt>
      <trkpt lat="50.59042" lon="1.81526">
        <ele>131.84</ele>
        <time>2014-05-02T14:09:44Z</time>
      </trkpt>
      <trkpt lat="50.59056" lon="1.81522">
        <ele>131.84</ele>
        <time>2014-05-02T14:09:51Z</time>
      </trkpt>
      <trkpt lat="50.59073" lon="1.81525">
        <ele>131.36</ele>
        <time>2014-05-02T14:09:58Z</time>
      </trkpt>
      <trkpt lat="50.59085" lon="1.81528">
        <ele>131.84</ele>
        <time>2014-05-02T14:10:04Z</time>
      </trkpt>
      <trkpt lat="50.59097" lon="1.81533">
        <ele>131.84</ele>
        <time>2014-05-02T14:10:09Z</time>
      </trkpt>
      <trkpt lat="50.59108" lon="1.81542">
        <ele>131.36</ele>
        <time>2014-05-02T14:10:15Z</time>
      </trkpt>
      <trkpt lat="50.59119" lon="1.81552">
        <ele>131.36</ele>
        <time>2014-05-02T14:10:20Z</time>
      </trkpt>
      <trkpt lat="50.59127" lon="1.81561">
        <ele>131.36</ele>
        <time>2014-05-02T14:10:26Z</time>
      </trkpt>
      <trkpt lat="50.59139" lon="1.81573">
        <ele>129.92</ele>
        <time>2014-05-02T14:10:33Z</time>
      </trkpt>
      <trkpt lat="50.59148" lon="1.81583">
        <ele>129.43</ele>
        <time>2014-05-02T14:10:39Z</time>
      </trkpt>
      <trkpt lat="50.59157" lon="1.81593">
        <ele>128.95</ele>
        <time>2014-05-02T14:10:45Z</time>
      </trkpt>
      <trkpt lat="50.59166" lon="1.81604">
        <ele>128.95</ele>
        <time>2014-05-02T14:10:52Z</time>
      </trkpt>
      <trkpt lat="50.59176" lon="1.81616">
        <ele>127.03</ele>
        <time>2014-05-02T14:10:59Z</time>
      </trkpt>
      <trkpt lat="50.59186" lon="1.81623">
        <ele>126.07</ele>
        <time>2014-05-02T14:11:07Z</time>
      </trkpt>
      <trkpt lat="50.59199" lon="1.81625">
        <ele>128.95</ele>
        <time>2014-05-02T14:11:14Z</time>
      </trkpt>
      <trkpt lat="50.59207" lon="1.81629">
        <ele>127.99</ele>
        <time>2014-05-02T14:11:20Z</time>
      </trkpt>
      <trkpt lat="50.59216" lon="1.81637">
        <ele>127.99</ele>
        <time>2014-05-02T14:11:28Z</time>
      </trkpt>
      <trkpt lat="50.59224" lon="1.81643">
        <ele>128.95</ele>
        <time>2014-05-02T14:11:35Z</time>
      </trkpt>
      <trkpt lat="50.59232" lon="1.81651">
        <ele>129.43</ele>
        <time>2014-05-02T14:11:41Z</time>
      </trkpt>
      <trkpt lat="50.5924" lon="1.81657">
        <ele>129.43</ele>
        <time>2014-05-02T14:11:48Z</time>
      </trkpt>
      <trkpt lat="50.59248" lon="1.81666">
        <ele>129.92</ele>
        <time>2014-05-02T14:11:55Z</time>
      </trkpt>
      <trkpt lat="50.59262" lon="1.81671">
        <ele>128.95</ele>
        <time>2014-05-02T14:12:01Z</time>
      </trkpt>
      <trkpt lat="50.59276" lon="1.81678">
        <ele>129.43</ele>
        <time>2014-05-02T14:12:08Z</time>
      </trkpt>
      <trkpt lat="50.59294" lon="1.81683">
        <ele>128.95</ele>
        <time>2014-05-02T14:12:16Z</time>
      </trkpt>
      <trkpt lat="50.59302" lon="1.81694">
        <ele>127.99</ele>
        <time>2014-05-02T14:12:21Z</time>
      </trkpt>
      <trkpt lat="50.5931" lon="1.81708">
        <ele>128.95</ele>
        <time>2014-05-02T14:12:27Z</time>
      </trkpt>
      <trkpt lat="50.59317" lon="1.81721">
        <ele>128.95</ele>
        <time>2014-05-02T14:12:33Z</time>
      </trkpt>
      <trkpt lat="50.59322" lon="1.81736">
        <ele>128.47</ele>
        <time>2014-05-02T14:12:38Z</time>
      </trkpt>
      <trkpt lat="50.59328" lon="1.81752">
        <ele>128.47</ele>
        <time>2014-05-02T14:12:44Z</time>
      </trkpt>
      <trkpt lat="50.59334" lon="1.81766">
        <ele>128.47</ele>
        <time>2014-05-02T14:12:49Z</time>
      </trkpt>
      <trkpt lat="50.59339" lon="1.81778">
        <ele>127.99</ele>
        <time>2014-05-02T14:12:54Z</time>
      </trkpt>
      <trkpt lat="50.59341" lon="1.81791">
        <ele>127.03</ele>
        <time>2014-05-02T14:12:58Z</time>
      </trkpt>
      <trkpt lat="50.59343" lon="1.81802">
        <ele>127.03</ele>
        <time>2014-05-02T14:13:03Z</time>
      </trkpt>
      <trkpt lat="50.59351" lon="1.81809">
        <ele>127.03</ele>
        <time>2014-05-02T14:13:08Z</time>
      </trkpt>
      <trkpt lat="50.5936" lon="1.81815">
        <ele>127.03</ele>
        <time>2014-05-02T14:13:13Z</time>
      </trkpt>
      <trkpt lat="50.59369" lon="1.8182">
        <ele>126.07</ele>
        <time>2014-05-02T14:13:18Z</time>
      </trkpt>
      <trkpt lat="50.59378" lon="1.81827">
        <ele>125.59</ele>
        <time>2014-05-02T14:13:23Z</time>
      </trkpt>
      <trkpt lat="50.59386" lon="1.8183">
        <ele>124.63</ele>
        <time>2014-05-02T14:13:27Z</time>
      </trkpt>
      <trkpt lat="50.59398" lon="1.81834">
        <ele>123.67</ele>
        <time>2014-05-02T14:13:32Z</time>
      </trkpt>
      <trkpt lat="50.59407" lon="1.81837">
        <ele>122.71</ele>
        <time>2014-05-02T14:13:37Z</time>
      </trkpt>
      <trkpt lat="50.59417" lon="1.81843">
        <ele>122.71</ele>
        <time>2014-05-02T14:13:43Z</time>
      </trkpt>
      <trkpt lat="50.59427" lon="1.81855">
        <ele>122.22</ele>
        <time>2014-05-02T14:13:50Z</time>
      </trkpt>
      <trkpt lat="50.59436" lon="1.81864">
        <ele>122.22</ele>
        <time>2014-05-02T14:13:56Z</time>
      </trkpt>
      <trkpt lat="50.59444" lon="1.81869">
        <ele>121.74</ele>
        <time>2014-05-02T14:14:01Z</time>
      </trkpt>
      <trkpt lat="50.59453" lon="1.81874">
        <ele>121.26</ele>
        <time>2014-05-02T14:14:06Z</time>
      </trkpt>
      <trkpt lat="50.59462" lon="1.81877">
        <ele>121.26</ele>
        <time>2014-05-02T14:14:11Z</time>
      </trkpt>
      <trkpt lat="50.59471" lon="1.81881">
        <ele>119.82</ele>
        <time>2014-05-02T14:14:16Z</time>
      </trkpt>
      <trkpt lat="50.59481" lon="1.81883">
        <ele>119.82</ele>
        <time>2014-05-02T14:14:21Z</time>
      </trkpt>
      <trkpt lat="50.59489" lon="1.81885">
        <ele>119.34</ele>
        <time>2014-05-02T14:14:26Z</time>
      </trkpt>
      <trkpt lat="50.59499" lon="1.81891">
        <ele>118.86</ele>
        <time>2014-05-02T14:14:32Z</time>
      </trkpt>
      <trkpt lat="50.59507" lon="1.81902">
        <ele>118.86</ele>
        <time>2014-05-02T14:14:39Z</time>
      </trkpt>
      <trkpt lat="50.59515" lon="1.81913">
        <ele>118.86</ele>
        <time>2014-05-02T14:14:44Z</time>
      </trkpt>
      <trkpt lat="50.59523" lon="1.81922">
        <ele>118.38</ele>
        <time>2014-05-02T14:14:49Z</time>
      </trkpt>
      <trkpt lat="50.59531" lon="1.8193">
        <ele>118.38</ele>
        <time>2014-05-02T14:14:54Z</time>
      </trkpt>
      <trkpt lat="50.59538" lon="1.81942">
        <ele>118.38</ele>
        <time>2014-05-02T14:15:00Z</time>
      </trkpt>
      <trkpt lat="50.59545" lon="1.81953">
        <ele>117.9</ele>
        <time>2014-05-02T14:15:07Z</time>
      </trkpt>
      <trkpt lat="50.59545" lon="1.81973">
        <ele>117.42</ele>
        <time>2014-05-02T14:15:14Z</time>
      </trkpt>
      <trkpt lat="50.59541" lon="1.81987">
        <ele>118.86</ele>
        <time>2014-05-02T14:15:19Z</time>
      </trkpt>
      <trkpt lat="50.59535" lon="1.82">
        <ele>116.94</ele>
        <time>2014-05-02T14:15:24Z</time>
      </trkpt>
      <trkpt lat="50.5953" lon="1.82013">
        <ele>116.46</ele>
        <time>2014-05-02T14:15:29Z</time>
      </trkpt>
      <trkpt lat="50.59525" lon="1.82025">
        <ele>115.01</ele>
        <time>2014-05-02T14:15:35Z</time>
      </trkpt>
      <trkpt lat="50.59521" lon="1.82039">
        <ele>114.05</ele>
        <time>2014-05-02T14:15:42Z</time>
      </trkpt>
      <trkpt lat="50.59517" lon="1.82053">
        <ele>112.61</ele>
        <time>2014-05-02T14:15:49Z</time>
      </trkpt>
      <trkpt lat="50.59513" lon="1.82068">
        <ele>110.69</ele>
        <time>2014-05-02T14:15:55Z</time>
      </trkpt>
      <trkpt lat="50.5951" lon="1.82083">
        <ele>109.25</ele>
        <time>2014-05-02T14:16:01Z</time>
      </trkpt>
      <trkpt lat="50.59507" lon="1.82098">
        <ele>107.32</ele>
        <time>2014-05-02T14:16:08Z</time>
      </trkpt>
      <trkpt lat="50.59504" lon="1.8211">
        <ele>105.4</ele>
        <time>2014-05-02T14:16:15Z</time>
      </trkpt>
      <trkpt lat="50.59497" lon="1.82123">
        <ele>103</ele>
        <time>2014-05-02T14:16:23Z</time>
      </trkpt>
      <trkpt lat="50.59489" lon="1.82131">
        <ele>100.6</ele>
        <time>2014-05-02T14:16:31Z</time>
      </trkpt>
      <trkpt lat="50.59481" lon="1.82139">
        <ele>99.63</ele>
        <time>2014-05-02T14:16:40Z</time>
      </trkpt>
      <trkpt lat="50.59473" lon="1.82151">
        <ele>94.83</ele>
        <time>2014-05-02T14:16:50Z</time>
      </trkpt>
      <trkpt lat="50.59465" lon="1.82169">
        <ele>93.87</ele>
        <time>2014-05-02T14:16:59Z</time>
      </trkpt>
      <trkpt lat="50.59459" lon="1.82185">
        <ele>91.46</ele>
        <time>2014-05-02T14:17:08Z</time>
      </trkpt>
      <trkpt lat="50.59452" lon="1.82198">
        <ele>89.54</ele>
        <time>2014-05-02T14:17:16Z</time>
      </trkpt>
      <trkpt lat="50.59444" lon="1.82214">
        <ele>87.14</ele>
        <time>2014-05-02T14:17:25Z</time>
      </trkpt>
      <trkpt lat="50.59438" lon="1.8223">
        <ele>85.69</ele>
        <time>2014-05-02T14:17:33Z</time>
      </trkpt>
      <trkpt lat="50.59431" lon="1.82245">
        <ele>83.29</ele>
        <time>2014-05-02T14:17:42Z</time>
      </trkpt>
      <trkpt lat="50.59426" lon="1.82261">
        <ele>81.85</ele>
        <time>2014-05-02T14:17:50Z</time>
      </trkpt>
      <trkpt lat="50.59422" lon="1.82273">
        <ele>80.89</ele>
        <time>2014-05-02T14:17:56Z</time>
      </trkpt>
      <trkpt lat="50.59416" lon="1.82287">
        <ele>79.45</ele>
        <time>2014-05-02T14:18:03Z</time>
      </trkpt>
      <trkpt lat="50.59411" lon="1.82304">
        <ele>77.52</ele>
        <time>2014-05-02T14:18:10Z</time>
      </trkpt>
      <trkpt lat="50.59408" lon="1.8232">
        <ele>76.08</ele>
        <time>2014-05-02T14:18:18Z</time>
      </trkpt>
      <trkpt lat="50.59404" lon="1.82336">
        <ele>74.64</ele>
        <time>2014-05-02T14:18:25Z</time>
      </trkpt>
      <trkpt lat="50.59403" lon="1.82352">
        <ele>71.76</ele>
        <time>2014-05-02T14:18:33Z</time>
      </trkpt>
      <trkpt lat="50.59401" lon="1.8237">
        <ele>70.31</ele>
        <time>2014-05-02T14:18:42Z</time>
      </trkpt>
      <trkpt lat="50.59391" lon="1.82386">
        <ele>69.35</ele>
        <time>2014-05-02T14:18:51Z</time>
      </trkpt>
      <trkpt lat="50.59381" lon="1.8239">
        <ele>67.43</ele>
        <time>2014-05-02T14:18:59Z</time>
      </trkpt>
      <trkpt lat="50.5937" lon="1.8239">
        <ele>67.43</ele>
        <time>2014-05-02T14:19:06Z</time>
      </trkpt>
      <trkpt lat="50.59358" lon="1.82391">
        <ele>65.51</ele>
        <time>2014-05-02T14:19:13Z</time>
      </trkpt>
      <trkpt lat="50.59345" lon="1.82391">
        <ele>64.55</ele>
        <time>2014-05-02T14:19:21Z</time>
      </trkpt>
      <trkpt lat="50.59333" lon="1.82388">
        <ele>64.55</ele>
        <time>2014-05-02T14:19:28Z</time>
      </trkpt>
      <trkpt lat="50.59321" lon="1.82383">
        <ele>63.58</ele>
        <time>2014-05-02T14:19:35Z</time>
      </trkpt>
      <trkpt lat="50.59308" lon="1.82377">
        <ele>63.1</ele>
        <time>2014-05-02T14:19:42Z</time>
      </trkpt>
      <trkpt lat="50.59297" lon="1.82376">
        <ele>63.1</ele>
        <time>2014-05-02T14:19:49Z</time>
      </trkpt>
      <trkpt lat="50.59285" lon="1.82375">
        <ele>62.62</ele>
        <time>2014-05-02T14:19:56Z</time>
      </trkpt>
      <trkpt lat="50.59274" lon="1.82373">
        <ele>62.62</ele>
        <time>2014-05-02T14:20:02Z</time>
      </trkpt>
      <trkpt lat="50.59263" lon="1.8237">
        <ele>62.14</ele>
        <time>2014-05-02T14:20:08Z</time>
      </trkpt>
      <trkpt lat="50.59251" lon="1.82366">
        <ele>61.66</ele>
        <time>2014-05-02T14:20:14Z</time>
      </trkpt>
      <trkpt lat="50.59241" lon="1.82363">
        <ele>61.66</ele>
        <time>2014-05-02T14:20:20Z</time>
      </trkpt>
      <trkpt lat="50.59229" lon="1.82359">
        <ele>60.7</ele>
        <time>2014-05-02T14:20:27Z</time>
      </trkpt>
      <trkpt lat="50.59218" lon="1.82357">
        <ele>61.18</ele>
        <time>2014-05-02T14:20:34Z</time>
      </trkpt>
      <trkpt lat="50.59206" lon="1.82352">
        <ele>60.22</ele>
        <time>2014-05-02T14:20:41Z</time>
      </trkpt>
      <trkpt lat="50.59195" lon="1.82349">
        <ele>60.22</ele>
        <time>2014-05-02T14:20:47Z</time>
      </trkpt>
      <trkpt lat="50.59184" lon="1.82347">
        <ele>60.7</ele>
        <time>2014-05-02T14:20:53Z</time>
      </trkpt>
      <trkpt lat="50.59172" lon="1.82342">
        <ele>60.22</ele>
        <time>2014-05-02T14:20:59Z</time>
      </trkpt>
      <trkpt lat="50.59163" lon="1.82339">
        <ele>60.22</ele>
        <time>2014-05-02T14:21:04Z</time>
      </trkpt>
      <trkpt lat="50.59151" lon="1.82334">
        <ele>60.7</ele>
        <time>2014-05-02T14:21:10Z</time>
      </trkpt>
      <trkpt lat="50.59141" lon="1.82331">
        <ele>59.74</ele>
        <time>2014-05-02T14:21:15Z</time>
      </trkpt>
      <trkpt lat="50.59131" lon="1.82329">
        <ele>59.26</ele>
        <time>2014-05-02T14:21:20Z</time>
      </trkpt>
      <trkpt lat="50.59119" lon="1.82327">
        <ele>59.74</ele>
        <time>2014-05-02T14:21:26Z</time>
      </trkpt>
      <trkpt lat="50.59108" lon="1.82325">
        <ele>59.74</ele>
        <time>2014-05-02T14:21:32Z</time>
      </trkpt>
      <trkpt lat="50.59097" lon="1.82325">
        <ele>59.26</ele>
        <time>2014-05-02T14:21:38Z</time>
      </trkpt>
      <trkpt lat="50.59086" lon="1.82326">
        <ele>59.26</ele>
        <time>2014-05-02T14:21:44Z</time>
      </trkpt>
      <trkpt lat="50.59074" lon="1.82327">
        <ele>59.74</ele>
        <time>2014-05-02T14:21:50Z</time>
      </trkpt>
      <trkpt lat="50.59065" lon="1.82328">
        <ele>59.74</ele>
        <time>2014-05-02T14:21:55Z</time>
      </trkpt>
      <trkpt lat="50.59052" lon="1.82328">
        <ele>59.74</ele>
        <time>2014-05-02T14:22:01Z</time>
      </trkpt>
      <trkpt lat="50.5904" lon="1.82332">
        <ele>59.26</ele>
        <time>2014-05-02T14:22:07Z</time>
      </trkpt>
      <trkpt lat="50.59029" lon="1.82337">
        <ele>58.78</ele>
        <time>2014-05-02T14:22:13Z</time>
      </trkpt>
      <trkpt lat="50.59017" lon="1.8234">
        <ele>59.26</ele>
        <time>2014-05-02T14:22:19Z</time>
      </trkpt>
      <trkpt lat="50.59003" lon="1.82342">
        <ele>59.74</ele>
        <time>2014-05-02T14:22:27Z</time>
      </trkpt>
      <trkpt lat="50.58991" lon="1.82344">
        <ele>58.78</ele>
        <time>2014-05-02T14:22:35Z</time>
      </trkpt>
      <trkpt lat="50.58981" lon="1.82346">
        <ele>58.78</ele>
        <time>2014-05-02T14:22:42Z</time>
      </trkpt>
      <trkpt lat="50.58965" lon="1.82358">
        <ele>59.26</ele>
        <time>2014-05-02T14:22:48Z</time>
      </trkpt>
      <trkpt lat="50.58953" lon="1.82366">
        <ele>58.78</ele>
        <time>2014-05-02T14:22:54Z</time>
      </trkpt>
      <trkpt lat="50.5894" lon="1.82371">
        <ele>60.22</ele>
        <time>2014-05-02T14:23:00Z</time>
      </trkpt>
      <trkpt lat="50.58929" lon="1.82374">
        <ele>60.22</ele>
        <time>2014-05-02T14:23:05Z</time>
      </trkpt>
      <trkpt lat="50.58918" lon="1.82377">
        <ele>59.74</ele>
        <time>2014-05-02T14:23:11Z</time>
      </trkpt>
      <trkpt lat="50.58908" lon="1.82381">
        <ele>60.22</ele>
        <time>2014-05-02T14:23:17Z</time>
      </trkpt>
      <trkpt lat="50.58897" lon="1.82388">
        <ele>59.74</ele>
        <time>2014-05-02T14:23:23Z</time>
      </trkpt>
      <trkpt lat="50.58887" lon="1.82392">
        <ele>59.74</ele>
        <time>2014-05-02T14:23:29Z</time>
      </trkpt>
      <trkpt lat="50.58876" lon="1.82393">
        <ele>59.26</ele>
        <time>2014-05-02T14:23:35Z</time>
      </trkpt>
      <trkpt lat="50.58866" lon="1.82395">
        <ele>58.78</ele>
        <time>2014-05-02T14:23:41Z</time>
      </trkpt>
      <trkpt lat="50.58852" lon="1.82394">
        <ele>58.78</ele>
        <time>2014-05-02T14:23:48Z</time>
      </trkpt>
      <trkpt lat="50.58838" lon="1.82397">
        <ele>58.78</ele>
        <time>2014-05-02T14:23:56Z</time>
      </trkpt>
      <trkpt lat="50.58825" lon="1.82395">
        <ele>58.3</ele>
        <time>2014-05-02T14:24:03Z</time>
      </trkpt>
      <trkpt lat="50.58811" lon="1.82399">
        <ele>58.3</ele>
        <time>2014-05-02T14:24:10Z</time>
      </trkpt>
      <trkpt lat="50.58799" lon="1.824">
        <ele>58.78</ele>
        <time>2014-05-02T14:24:16Z</time>
      </trkpt>
      <trkpt lat="50.58787" lon="1.82399">
        <ele>58.3</ele>
        <time>2014-05-02T14:24:23Z</time>
      </trkpt>
      <trkpt lat="50.58773" lon="1.824">
        <ele>58.78</ele>
        <time>2014-05-02T14:24:29Z</time>
      </trkpt>
      <trkpt lat="50.58761" lon="1.82399">
        <ele>58.3</ele>
        <time>2014-05-02T14:24:35Z</time>
      </trkpt>
      <trkpt lat="50.58747" lon="1.82395">
        <ele>58.78</ele>
        <time>2014-05-02T14:24:43Z</time>
      </trkpt>
      <trkpt lat="50.58733" lon="1.824">
        <ele>59.26</ele>
        <time>2014-05-02T14:24:53Z</time>
      </trkpt>
      <trkpt lat="50.58719" lon="1.82406">
        <ele>59.74</ele>
        <time>2014-05-02T14:25:03Z</time>
      </trkpt>
      <trkpt lat="50.58707" lon="1.82409">
        <ele>59.26</ele>
        <time>2014-05-02T14:25:12Z</time>
      </trkpt>
      <trkpt lat="50.58695" lon="1.8241">
        <ele>58.78</ele>
        <time>2014-05-02T14:25:19Z</time>
      </trkpt>
      <trkpt lat="50.58684" lon="1.82411">
        <ele>58.78</ele>
        <time>2014-05-02T14:25:28Z</time>
      </trkpt>
      <trkpt lat="50.58672" lon="1.82416">
        <ele>58.3</ele>
        <time>2014-05-02T14:25:36Z</time>
      </trkpt>
      <trkpt lat="50.58661" lon="1.82419">
        <ele>57.82</ele>
        <time>2014-05-02T14:25:42Z</time>
      </trkpt>
      <trkpt lat="50.58646" lon="1.82419">
        <ele>57.34</ele>
        <time>2014-05-02T14:25:48Z</time>
      </trkpt>
      <trkpt lat="50.58632" lon="1.82417">
        <ele>57.82</ele>
        <time>2014-05-02T14:25:53Z</time>
      </trkpt>
      <trkpt lat="50.58618" lon="1.82417">
        <ele>57.34</ele>
        <time>2014-05-02T14:25:59Z</time>
      </trkpt>
      <trkpt lat="50.58604" lon="1.82418">
        <ele>56.37</ele>
        <time>2014-05-02T14:26:05Z</time>
      </trkpt>
      <trkpt lat="50.58592" lon="1.82419">
        <ele>58.3</ele>
        <time>2014-05-02T14:26:11Z</time>
      </trkpt>
      <trkpt lat="50.58579" lon="1.82412">
        <ele>57.82</ele>
        <time>2014-05-02T14:26:16Z</time>
      </trkpt>
      <trkpt lat="50.58559" lon="1.82403">
        <ele>57.34</ele>
        <time>2014-05-02T14:26:22Z</time>
      </trkpt>
      <trkpt lat="50.58546" lon="1.824">
        <ele>57.82</ele>
        <time>2014-05-02T14:26:28Z</time>
      </trkpt>
      <trkpt lat="50.58533" lon="1.82393">
        <ele>58.78</ele>
        <time>2014-05-02T14:26:37Z</time>
      </trkpt>
      <trkpt lat="50.58522" lon="1.82393">
        <ele>58.78</ele>
        <time>2014-05-02T14:26:45Z</time>
      </trkpt>
      <trkpt lat="50.58511" lon="1.82385">
        <ele>59.26</ele>
        <time>2014-05-02T14:26:55Z</time>
      </trkpt>
      <trkpt lat="50.58501" lon="1.82373">
        <ele>60.22</ele>
        <time>2014-05-02T14:27:03Z</time>
      </trkpt>
      <trkpt lat="50.5849" lon="1.82366">
        <ele>61.66</ele>
        <time>2014-05-02T14:27:12Z</time>
      </trkpt>
      <trkpt lat="50.58479" lon="1.82356">
        <ele>62.62</ele>
        <time>2014-05-02T14:27:20Z</time>
      </trkpt>
      <trkpt lat="50.58461" lon="1.8233">
        <ele>62.62</ele>
        <time>2014-05-02T14:27:29Z</time>
      </trkpt>
      <trkpt lat="50.58451" lon="1.82317">
        <ele>61.18</ele>
        <time>2014-05-02T14:27:34Z</time>
      </trkpt>
      <trkpt lat="50.58438" lon="1.82307">
        <ele>60.22</ele>
        <time>2014-05-02T14:27:43Z</time>
      </trkpt>
      <trkpt lat="50.58424" lon="1.82294">
        <ele>59.74</ele>
        <time>2014-05-02T14:27:51Z</time>
      </trkpt>
      <trkpt lat="50.58413" lon="1.82281">
        <ele>58.3</ele>
        <time>2014-05-02T14:27:58Z</time>
      </trkpt>
      <trkpt lat="50.58404" lon="1.82269">
        <ele>56.86</ele>
        <time>2014-05-02T14:28:04Z</time>
      </trkpt>
      <trkpt lat="50.58396" lon="1.82257">
        <ele>55.41</ele>
        <time>2014-05-02T14:28:10Z</time>
      </trkpt>
      <trkpt lat="50.58387" lon="1.82244">
        <ele>54.45</ele>
        <time>2014-05-02T14:28:17Z</time>
      </trkpt>
      <trkpt lat="50.58379" lon="1.82228">
        <ele>53.01</ele>
        <time>2014-05-02T14:28:24Z</time>
      </trkpt>
      <trkpt lat="50.5837" lon="1.82213">
        <ele>52.05</ele>
        <time>2014-05-02T14:28:32Z</time>
      </trkpt>
      <trkpt lat="50.58361" lon="1.82194">
        <ele>50.13</ele>
        <time>2014-05-02T14:28:40Z</time>
      </trkpt>
      <trkpt lat="50.58352" lon="1.82182">
        <ele>50.13</ele>
        <time>2014-05-02T14:28:46Z</time>
      </trkpt>
      <trkpt lat="50.58344" lon="1.82169">
        <ele>49.16</ele>
        <time>2014-05-02T14:28:53Z</time>
      </trkpt>
      <trkpt lat="50.58336" lon="1.82156">
        <ele>49.16</ele>
        <time>2014-05-02T14:29:23Z</time>
      </trkpt>
      <trkpt lat="50.58322" lon="1.82153">
        <ele>48.68</ele>
        <time>2014-05-02T14:29:35Z</time>
      </trkpt>
      <trkpt lat="50.5831" lon="1.82152">
        <ele>48.2</ele>
        <time>2014-05-02T14:29:44Z</time>
      </trkpt>
      <trkpt lat="50.58287" lon="1.82145">
        <ele>48.2</ele>
        <time>2014-05-02T14:29:56Z</time>
      </trkpt>
      <trkpt lat="50.58273" lon="1.82151">
        <ele>48.68</ele>
        <time>2014-05-02T14:30:03Z</time>
      </trkpt>
      <trkpt lat="50.58259" lon="1.82161">
        <ele>48.68</ele>
        <time>2014-05-02T14:30:11Z</time>
      </trkpt>
      <trkpt lat="50.5825" lon="1.82174">
        <ele>48.2</ele>
        <time>2014-05-02T14:30:18Z</time>
      </trkpt>
      <trkpt lat="50.5824" lon="1.82182">
        <ele>48.2</ele>
        <time>2014-05-02T14:30:25Z</time>
      </trkpt>
      <trkpt lat="50.58229" lon="1.82189">
        <ele>48.68</ele>
        <time>2014-05-02T14:30:32Z</time>
      </trkpt>
      <trkpt lat="50.58218" lon="1.82194">
        <ele>48.2</ele>
        <time>2014-05-02T14:30:38Z</time>
      </trkpt>
      <trkpt lat="50.58201" lon="1.82196">
        <ele>48.2</ele>
        <time>2014-05-02T14:30:44Z</time>
      </trkpt>
      <trkpt lat="50.58191" lon="1.82202">
        <ele>48.68</ele>
        <time>2014-05-02T14:30:50Z</time>
      </trkpt>
      <trkpt lat="50.5818" lon="1.82207">
        <ele>47.72</ele>
        <time>2014-05-02T14:30:56Z</time>
      </trkpt>
      <trkpt lat="50.58169" lon="1.82212">
        <ele>48.2</ele>
        <time>2014-05-02T14:31:02Z</time>
      </trkpt>
      <trkpt lat="50.58159" lon="1.82219">
        <ele>48.2</ele>
        <time>2014-05-02T14:31:08Z</time>
      </trkpt>
      <trkpt lat="50.58149" lon="1.82228">
        <ele>49.16</ele>
        <time>2014-05-02T14:31:14Z</time>
      </trkpt>
      <trkpt lat="50.5814" lon="1.82235">
        <ele>49.65</ele>
        <time>2014-05-02T14:31:20Z</time>
      </trkpt>
      <trkpt lat="50.58129" lon="1.82242">
        <ele>49.16</ele>
        <time>2014-05-02T14:31:27Z</time>
      </trkpt>
      <trkpt lat="50.58117" lon="1.8225">
        <ele>50.13</ele>
        <time>2014-05-02T14:31:35Z</time>
      </trkpt>
      <trkpt lat="50.58107" lon="1.82257">
        <ele>50.61</ele>
        <time>2014-05-02T14:31:41Z</time>
      </trkpt>
      <trkpt lat="50.58096" lon="1.82262">
        <ele>51.09</ele>
        <time>2014-05-02T14:31:48Z</time>
      </trkpt>
      <trkpt lat="50.58086" lon="1.82269">
        <ele>51.09</ele>
        <time>2014-05-02T14:31:55Z</time>
      </trkpt>
      <trkpt lat="50.58078" lon="1.82278">
        <ele>52.05</ele>
        <time>2014-05-02T14:32:03Z</time>
      </trkpt>
      <trkpt lat="50.5806" lon="1.82291">
        <ele>52.53</ele>
        <time>2014-05-02T14:32:12Z</time>
      </trkpt>
      <trkpt lat="50.58046" lon="1.82296">
        <ele>53.49</ele>
        <time>2014-05-02T14:32:22Z</time>
      </trkpt>
      <trkpt lat="50.58035" lon="1.82301">
        <ele>55.41</ele>
        <time>2014-05-02T14:32:31Z</time>
      </trkpt>
      <trkpt lat="50.58012" lon="1.82298">
        <ele>57.82</ele>
        <time>2014-05-02T14:32:43Z</time>
      </trkpt>
      <trkpt lat="50.58002" lon="1.82299">
        <ele>57.82</ele>
        <time>2014-05-02T14:32:50Z</time>
      </trkpt>
      <trkpt lat="50.57994" lon="1.82287">
        <ele>56.86</ele>
        <time>2014-05-02T14:33:25Z</time>
      </trkpt>
      <trkpt lat="50.57986" lon="1.82284">
        <ele>56.37</ele>
        <time>2014-05-02T14:33:34Z</time>
      </trkpt>
      <trkpt lat="50.57975" lon="1.82286">
        <ele>56.86</ele>
        <time>2014-05-02T14:33:44Z</time>
      </trkpt>
      <trkpt lat="50.57966" lon="1.82289">
        <ele>58.3</ele>
        <time>2014-05-02T14:33:53Z</time>
      </trkpt>
      <trkpt lat="50.57956" lon="1.82292">
        <ele>58.3</ele>
        <time>2014-05-02T14:34:01Z</time>
      </trkpt>
      <trkpt lat="50.57943" lon="1.82297">
        <ele>58.3</ele>
        <time>2014-05-02T14:34:09Z</time>
      </trkpt>
      <trkpt lat="50.5793" lon="1.82301">
        <ele>59.26</ele>
        <time>2014-05-02T14:34:18Z</time>
      </trkpt>
      <trkpt lat="50.5792" lon="1.82307">
        <ele>59.26</ele>
        <time>2014-05-02T14:34:26Z</time>
      </trkpt>
      <trkpt lat="50.57909" lon="1.82313">
        <ele>60.7</ele>
        <time>2014-05-02T14:34:35Z</time>
      </trkpt>
      <trkpt lat="50.57897" lon="1.82318">
        <ele>61.18</ele>
        <time>2014-05-02T14:34:43Z</time>
      </trkpt>
      <trkpt lat="50.57886" lon="1.8232">
        <ele>61.18</ele>
        <time>2014-05-02T14:34:52Z</time>
      </trkpt>
      <trkpt lat="50.57875" lon="1.82322">
        <ele>60.7</ele>
        <time>2014-05-02T14:35:00Z</time>
      </trkpt>
      <trkpt lat="50.57865" lon="1.82327">
        <ele>61.18</ele>
        <time>2014-05-02T14:35:08Z</time>
      </trkpt>
      <trkpt lat="50.57855" lon="1.82331">
        <ele>61.18</ele>
        <time>2014-05-02T14:35:16Z</time>
      </trkpt>
      <trkpt lat="50.57845" lon="1.82337">
        <ele>59.74</ele>
        <time>2014-05-02T14:35:24Z</time>
      </trkpt>
      <trkpt lat="50.57833" lon="1.8234">
        <ele>61.66</ele>
        <time>2014-05-02T14:35:32Z</time>
      </trkpt>
      <trkpt lat="50.57821" lon="1.82345">
        <ele>60.22</ele>
        <time>2014-05-02T14:35:40Z</time>
      </trkpt>
      <trkpt lat="50.57811" lon="1.82349">
        <ele>61.66</ele>
        <time>2014-05-02T14:35:48Z</time>
      </trkpt>
      <trkpt lat="50.57801" lon="1.82354">
        <ele>60.7</ele>
        <time>2014-05-02T14:35:56Z</time>
      </trkpt>
      <trkpt lat="50.57789" lon="1.8236">
        <ele>61.18</ele>
        <time>2014-05-02T14:36:05Z</time>
      </trkpt>
      <trkpt lat="50.57779" lon="1.82365">
        <ele>61.18</ele>
        <time>2014-05-02T14:36:14Z</time>
      </trkpt>
      <trkpt lat="50.57768" lon="1.82372">
        <ele>60.7</ele>
        <time>2014-05-02T14:36:23Z</time>
      </trkpt>
      <trkpt lat="50.57757" lon="1.82378">
        <ele>59.26</ele>
        <time>2014-05-02T14:36:32Z</time>
      </trkpt>
      <trkpt lat="50.57747" lon="1.82386">
        <ele>62.14</ele>
        <time>2014-05-02T14:36:42Z</time>
      </trkpt>
      <trkpt lat="50.57734" lon="1.82391">
        <ele>61.18</ele>
        <time>2014-05-02T14:36:50Z</time>
      </trkpt>
      <trkpt lat="50.57726" lon="1.82397">
        <ele>61.66</ele>
        <time>2014-05-02T14:36:57Z</time>
      </trkpt>
      <trkpt lat="50.57717" lon="1.82401">
        <ele>61.18</ele>
        <time>2014-05-02T14:37:04Z</time>
      </trkpt>
      <trkpt lat="50.57708" lon="1.82406">
        <ele>61.18</ele>
        <time>2014-05-02T14:37:12Z</time>
      </trkpt>
      <trkpt lat="50.57696" lon="1.82412">
        <ele>62.14</ele>
        <time>2014-05-02T14:37:20Z</time>
      </trkpt>
      <trkpt lat="50.57684" lon="1.82417">
        <ele>61.66</ele>
        <time>2014-05-02T14:37:30Z</time>
      </trkpt>
      <trkpt lat="50.57673" lon="1.82422">
        <ele>60.7</ele>
        <time>2014-05-02T14:37:39Z</time>
      </trkpt>
      <trkpt lat="50.57661" lon="1.82428">
        <ele>62.14</ele>
        <time>2014-05-02T14:37:47Z</time>
      </trkpt>
      <trkpt lat="50.57648" lon="1.82435">
        <ele>62.14</ele>
        <time>2014-05-02T14:37:57Z</time>
      </trkpt>
      <trkpt lat="50.57637" lon="1.82441">
        <ele>60.7</ele>
        <time>2014-05-02T14:38:05Z</time>
      </trkpt>
      <trkpt lat="50.57626" lon="1.82446">
        <ele>60.7</ele>
        <time>2014-05-02T14:38:13Z</time>
      </trkpt>
      <trkpt lat="50.57614" lon="1.8245">
        <ele>59.74</ele>
        <time>2014-05-02T14:38:21Z</time>
      </trkpt>
      <trkpt lat="50.57602" lon="1.82454">
        <ele>58.3</ele>
        <time>2014-05-02T14:38:30Z</time>
      </trkpt>
      <trkpt lat="50.57591" lon="1.82457">
        <ele>58.78</ele>
        <time>2014-05-02T14:38:39Z</time>
      </trkpt>
      <trkpt lat="50.57579" lon="1.82459">
        <ele>56.86</ele>
        <time>2014-05-02T14:38:48Z</time>
      </trkpt>
      <trkpt lat="50.57568" lon="1.82458">
        <ele>56.37</ele>
        <time>2014-05-02T14:38:58Z</time>
      </trkpt>
      <trkpt lat="50.57557" lon="1.8246">
        <ele>55.41</ele>
        <time>2014-05-02T14:40:17Z</time>
      </trkpt>
      <trkpt lat="50.57547" lon="1.82459">
        <ele>55.89</ele>
        <time>2014-05-02T14:40:24Z</time>
      </trkpt>
      <trkpt lat="50.57538" lon="1.82458">
        <ele>53.97</ele>
        <time>2014-05-02T14:40:31Z</time>
      </trkpt>
      <trkpt lat="50.57526" lon="1.82455">
        <ele>53.49</ele>
        <time>2014-05-02T14:40:38Z</time>
      </trkpt>
      <trkpt lat="50.57516" lon="1.82451">
        <ele>52.05</ele>
        <time>2014-05-02T14:40:44Z</time>
      </trkpt>
      <trkpt lat="50.57506" lon="1.82443">
        <ele>52.05</ele>
        <time>2014-05-02T14:40:51Z</time>
      </trkpt>
      <trkpt lat="50.57496" lon="1.82439">
        <ele>49.65</ele>
        <time>2014-05-02T14:40:58Z</time>
      </trkpt>
      <trkpt lat="50.57486" lon="1.82435">
        <ele>49.16</ele>
        <time>2014-05-02T14:41:05Z</time>
      </trkpt>
      <trkpt lat="50.57476" lon="1.82428">
        <ele>48.68</ele>
        <time>2014-05-02T14:41:13Z</time>
      </trkpt>
      <trkpt lat="50.57466" lon="1.82423">
        <ele>47.72</ele>
        <time>2014-05-02T14:41:20Z</time>
      </trkpt>
      <trkpt lat="50.57455" lon="1.82417">
        <ele>47.72</ele>
        <time>2014-05-02T14:41:28Z</time>
      </trkpt>
      <trkpt lat="50.57443" lon="1.82415">
        <ele>47.24</ele>
        <time>2014-05-02T14:41:36Z</time>
      </trkpt>
      <trkpt lat="50.57433" lon="1.82419">
        <ele>46.76</ele>
        <time>2014-05-02T14:41:49Z</time>
      </trkpt>
      <trkpt lat="50.57427" lon="1.82432">
        <ele>47.24</ele>
        <time>2014-05-02T14:41:59Z</time>
      </trkpt>
      <trkpt lat="50.57427" lon="1.82452">
        <ele>46.76</ele>
        <time>2014-05-02T14:42:08Z</time>
      </trkpt>
      <trkpt lat="50.5743" lon="1.82471">
        <ele>46.76</ele>
        <time>2014-05-02T14:42:17Z</time>
      </trkpt>
      <trkpt lat="50.57432" lon="1.82485">
        <ele>46.28</ele>
        <time>2014-05-02T14:42:25Z</time>
      </trkpt>
      <trkpt lat="50.57435" lon="1.82501">
        <ele>44.84</ele>
        <time>2014-05-02T14:42:32Z</time>
      </trkpt>
      <trkpt lat="50.57442" lon="1.82516">
        <ele>46.28</ele>
        <time>2014-05-02T14:42:39Z</time>
      </trkpt>
      <trkpt lat="50.5745" lon="1.8253">
        <ele>46.76</ele>
        <time>2014-05-02T14:42:46Z</time>
      </trkpt>
      <trkpt lat="50.57458" lon="1.82547">
        <ele>45.8</ele>
        <time>2014-05-02T14:42:55Z</time>
      </trkpt>
      <trkpt lat="50.57464" lon="1.82561">
        <ele>45.32</ele>
        <time>2014-05-02T14:43:04Z</time>
      </trkpt>
      <trkpt lat="50.57467" lon="1.82579">
        <ele>45.32</ele>
        <time>2014-05-02T14:43:12Z</time>
      </trkpt>
      <trkpt lat="50.57471" lon="1.82595">
        <ele>44.36</ele>
        <time>2014-05-02T14:43:20Z</time>
      </trkpt>
      <trkpt lat="50.57475" lon="1.82617">
        <ele>44.84</ele>
        <time>2014-05-02T14:43:28Z</time>
      </trkpt>
      <trkpt lat="50.57478" lon="1.82636">
        <ele>44.36</ele>
        <time>2014-05-02T14:43:36Z</time>
      </trkpt>
      <trkpt lat="50.57481" lon="1.82653">
        <ele>44.36</ele>
        <time>2014-05-02T14:43:44Z</time>
      </trkpt>
      <trkpt lat="50.57485" lon="1.82672">
        <ele>42.92</ele>
        <time>2014-05-02T14:43:52Z</time>
      </trkpt>
      <trkpt lat="50.57489" lon="1.82689">
        <ele>42.92</ele>
        <time>2014-05-02T14:44:00Z</time>
      </trkpt>
      <trkpt lat="50.57492" lon="1.82705">
        <ele>43.4</ele>
        <time>2014-05-02T14:44:08Z</time>
      </trkpt>
      <trkpt lat="50.57495" lon="1.82727">
        <ele>42.44</ele>
        <time>2014-05-02T14:44:15Z</time>
      </trkpt>
      <trkpt lat="50.57501" lon="1.82743">
        <ele>41.95</ele>
        <time>2014-05-02T14:44:24Z</time>
      </trkpt>
      <trkpt lat="50.57502" lon="1.8276">
        <ele>41.47</ele>
        <time>2014-05-02T14:44:31Z</time>
      </trkpt>
      <trkpt lat="50.57504" lon="1.82783">
        <ele>42.44</ele>
        <time>2014-05-02T14:44:38Z</time>
      </trkpt>
      <trkpt lat="50.57507" lon="1.82801">
        <ele>40.99</ele>
        <time>2014-05-02T14:44:46Z</time>
      </trkpt>
      <trkpt lat="50.57511" lon="1.82814">
        <ele>40.51</ele>
        <time>2014-05-02T14:44:53Z</time>
      </trkpt>
      <trkpt lat="50.5751" lon="1.82831">
        <ele>41.95</ele>
        <time>2014-05-02T14:45:01Z</time>
      </trkpt>
      <trkpt lat="50.57511" lon="1.8285">
        <ele>41.47</ele>
        <time>2014-05-02T14:45:09Z</time>
      </trkpt>
      <trkpt lat="50.57513" lon="1.82868">
        <ele>40.99</ele>
        <time>2014-05-02T14:45:17Z</time>
      </trkpt>
      <trkpt lat="50.57513" lon="1.82887">
        <ele>42.92</ele>
        <time>2014-05-02T14:45:26Z</time>
      </trkpt>
      <trkpt lat="50.57517" lon="1.82903">
        <ele>43.4</ele>
        <time>2014-05-02T14:45:33Z</time>
      </trkpt>
      <trkpt lat="50.57525" lon="1.82915">
        <ele>42.92</ele>
        <time>2014-05-02T14:45:40Z</time>
      </trkpt>
      <trkpt lat="50.57534" lon="1.82925">
        <ele>42.44</ele>
        <time>2014-05-02T14:45:48Z</time>
      </trkpt>
      <trkpt lat="50.57543" lon="1.82929">
        <ele>42.44</ele>
        <time>2014-05-02T14:45:58Z</time>
      </trkpt>
      <trkpt lat="50.57553" lon="1.82932">
        <ele>40.51</ele>
        <time>2014-05-02T14:46:18Z</time>
      </trkpt>
      <trkpt lat="50.57563" lon="1.82936">
        <ele>40.99</ele>
        <time>2014-05-02T14:46:26Z</time>
      </trkpt>
      <trkpt lat="50.57574" lon="1.82942">
        <ele>40.99</ele>
        <time>2014-05-02T14:46:34Z</time>
      </trkpt>
      <trkpt lat="50.57584" lon="1.82949">
        <ele>40.99</ele>
        <time>2014-05-02T14:46:42Z</time>
      </trkpt>
      <trkpt lat="50.57595" lon="1.82949">
        <ele>41.95</ele>
        <time>2014-05-02T14:46:50Z</time>
      </trkpt>
      <trkpt lat="50.576" lon="1.82939">
        <ele>41.95</ele>
        <time>2014-05-02T14:47:24Z</time>
      </trkpt>
      <trkpt lat="50.57605" lon="1.82921">
        <ele>40.51</ele>
        <time>2014-05-02T14:47:35Z</time>
      </trkpt>
      <trkpt lat="50.576" lon="1.82898">
        <ele>41.47</ele>
        <time>2014-05-02T14:47:43Z</time>
      </trkpt>
      <trkpt lat="50.57603" lon="1.82899">
        <ele>41.47</ele>
        <time>2014-05-02T14:48:53Z</time>
      </trkpt>
      <trkpt lat="50.57596" lon="1.82909">
        <ele>41.95</ele>
        <time>2014-05-02T14:49:11Z</time>
      </trkpt>
      <trkpt lat="50.57597" lon="1.82929">
        <ele>41.95</ele>
        <time>2014-05-02T14:49:18Z</time>
      </trkpt>
      <trkpt lat="50.576" lon="1.82951">
        <ele>42.92</ele>
        <time>2014-05-02T14:49:30Z</time>
      </trkpt>
      <trkpt lat="50.57607" lon="1.82962">
        <ele>42.92</ele>
        <time>2014-05-02T14:49:39Z</time>
      </trkpt>
      <trkpt lat="50.57615" lon="1.82973">
        <ele>43.4</ele>
        <time>2014-05-02T14:49:46Z</time>
      </trkpt>
      <trkpt lat="50.57617" lon="1.8299">
        <ele>43.88</ele>
        <time>2014-05-02T14:49:54Z</time>
      </trkpt>
      <trkpt lat="50.57608" lon="1.83007">
        <ele>43.88</ele>
        <time>2014-05-02T14:50:01Z</time>
      </trkpt>
      <trkpt lat="50.576" lon="1.83014">
        <ele>43.88</ele>
        <time>2014-05-02T14:50:07Z</time>
      </trkpt>
      <trkpt lat="50.57592" lon="1.83021">
        <ele>42.92</ele>
        <time>2014-05-02T14:50:13Z</time>
      </trkpt>
      <trkpt lat="50.57583" lon="1.83026">
        <ele>42.92</ele>
        <time>2014-05-02T14:50:20Z</time>
      </trkpt>
      <trkpt lat="50.57571" lon="1.83039">
        <ele>42.44</ele>
        <time>2014-05-02T14:50:26Z</time>
      </trkpt>
      <trkpt lat="50.57565" lon="1.8304">
        <ele>42.92</ele>
        <time>2014-05-02T14:50:35Z</time>
      </trkpt>
      <trkpt lat="50.57557" lon="1.83052">
        <ele>40.99</ele>
        <time>2014-05-02T14:50:55Z</time>
      </trkpt>
      <trkpt lat="50.5755" lon="1.83064">
        <ele>40.99</ele>
        <time>2014-05-02T14:51:01Z</time>
      </trkpt>
      <trkpt lat="50.57542" lon="1.83074">
        <ele>41.95</ele>
        <time>2014-05-02T14:51:08Z</time>
      </trkpt>
      <trkpt lat="50.57529" lon="1.83085">
        <ele>40.99</ele>
        <time>2014-05-02T14:51:16Z</time>
      </trkpt>
      <trkpt lat="50.57518" lon="1.83092">
        <ele>42.92</ele>
        <time>2014-05-02T14:51:23Z</time>
      </trkpt>
      <trkpt lat="50.57509" lon="1.83098">
        <ele>41.95</ele>
        <time>2014-05-02T14:51:29Z</time>
      </trkpt>
      <trkpt lat="50.575" lon="1.83106">
        <ele>42.44</ele>
        <time>2014-05-02T14:51:35Z</time>
      </trkpt>
      <trkpt lat="50.57489" lon="1.83115">
        <ele>42.44</ele>
        <time>2014-05-02T14:51:42Z</time>
      </trkpt>
      <trkpt lat="50.57481" lon="1.83122">
        <ele>43.4</ele>
        <time>2014-05-02T14:51:48Z</time>
      </trkpt>
      <trkpt lat="50.57473" lon="1.8313">
        <ele>43.4</ele>
        <time>2014-05-02T14:51:54Z</time>
      </trkpt>
      <trkpt lat="50.57464" lon="1.83137">
        <ele>43.4</ele>
        <time>2014-05-02T14:52:00Z</time>
      </trkpt>
      <trkpt lat="50.57455" lon="1.83144">
        <ele>42.92</ele>
        <time>2014-05-02T14:52:06Z</time>
      </trkpt>
      <trkpt lat="50.57445" lon="1.83152">
        <ele>42.92</ele>
        <time>2014-05-02T14:52:13Z</time>
      </trkpt>
      <trkpt lat="50.57436" lon="1.83159">
        <ele>43.4</ele>
        <time>2014-05-02T14:52:19Z</time>
      </trkpt>
      <trkpt lat="50.57427" lon="1.83165">
        <ele>42.92</ele>
        <time>2014-05-02T14:52:25Z</time>
      </trkpt>
      <trkpt lat="50.57418" lon="1.83171">
        <ele>43.4</ele>
        <time>2014-05-02T14:52:31Z</time>
      </trkpt>
      <trkpt lat="50.57414" lon="1.83174">
        <ele>44.36</ele>
        <time>2014-05-02T14:52:59Z</time>
      </trkpt>
      <trkpt lat="50.57402" lon="1.83186">
        <ele>45.8</ele>
        <time>2014-05-02T14:53:07Z</time>
      </trkpt>
      <trkpt lat="50.57392" lon="1.83196">
        <ele>45.32</ele>
        <time>2014-05-02T14:53:14Z</time>
      </trkpt>
      <trkpt lat="50.57381" lon="1.83204">
        <ele>46.28</ele>
        <time>2014-05-02T14:53:21Z</time>
      </trkpt>
      <trkpt lat="50.57367" lon="1.8321">
        <ele>46.76</ele>
        <time>2014-05-02T14:53:29Z</time>
      </trkpt>
      <trkpt lat="50.57356" lon="1.83217">
        <ele>47.24</ele>
        <time>2014-05-02T14:53:35Z</time>
      </trkpt>
      <trkpt lat="50.57346" lon="1.83222">
        <ele>48.2</ele>
        <time>2014-05-02T14:53:42Z</time>
      </trkpt>
      <trkpt lat="50.57337" lon="1.83228">
        <ele>48.68</ele>
        <time>2014-05-02T14:53:48Z</time>
      </trkpt>
      <trkpt lat="50.57329" lon="1.83237">
        <ele>49.65</ele>
        <time>2014-05-02T14:53:54Z</time>
      </trkpt>
      <trkpt lat="50.57321" lon="1.83245">
        <ele>50.13</ele>
        <time>2014-05-02T14:54:00Z</time>
      </trkpt>
      <trkpt lat="50.57312" lon="1.83255">
        <ele>50.13</ele>
        <time>2014-05-02T14:54:06Z</time>
      </trkpt>
      <trkpt lat="50.57305" lon="1.83264">
        <ele>51.57</ele>
        <time>2014-05-02T14:54:11Z</time>
      </trkpt>
      <trkpt lat="50.57298" lon="1.83275">
        <ele>51.57</ele>
        <time>2014-05-02T14:54:17Z</time>
      </trkpt>
      <trkpt lat="50.5729" lon="1.83286">
        <ele>52.05</ele>
        <time>2014-05-02T14:54:24Z</time>
      </trkpt>
      <trkpt lat="50.57285" lon="1.83301">
        <ele>52.53</ele>
        <time>2014-05-02T14:54:30Z</time>
      </trkpt>
      <trkpt lat="50.57281" lon="1.83315">
        <ele>53.01</ele>
        <time>2014-05-02T14:54:36Z</time>
      </trkpt>
      <trkpt lat="50.57278" lon="1.83331">
        <ele>53.01</ele>
        <time>2014-05-02T14:54:41Z</time>
      </trkpt>
      <trkpt lat="50.57276" lon="1.83347">
        <ele>53.49</ele>
        <time>2014-05-02T14:54:47Z</time>
      </trkpt>
      <trkpt lat="50.57274" lon="1.83363">
        <ele>53.01</ele>
        <time>2014-05-02T14:54:53Z</time>
      </trkpt>
      <trkpt lat="50.57274" lon="1.83379">
        <ele>53.97</ele>
        <time>2014-05-02T14:54:59Z</time>
      </trkpt>
      <trkpt lat="50.57274" lon="1.83396">
        <ele>53.97</ele>
        <time>2014-05-02T14:55:06Z</time>
      </trkpt>
      <trkpt lat="50.57272" lon="1.83411">
        <ele>53.01</ele>
        <time>2014-05-02T14:55:12Z</time>
      </trkpt>
      <trkpt lat="50.57271" lon="1.83428">
        <ele>53.01</ele>
        <time>2014-05-02T14:55:18Z</time>
      </trkpt>
      <trkpt lat="50.5727" lon="1.83447">
        <ele>53.49</ele>
        <time>2014-05-02T14:55:24Z</time>
      </trkpt>
      <trkpt lat="50.57271" lon="1.83463">
        <ele>53.97</ele>
        <time>2014-05-02T14:55:30Z</time>
      </trkpt>
      <trkpt lat="50.57272" lon="1.83481">
        <ele>53.01</ele>
        <time>2014-05-02T14:55:36Z</time>
      </trkpt>
      <trkpt lat="50.57272" lon="1.83495">
        <ele>54.45</ele>
        <time>2014-05-02T14:55:41Z</time>
      </trkpt>
      <trkpt lat="50.57274" lon="1.8351">
        <ele>54.45</ele>
        <time>2014-05-02T14:55:47Z</time>
      </trkpt>
      <trkpt lat="50.57274" lon="1.83525">
        <ele>54.93</ele>
        <time>2014-05-02T14:55:53Z</time>
      </trkpt>
      <trkpt lat="50.57268" lon="1.83543">
        <ele>52.53</ele>
        <time>2014-05-02T14:56:03Z</time>
      </trkpt>
      <trkpt lat="50.57258" lon="1.83547">
        <ele>51.57</ele>
        <time>2014-05-02T14:56:10Z</time>
      </trkpt>
      <trkpt lat="50.5725" lon="1.83553">
        <ele>50.61</ele>
        <time>2014-05-02T14:56:16Z</time>
      </trkpt>
      <trkpt lat="50.57238" lon="1.83563">
        <ele>49.16</ele>
        <time>2014-05-02T14:56:22Z</time>
      </trkpt>
      <trkpt lat="50.57227" lon="1.83572">
        <ele>47.72</ele>
        <time>2014-05-02T14:56:29Z</time>
      </trkpt>
      <trkpt lat="50.57217" lon="1.83574">
        <ele>47.24</ele>
        <time>2014-05-02T14:56:37Z</time>
      </trkpt>
      <trkpt lat="50.57206" lon="1.8358">
        <ele>45.8</ele>
        <time>2014-05-02T14:56:45Z</time>
      </trkpt>
      <trkpt lat="50.57194" lon="1.83587">
        <ele>45.8</ele>
        <time>2014-05-02T14:56:57Z</time>
      </trkpt>
      <trkpt lat="50.57187" lon="1.83602">
        <ele>44.36</ele>
        <time>2014-05-02T14:57:08Z</time>
      </trkpt>
      <trkpt lat="50.57184" lon="1.83621">
        <ele>44.84</ele>
        <time>2014-05-02T14:57:15Z</time>
      </trkpt>
      <trkpt lat="50.5718" lon="1.83635">
        <ele>44.36</ele>
        <time>2014-05-02T14:57:21Z</time>
      </trkpt>
      <trkpt lat="50.57175" lon="1.83649">
        <ele>44.84</ele>
        <time>2014-05-02T14:57:27Z</time>
      </trkpt>
      <trkpt lat="50.5717" lon="1.83662">
        <ele>44.84</ele>
        <time>2014-05-02T14:57:33Z</time>
      </trkpt>
      <trkpt lat="50.57164" lon="1.83676">
        <ele>46.28</ele>
        <time>2014-05-02T14:57:39Z</time>
      </trkpt>
      <trkpt lat="50.57157" lon="1.8369">
        <ele>45.32</ele>
        <time>2014-05-02T14:57:45Z</time>
      </trkpt>
      <trkpt lat="50.5715" lon="1.83705">
        <ele>43.88</ele>
        <time>2014-05-02T14:57:51Z</time>
      </trkpt>
      <trkpt lat="50.57142" lon="1.83718">
        <ele>43.4</ele>
        <time>2014-05-02T14:57:57Z</time>
      </trkpt>
      <trkpt lat="50.57135" lon="1.83731">
        <ele>43.88</ele>
        <time>2014-05-02T14:58:03Z</time>
      </trkpt>
      <trkpt lat="50.57127" lon="1.83741">
        <ele>42.92</ele>
        <time>2014-05-02T14:58:09Z</time>
      </trkpt>
      <trkpt lat="50.57119" lon="1.83748">
        <ele>43.88</ele>
        <time>2014-05-02T14:58:15Z</time>
      </trkpt>
      <trkpt lat="50.57109" lon="1.83751">
        <ele>44.36</ele>
        <time>2014-05-02T14:58:21Z</time>
      </trkpt>
      <trkpt lat="50.571" lon="1.83756">
        <ele>44.84</ele>
        <time>2014-05-02T14:58:27Z</time>
      </trkpt>
      <trkpt lat="50.5709" lon="1.83761">
        <ele>45.32</ele>
        <time>2014-05-02T14:58:33Z</time>
      </trkpt>
      <trkpt lat="50.57081" lon="1.8377">
        <ele>43.88</ele>
        <time>2014-05-02T14:58:39Z</time>
      </trkpt>
      <trkpt lat="50.57078" lon="1.83785">
        <ele>44.36</ele>
        <time>2014-05-02T14:58:44Z</time>
      </trkpt>
      <trkpt lat="50.57074" lon="1.838">
        <ele>43.88</ele>
        <time>2014-05-02T14:58:50Z</time>
      </trkpt>
      <trkpt lat="50.57069" lon="1.83814">
        <ele>43.88</ele>
        <time>2014-05-02T14:58:57Z</time>
      </trkpt>
      <trkpt lat="50.57063" lon="1.83827">
        <ele>44.36</ele>
        <time>2014-05-02T14:59:03Z</time>
      </trkpt>
      <trkpt lat="50.57058" lon="1.83841">
        <ele>43.88</ele>
        <time>2014-05-02T14:59:09Z</time>
      </trkpt>
      <trkpt lat="50.57052" lon="1.83855">
        <ele>44.84</ele>
        <time>2014-05-02T14:59:15Z</time>
      </trkpt>
      <trkpt lat="50.57045" lon="1.83871">
        <ele>44.36</ele>
        <time>2014-05-02T14:59:21Z</time>
      </trkpt>
      <trkpt lat="50.5704" lon="1.83882">
        <ele>44.36</ele>
        <time>2014-05-02T14:59:27Z</time>
      </trkpt>
      <trkpt lat="50.57036" lon="1.83899">
        <ele>43.4</ele>
        <time>2014-05-02T14:59:34Z</time>
      </trkpt>
      <trkpt lat="50.57029" lon="1.83915">
        <ele>43.88</ele>
        <time>2014-05-02T14:59:41Z</time>
      </trkpt>
      <trkpt lat="50.57024" lon="1.8393">
        <ele>44.36</ele>
        <time>2014-05-02T14:59:47Z</time>
      </trkpt>
      <trkpt lat="50.57021" lon="1.83945">
        <ele>44.36</ele>
        <time>2014-05-02T14:59:53Z</time>
      </trkpt>
      <trkpt lat="50.57016" lon="1.83959">
        <ele>45.32</ele>
        <time>2014-05-02T14:59:59Z</time>
      </trkpt>
      <trkpt lat="50.57012" lon="1.83974">
        <ele>45.32</ele>
        <time>2014-05-02T15:00:06Z</time>
      </trkpt>
      <trkpt lat="50.5701" lon="1.83992">
        <ele>45.32</ele>
        <time>2014-05-02T15:00:12Z</time>
      </trkpt>
      <trkpt lat="50.57008" lon="1.84009">
        <ele>44.84</ele>
        <time>2014-05-02T15:00:18Z</time>
      </trkpt>
      <trkpt lat="50.57004" lon="1.84027">
        <ele>45.8</ele>
        <time>2014-05-02T15:00:25Z</time>
      </trkpt>
      <trkpt lat="50.56998" lon="1.84044">
        <ele>45.32</ele>
        <time>2014-05-02T15:00:32Z</time>
      </trkpt>
      <trkpt lat="50.56992" lon="1.84061">
        <ele>45.8</ele>
        <time>2014-05-02T15:00:40Z</time>
      </trkpt>
      <trkpt lat="50.56986" lon="1.84078">
        <ele>45.8</ele>
        <time>2014-05-02T15:00:47Z</time>
      </trkpt>
      <trkpt lat="50.56979" lon="1.84096">
        <ele>46.76</ele>
        <time>2014-05-02T15:00:54Z</time>
      </trkpt>
      <trkpt lat="50.56976" lon="1.84114">
        <ele>46.76</ele>
        <time>2014-05-02T15:01:01Z</time>
      </trkpt>
      <trkpt lat="50.56973" lon="1.84132">
        <ele>47.24</ele>
        <time>2014-05-02T15:01:08Z</time>
      </trkpt>
      <trkpt lat="50.5697" lon="1.8415">
        <ele>47.24</ele>
        <time>2014-05-02T15:01:14Z</time>
      </trkpt>
      <trkpt lat="50.56969" lon="1.84167">
        <ele>46.76</ele>
        <time>2014-05-02T15:01:20Z</time>
      </trkpt>
      <trkpt lat="50.56967" lon="1.84181">
        <ele>47.72</ele>
        <time>2014-05-02T15:01:26Z</time>
      </trkpt>
      <trkpt lat="50.56967" lon="1.84199">
        <ele>46.28</ele>
        <time>2014-05-02T15:01:32Z</time>
      </trkpt>
      <trkpt lat="50.56965" lon="1.84215">
        <ele>47.72</ele>
        <time>2014-05-02T15:01:38Z</time>
      </trkpt>
      <trkpt lat="50.56963" lon="1.84235">
        <ele>48.2</ele>
        <time>2014-05-02T15:01:45Z</time>
      </trkpt>
      <trkpt lat="50.56962" lon="1.84253">
        <ele>48.2</ele>
        <time>2014-05-02T15:01:52Z</time>
      </trkpt>
      <trkpt lat="50.56961" lon="1.84274">
        <ele>48.68</ele>
        <time>2014-05-02T15:02:00Z</time>
      </trkpt>
      <trkpt lat="50.56959" lon="1.84295">
        <ele>49.16</ele>
        <time>2014-05-02T15:02:07Z</time>
      </trkpt>
      <trkpt lat="50.56958" lon="1.84317">
        <ele>49.65</ele>
        <time>2014-05-02T15:02:15Z</time>
      </trkpt>
      <trkpt lat="50.56955" lon="1.84337">
        <ele>49.65</ele>
        <time>2014-05-02T15:02:22Z</time>
      </trkpt>
      <trkpt lat="50.56954" lon="1.84354">
        <ele>50.13</ele>
        <time>2014-05-02T15:02:29Z</time>
      </trkpt>
      <trkpt lat="50.56951" lon="1.84376">
        <ele>50.61</ele>
        <time>2014-05-02T15:02:37Z</time>
      </trkpt>
      <trkpt lat="50.5695" lon="1.84397">
        <ele>50.61</ele>
        <time>2014-05-02T15:02:44Z</time>
      </trkpt>
      <trkpt lat="50.56947" lon="1.84413">
        <ele>50.61</ele>
        <time>2014-05-02T15:02:50Z</time>
      </trkpt>
      <trkpt lat="50.56946" lon="1.84431">
        <ele>50.61</ele>
        <time>2014-05-02T15:02:56Z</time>
      </trkpt>
      <trkpt lat="50.56946" lon="1.8445">
        <ele>51.09</ele>
        <time>2014-05-02T15:03:02Z</time>
      </trkpt>
      <trkpt lat="50.56944" lon="1.84467">
        <ele>51.57</ele>
        <time>2014-05-02T15:03:08Z</time>
      </trkpt>
      <trkpt lat="50.56937" lon="1.84479">
        <ele>51.57</ele>
        <time>2014-05-02T15:03:15Z</time>
      </trkpt>
      <trkpt lat="50.56927" lon="1.84481">
        <ele>52.05</ele>
        <time>2014-05-02T15:03:21Z</time>
      </trkpt>
      <trkpt lat="50.56917" lon="1.84485">
        <ele>52.53</ele>
        <time>2014-05-02T15:03:28Z</time>
      </trkpt>
      <trkpt lat="50.56905" lon="1.84487">
        <ele>53.97</ele>
        <time>2014-05-02T15:03:35Z</time>
      </trkpt>
      <trkpt lat="50.56894" lon="1.84489">
        <ele>53.97</ele>
        <time>2014-05-02T15:03:40Z</time>
      </trkpt>
      <trkpt lat="50.56881" lon="1.84491">
        <ele>54.45</ele>
        <time>2014-05-02T15:03:45Z</time>
      </trkpt>
      <trkpt lat="50.56871" lon="1.84499">
        <ele>53.97</ele>
        <time>2014-05-02T15:03:50Z</time>
      </trkpt>
      <trkpt lat="50.56862" lon="1.84508">
        <ele>54.93</ele>
        <time>2014-05-02T15:03:55Z</time>
      </trkpt>
      <trkpt lat="50.56854" lon="1.84521">
        <ele>56.37</ele>
        <time>2014-05-02T15:04:01Z</time>
      </trkpt>
      <trkpt lat="50.56846" lon="1.84533">
        <ele>57.82</ele>
        <time>2014-05-02T15:04:07Z</time>
      </trkpt>
      <trkpt lat="50.56839" lon="1.84545">
        <ele>58.3</ele>
        <time>2014-05-02T15:04:12Z</time>
      </trkpt>
      <trkpt lat="50.56831" lon="1.84554">
        <ele>59.26</ele>
        <time>2014-05-02T15:04:17Z</time>
      </trkpt>
      <trkpt lat="50.56824" lon="1.84563">
        <ele>61.18</ele>
        <time>2014-05-02T15:04:22Z</time>
      </trkpt>
      <trkpt lat="50.56814" lon="1.8457">
        <ele>62.14</ele>
        <time>2014-05-02T15:04:28Z</time>
      </trkpt>
      <trkpt lat="50.56805" lon="1.84576">
        <ele>62.14</ele>
        <time>2014-05-02T15:04:35Z</time>
      </trkpt>
      <trkpt lat="50.56794" lon="1.84582">
        <ele>62.62</ele>
        <time>2014-05-02T15:04:41Z</time>
      </trkpt>
      <trkpt lat="50.56786" lon="1.84588">
        <ele>63.58</ele>
        <time>2014-05-02T15:04:45Z</time>
      </trkpt>
      <trkpt lat="50.56775" lon="1.84593">
        <ele>64.55</ele>
        <time>2014-05-02T15:04:50Z</time>
      </trkpt>
      <trkpt lat="50.56766" lon="1.84596">
        <ele>65.99</ele>
        <time>2014-05-02T15:04:56Z</time>
      </trkpt>
      <trkpt lat="50.56756" lon="1.84598">
        <ele>66.95</ele>
        <time>2014-05-02T15:05:02Z</time>
      </trkpt>
      <trkpt lat="50.56746" lon="1.84597">
        <ele>66.95</ele>
        <time>2014-05-02T15:05:08Z</time>
      </trkpt>
      <trkpt lat="50.56736" lon="1.84598">
        <ele>66.47</ele>
        <time>2014-05-02T15:05:14Z</time>
      </trkpt>
      <trkpt lat="50.56726" lon="1.84601">
        <ele>65.51</ele>
        <time>2014-05-02T15:05:19Z</time>
      </trkpt>
      <trkpt lat="50.56716" lon="1.84604">
        <ele>65.51</ele>
        <time>2014-05-02T15:05:25Z</time>
      </trkpt>
      <trkpt lat="50.56707" lon="1.84606">
        <ele>65.99</ele>
        <time>2014-05-02T15:05:31Z</time>
      </trkpt>
      <trkpt lat="50.56697" lon="1.84608">
        <ele>65.99</ele>
        <time>2014-05-02T15:05:37Z</time>
      </trkpt>
      <trkpt lat="50.56688" lon="1.84611">
        <ele>65.99</ele>
        <time>2014-05-02T15:05:43Z</time>
      </trkpt>
      <trkpt lat="50.56677" lon="1.84614">
        <ele>66.47</ele>
        <time>2014-05-02T15:05:49Z</time>
      </trkpt>
      <trkpt lat="50.56668" lon="1.84617">
        <ele>65.99</ele>
        <time>2014-05-02T15:05:54Z</time>
      </trkpt>
      <trkpt lat="50.56657" lon="1.84622">
        <ele>66.47</ele>
        <time>2014-05-02T15:06:00Z</time>
      </trkpt>
      <trkpt lat="50.56646" lon="1.84626">
        <ele>67.43</ele>
        <time>2014-05-02T15:06:06Z</time>
      </trkpt>
      <trkpt lat="50.56635" lon="1.8463">
        <ele>66.95</ele>
        <time>2014-05-02T15:06:13Z</time>
      </trkpt>
      <trkpt lat="50.56625" lon="1.84634">
        <ele>66.95</ele>
        <time>2014-05-02T15:06:19Z</time>
      </trkpt>
      <trkpt lat="50.56615" lon="1.84637">
        <ele>67.43</ele>
        <time>2014-05-02T15:06:24Z</time>
      </trkpt>
      <trkpt lat="50.56606" lon="1.84639">
        <ele>68.39</ele>
        <time>2014-05-02T15:06:30Z</time>
      </trkpt>
      <trkpt lat="50.56595" lon="1.84642">
        <ele>68.87</ele>
        <time>2014-05-02T15:06:37Z</time>
      </trkpt>
      <trkpt lat="50.56584" lon="1.84643">
        <ele>69.83</ele>
        <time>2014-05-02T15:06:45Z</time>
      </trkpt>
      <trkpt lat="50.56571" lon="1.84648">
        <ele>69.83</ele>
        <time>2014-05-02T15:06:53Z</time>
      </trkpt>
      <trkpt lat="50.56559" lon="1.84659">
        <ele>70.79</ele>
        <time>2014-05-02T15:07:01Z</time>
      </trkpt>
      <trkpt lat="50.5655" lon="1.84668">
        <ele>71.27</ele>
        <time>2014-05-02T15:07:09Z</time>
      </trkpt>
      <trkpt lat="50.5654" lon="1.84673">
        <ele>71.76</ele>
        <time>2014-05-02T15:07:17Z</time>
      </trkpt>
      <trkpt lat="50.56522" lon="1.8468">
        <ele>72.72</ele>
        <time>2014-05-02T15:07:25Z</time>
      </trkpt>
      <trkpt lat="50.56508" lon="1.84685">
        <ele>73.68</ele>
        <time>2014-05-02T15:07:32Z</time>
      </trkpt>
      <trkpt lat="50.56492" lon="1.84693">
        <ele>74.16</ele>
        <time>2014-05-02T15:07:41Z</time>
      </trkpt>
      <trkpt lat="50.56478" lon="1.84701">
        <ele>76.08</ele>
        <time>2014-05-02T15:07:51Z</time>
      </trkpt>
      <trkpt lat="50.56469" lon="1.84714">
        <ele>77.52</ele>
        <time>2014-05-02T15:07:59Z</time>
      </trkpt>
      <trkpt lat="50.56445" lon="1.84726">
        <ele>81.37</ele>
        <time>2014-05-02T15:08:09Z</time>
      </trkpt>
      <trkpt lat="50.5643" lon="1.84732">
        <ele>82.33</ele>
        <time>2014-05-02T15:08:15Z</time>
      </trkpt>
      <trkpt lat="50.56413" lon="1.84741">
        <ele>84.25</ele>
        <time>2014-05-02T15:08:23Z</time>
      </trkpt>
      <trkpt lat="50.56399" lon="1.84748">
        <ele>85.21</ele>
        <time>2014-05-02T15:08:31Z</time>
      </trkpt>
      <trkpt lat="50.5639" lon="1.84764">
        <ele>86.66</ele>
        <time>2014-05-02T15:08:38Z</time>
      </trkpt>
      <trkpt lat="50.56385" lon="1.84782">
        <ele>86.66</ele>
        <time>2014-05-02T15:08:44Z</time>
      </trkpt>
      <trkpt lat="50.56379" lon="1.848">
        <ele>87.62</ele>
        <time>2014-05-02T15:08:51Z</time>
      </trkpt>
      <trkpt lat="50.56375" lon="1.84815">
        <ele>89.54</ele>
        <time>2014-05-02T15:08:57Z</time>
      </trkpt>
      <trkpt lat="50.56369" lon="1.84828">
        <ele>90.5</ele>
        <time>2014-05-02T15:09:03Z</time>
      </trkpt>
      <trkpt lat="50.56361" lon="1.84842">
        <ele>92.9</ele>
        <time>2014-05-02T15:09:11Z</time>
      </trkpt>
      <trkpt lat="50.56356" lon="1.84855">
        <ele>94.35</ele>
        <time>2014-05-02T15:09:18Z</time>
      </trkpt>
      <trkpt lat="50.56348" lon="1.84869">
        <ele>95.79</ele>
        <time>2014-05-02T15:09:25Z</time>
      </trkpt>
      <trkpt lat="50.56341" lon="1.84881">
        <ele>97.23</ele>
        <time>2014-05-02T15:09:32Z</time>
      </trkpt>
      <trkpt lat="50.56334" lon="1.84893">
        <ele>98.19</ele>
        <time>2014-05-02T15:09:38Z</time>
      </trkpt>
      <trkpt lat="50.56329" lon="1.84907">
        <ele>99.63</ele>
        <time>2014-05-02T15:09:44Z</time>
      </trkpt>
      <trkpt lat="50.56324" lon="1.84919">
        <ele>100.11</ele>
        <time>2014-05-02T15:09:50Z</time>
      </trkpt>
      <trkpt lat="50.56317" lon="1.84933">
        <ele>101.08</ele>
        <time>2014-05-02T15:09:56Z</time>
      </trkpt>
      <trkpt lat="50.56311" lon="1.84947">
        <ele>100.11</ele>
        <time>2014-05-02T15:10:00Z</time>
      </trkpt>
      <trkpt lat="50.56305" lon="1.8496">
        <ele>100.6</ele>
        <time>2014-05-02T15:10:05Z</time>
      </trkpt>
      <trkpt lat="50.563" lon="1.84974">
        <ele>102.04</ele>
        <time>2014-05-02T15:10:11Z</time>
      </trkpt>
      <trkpt lat="50.56294" lon="1.84988">
        <ele>103</ele>
        <time>2014-05-02T15:10:17Z</time>
      </trkpt>
      <trkpt lat="50.56289" lon="1.84999">
        <ele>103</ele>
        <time>2014-05-02T15:10:22Z</time>
      </trkpt>
      <trkpt lat="50.56282" lon="1.85011">
        <ele>105.4</ele>
        <time>2014-05-02T15:10:28Z</time>
      </trkpt>
      <trkpt lat="50.56276" lon="1.85025">
        <ele>104.44</ele>
        <time>2014-05-02T15:10:34Z</time>
      </trkpt>
      <trkpt lat="50.5627" lon="1.85037">
        <ele>105.4</ele>
        <time>2014-05-02T15:10:40Z</time>
      </trkpt>
      <trkpt lat="50.56263" lon="1.8505">
        <ele>104.92</ele>
        <time>2014-05-02T15:10:46Z</time>
      </trkpt>
      <trkpt lat="50.56258" lon="1.85062">
        <ele>105.4</ele>
        <time>2014-05-02T15:10:51Z</time>
      </trkpt>
      <trkpt lat="50.56251" lon="1.85075">
        <ele>106.36</ele>
        <time>2014-05-02T15:10:55Z</time>
      </trkpt>
      <trkpt lat="50.56244" lon="1.85088">
        <ele>106.36</ele>
        <time>2014-05-02T15:11:00Z</time>
      </trkpt>
      <trkpt lat="50.56239" lon="1.85101">
        <ele>106.84</ele>
        <time>2014-05-02T15:11:06Z</time>
      </trkpt>
      <trkpt lat="50.56233" lon="1.85111">
        <ele>106.36</ele>
        <time>2014-05-02T15:11:12Z</time>
      </trkpt>
      <trkpt lat="50.56227" lon="1.85126">
        <ele>105.88</ele>
        <time>2014-05-02T15:11:17Z</time>
      </trkpt>
      <trkpt lat="50.56221" lon="1.8514">
        <ele>106.36</ele>
        <time>2014-05-02T15:11:21Z</time>
      </trkpt>
      <trkpt lat="50.56215" lon="1.85154">
        <ele>107.81</ele>
        <time>2014-05-02T15:11:26Z</time>
      </trkpt>
      <trkpt lat="50.56209" lon="1.85166">
        <ele>107.81</ele>
        <time>2014-05-02T15:11:32Z</time>
      </trkpt>
      <trkpt lat="50.56203" lon="1.85177">
        <ele>108.77</ele>
        <time>2014-05-02T15:11:38Z</time>
      </trkpt>
      <trkpt lat="50.56196" lon="1.85191">
        <ele>110.21</ele>
        <time>2014-05-02T15:11:45Z</time>
      </trkpt>
      <trkpt lat="50.56189" lon="1.85203">
        <ele>110.21</ele>
        <time>2014-05-02T15:11:51Z</time>
      </trkpt>
      <trkpt lat="50.56182" lon="1.85216">
        <ele>109.25</ele>
        <time>2014-05-02T15:11:57Z</time>
      </trkpt>
      <trkpt lat="50.56175" lon="1.85225">
        <ele>110.69</ele>
        <time>2014-05-02T15:12:03Z</time>
      </trkpt>
      <trkpt lat="50.56167" lon="1.85236">
        <ele>110.69</ele>
        <time>2014-05-02T15:12:09Z</time>
      </trkpt>
      <trkpt lat="50.56159" lon="1.85246">
        <ele>109.73</ele>
        <time>2014-05-02T15:12:15Z</time>
      </trkpt>
      <trkpt lat="50.56151" lon="1.85255">
        <ele>110.21</ele>
        <time>2014-05-02T15:12:20Z</time>
      </trkpt>
      <trkpt lat="50.56142" lon="1.85264">
        <ele>110.69</ele>
        <time>2014-05-02T15:12:26Z</time>
      </trkpt>
      <trkpt lat="50.56133" lon="1.85271">
        <ele>109.73</ele>
        <time>2014-05-02T15:12:32Z</time>
      </trkpt>
      <trkpt lat="50.56124" lon="1.85277">
        <ele>110.69</ele>
        <time>2014-05-02T15:12:38Z</time>
      </trkpt>
      <trkpt lat="50.56114" lon="1.85282">
        <ele>110.21</ele>
        <time>2014-05-02T15:12:44Z</time>
      </trkpt>
      <trkpt lat="50.56105" lon="1.85287">
        <ele>110.69</ele>
        <time>2014-05-02T15:12:50Z</time>
      </trkpt>
      <trkpt lat="50.56095" lon="1.85292">
        <ele>111.65</ele>
        <time>2014-05-02T15:12:56Z</time>
      </trkpt>
      <trkpt lat="50.56086" lon="1.85296">
        <ele>112.13</ele>
        <time>2014-05-02T15:13:02Z</time>
      </trkpt>
      <trkpt lat="50.56075" lon="1.85299">
        <ele>113.09</ele>
        <time>2014-05-02T15:13:10Z</time>
      </trkpt>
      <trkpt lat="50.56067" lon="1.85306">
        <ele>112.13</ele>
        <time>2014-05-02T15:13:17Z</time>
      </trkpt>
      <trkpt lat="50.56056" lon="1.85312">
        <ele>112.61</ele>
        <time>2014-05-02T15:13:23Z</time>
      </trkpt>
      <trkpt lat="50.56048" lon="1.85319">
        <ele>111.65</ele>
        <time>2014-05-02T15:13:29Z</time>
      </trkpt>
      <trkpt lat="50.56038" lon="1.85327">
        <ele>112.13</ele>
        <time>2014-05-02T15:13:36Z</time>
      </trkpt>
      <trkpt lat="50.5603" lon="1.85334">
        <ele>113.57</ele>
        <time>2014-05-02T15:13:41Z</time>
      </trkpt>
      <trkpt lat="50.56021" lon="1.85342">
        <ele>113.57</ele>
        <time>2014-05-02T15:13:47Z</time>
      </trkpt>
      <trkpt lat="50.56013" lon="1.85351">
        <ele>114.53</ele>
        <time>2014-05-02T15:13:53Z</time>
      </trkpt>
      <trkpt lat="50.56006" lon="1.85359">
        <ele>115.01</ele>
        <time>2014-05-02T15:13:59Z</time>
      </trkpt>
      <trkpt lat="50.55999" lon="1.85369">
        <ele>115.98</ele>
        <time>2014-05-02T15:14:05Z</time>
      </trkpt>
      <trkpt lat="50.55993" lon="1.8538">
        <ele>117.42</ele>
        <time>2014-05-02T15:14:11Z</time>
      </trkpt>
      <trkpt lat="50.55986" lon="1.85392">
        <ele>117.9</ele>
        <time>2014-05-02T15:14:17Z</time>
      </trkpt>
      <trkpt lat="50.55979" lon="1.85404">
        <ele>118.38</ele>
        <time>2014-05-02T15:14:23Z</time>
      </trkpt>
      <trkpt lat="50.55972" lon="1.85414">
        <ele>119.82</ele>
        <time>2014-05-02T15:14:29Z</time>
      </trkpt>
      <trkpt lat="50.55964" lon="1.85424">
        <ele>119.82</ele>
        <time>2014-05-02T15:14:35Z</time>
      </trkpt>
      <trkpt lat="50.55957" lon="1.85434">
        <ele>119.82</ele>
        <time>2014-05-02T15:14:40Z</time>
      </trkpt>
      <trkpt lat="50.55951" lon="1.85446">
        <ele>119.82</ele>
        <time>2014-05-02T15:14:46Z</time>
      </trkpt>
      <trkpt lat="50.55945" lon="1.85458">
        <ele>121.74</ele>
        <time>2014-05-02T15:14:52Z</time>
      </trkpt>
      <trkpt lat="50.55938" lon="1.8547">
        <ele>121.74</ele>
        <time>2014-05-02T15:14:58Z</time>
      </trkpt>
      <trkpt lat="50.55931" lon="1.85481">
        <ele>121.74</ele>
        <time>2014-05-02T15:15:04Z</time>
      </trkpt>
      <trkpt lat="50.55924" lon="1.85493">
        <ele>121.26</ele>
        <time>2014-05-02T15:15:10Z</time>
      </trkpt>
      <trkpt lat="50.55916" lon="1.85505">
        <ele>121.74</ele>
        <time>2014-05-02T15:15:16Z</time>
      </trkpt>
      <trkpt lat="50.55907" lon="1.85516">
        <ele>122.22</ele>
        <time>2014-05-02T15:15:22Z</time>
      </trkpt>
      <trkpt lat="50.559" lon="1.85526">
        <ele>122.71</ele>
        <time>2014-05-02T15:15:27Z</time>
      </trkpt>
      <trkpt lat="50.55892" lon="1.85538">
        <ele>122.22</ele>
        <time>2014-05-02T15:15:33Z</time>
      </trkpt>
      <trkpt lat="50.55885" lon="1.8555">
        <ele>122.71</ele>
        <time>2014-05-02T15:15:38Z</time>
      </trkpt>
      <trkpt lat="50.55879" lon="1.85564">
        <ele>122.71</ele>
        <time>2014-05-02T15:15:44Z</time>
      </trkpt>
      <trkpt lat="50.55872" lon="1.85578">
        <ele>122.71</ele>
        <time>2014-05-02T15:15:50Z</time>
      </trkpt>
      <trkpt lat="50.55868" lon="1.85591">
        <ele>122.71</ele>
        <time>2014-05-02T15:15:55Z</time>
      </trkpt>
      <trkpt lat="50.55865" lon="1.85605">
        <ele>122.22</ele>
        <time>2014-05-02T15:16:00Z</time>
      </trkpt>
      <trkpt lat="50.55862" lon="1.8562">
        <ele>123.19</ele>
        <time>2014-05-02T15:16:06Z</time>
      </trkpt>
      <trkpt lat="50.55859" lon="1.85634">
        <ele>123.67</ele>
        <time>2014-05-02T15:16:12Z</time>
      </trkpt>
      <trkpt lat="50.55857" lon="1.8565">
        <ele>124.63</ele>
        <time>2014-05-02T15:16:18Z</time>
      </trkpt>
      <trkpt lat="50.55854" lon="1.85664">
        <ele>124.63</ele>
        <time>2014-05-02T15:16:24Z</time>
      </trkpt>
      <trkpt lat="50.5585" lon="1.8568">
        <ele>126.07</ele>
        <time>2014-05-02T15:16:30Z</time>
      </trkpt>
      <trkpt lat="50.55846" lon="1.85695">
        <ele>127.03</ele>
        <time>2014-05-02T15:16:36Z</time>
      </trkpt>
      <trkpt lat="50.55841" lon="1.8571">
        <ele>128.95</ele>
        <time>2014-05-02T15:16:42Z</time>
      </trkpt>
      <trkpt lat="50.55838" lon="1.85723">
        <ele>127.99</ele>
        <time>2014-05-02T15:16:48Z</time>
      </trkpt>
      <trkpt lat="50.55836" lon="1.85738">
        <ele>128.95</ele>
        <time>2014-05-02T15:16:54Z</time>
      </trkpt>
      <trkpt lat="50.55833" lon="1.85754">
        <ele>129.92</ele>
        <time>2014-05-02T15:17:00Z</time>
      </trkpt>
      <trkpt lat="50.55832" lon="1.8577">
        <ele>129.43</ele>
        <time>2014-05-02T15:17:05Z</time>
      </trkpt>
      <trkpt lat="50.5583" lon="1.85784">
        <ele>129.43</ele>
        <time>2014-05-02T15:17:10Z</time>
      </trkpt>
      <trkpt lat="50.55827" lon="1.85801">
        <ele>129.92</ele>
        <time>2014-05-02T15:17:16Z</time>
      </trkpt>
      <trkpt lat="50.55824" lon="1.85815">
        <ele>129.43</ele>
        <time>2014-05-02T15:17:21Z</time>
      </trkpt>
      <trkpt lat="50.5582" lon="1.8583">
        <ele>128.95</ele>
        <time>2014-05-02T15:17:27Z</time>
      </trkpt>
      <trkpt lat="50.55816" lon="1.85847">
        <ele>129.43</ele>
        <time>2014-05-02T15:17:34Z</time>
      </trkpt>
      <trkpt lat="50.5581" lon="1.85862">
        <ele>129.43</ele>
        <time>2014-05-02T15:17:41Z</time>
      </trkpt>
      <trkpt lat="50.55803" lon="1.85876">
        <ele>128.95</ele>
        <time>2014-05-02T15:17:47Z</time>
      </trkpt>
      <trkpt lat="50.55797" lon="1.8589">
        <ele>129.43</ele>
        <time>2014-05-02T15:17:53Z</time>
      </trkpt>
      <trkpt lat="50.55789" lon="1.85903">
        <ele>129.92</ele>
        <time>2014-05-02T15:17:59Z</time>
      </trkpt>
      <trkpt lat="50.55782" lon="1.85913">
        <ele>128.95</ele>
        <time>2014-05-02T15:18:04Z</time>
      </trkpt>
      <trkpt lat="50.55774" lon="1.85925">
        <ele>128.47</ele>
        <time>2014-05-02T15:18:09Z</time>
      </trkpt>
      <trkpt lat="50.55766" lon="1.85936">
        <ele>128.47</ele>
        <time>2014-05-02T15:18:13Z</time>
      </trkpt>
      <trkpt lat="50.55759" lon="1.85948">
        <ele>129.43</ele>
        <time>2014-05-02T15:18:17Z</time>
      </trkpt>
      <trkpt lat="50.55754" lon="1.85961">
        <ele>130.4</ele>
        <time>2014-05-02T15:18:21Z</time>
      </trkpt>
      <trkpt lat="50.55748" lon="1.85976">
        <ele>130.88</ele>
        <time>2014-05-02T15:18:27Z</time>
      </trkpt>
      <trkpt lat="50.55744" lon="1.85991">
        <ele>131.84</ele>
        <time>2014-05-02T15:18:33Z</time>
      </trkpt>
      <trkpt lat="50.55739" lon="1.86004">
        <ele>133.28</ele>
        <time>2014-05-02T15:18:39Z</time>
      </trkpt>
      <trkpt lat="50.55735" lon="1.86018">
        <ele>134.72</ele>
        <time>2014-05-02T15:18:45Z</time>
      </trkpt>
      <trkpt lat="50.5573" lon="1.86032">
        <ele>135.2</ele>
        <time>2014-05-02T15:18:51Z</time>
      </trkpt>
      <trkpt lat="50.55724" lon="1.86045">
        <ele>135.2</ele>
        <time>2014-05-02T15:18:57Z</time>
      </trkpt>
      <trkpt lat="50.55718" lon="1.86057">
        <ele>135.68</ele>
        <time>2014-05-02T15:19:03Z</time>
      </trkpt>
      <trkpt lat="50.55711" lon="1.86071">
        <ele>136.16</ele>
        <time>2014-05-02T15:19:09Z</time>
      </trkpt>
      <trkpt lat="50.55705" lon="1.86084">
        <ele>136.64</ele>
        <time>2014-05-02T15:19:15Z</time>
      </trkpt>
      <trkpt lat="50.557" lon="1.86098">
        <ele>138.09</ele>
        <time>2014-05-02T15:19:21Z</time>
      </trkpt>
      <trkpt lat="50.55693" lon="1.86111">
        <ele>138.57</ele>
        <time>2014-05-02T15:19:27Z</time>
      </trkpt>
      <trkpt lat="50.55685" lon="1.86121">
        <ele>140.49</ele>
        <time>2014-05-02T15:19:34Z</time>
      </trkpt>
      <trkpt lat="50.55677" lon="1.86135">
        <ele>140.49</ele>
        <time>2014-05-02T15:19:43Z</time>
      </trkpt>
      <trkpt lat="50.55671" lon="1.86154">
        <ele>140.49</ele>
        <time>2014-05-02T15:19:51Z</time>
      </trkpt>
      <trkpt lat="50.55666" lon="1.86175">
        <ele>140.01</ele>
        <time>2014-05-02T15:19:58Z</time>
      </trkpt>
      <trkpt lat="50.55663" lon="1.86192">
        <ele>140.49</ele>
        <time>2014-05-02T15:20:04Z</time>
      </trkpt>
      <trkpt lat="50.55659" lon="1.86207">
        <ele>140.01</ele>
        <time>2014-05-02T15:20:11Z</time>
      </trkpt>
      <trkpt lat="50.55657" lon="1.86225">
        <ele>140.97</ele>
        <time>2014-05-02T15:20:18Z</time>
      </trkpt>
      <trkpt lat="50.55655" lon="1.86243">
        <ele>142.41</ele>
        <time>2014-05-02T15:20:25Z</time>
      </trkpt>
      <trkpt lat="50.55653" lon="1.86263">
        <ele>142.89</ele>
        <time>2014-05-02T15:20:32Z</time>
      </trkpt>
      <trkpt lat="50.55648" lon="1.86283">
        <ele>142.89</ele>
        <time>2014-05-02T15:20:38Z</time>
      </trkpt>
      <trkpt lat="50.55644" lon="1.863">
        <ele>143.37</ele>
        <time>2014-05-02T15:20:44Z</time>
      </trkpt>
      <trkpt lat="50.55637" lon="1.86316">
        <ele>143.85</ele>
        <time>2014-05-02T15:20:51Z</time>
      </trkpt>
      <trkpt lat="50.5563" lon="1.86331">
        <ele>144.34</ele>
        <time>2014-05-02T15:20:58Z</time>
      </trkpt>
      <trkpt lat="50.55624" lon="1.86348">
        <ele>145.78</ele>
        <time>2014-05-02T15:21:05Z</time>
      </trkpt>
      <trkpt lat="50.55619" lon="1.86362">
        <ele>146.26</ele>
        <time>2014-05-02T15:21:11Z</time>
      </trkpt>
      <trkpt lat="50.55613" lon="1.86379">
        <ele>146.74</ele>
        <time>2014-05-02T15:21:19Z</time>
      </trkpt>
      <trkpt lat="50.55608" lon="1.86395">
        <ele>147.7</ele>
        <time>2014-05-02T15:21:25Z</time>
      </trkpt>
      <trkpt lat="50.55603" lon="1.86411">
        <ele>147.7</ele>
        <time>2014-05-02T15:21:31Z</time>
      </trkpt>
      <trkpt lat="50.556" lon="1.86427">
        <ele>148.18</ele>
        <time>2014-05-02T15:21:38Z</time>
      </trkpt>
      <trkpt lat="50.55595" lon="1.86443">
        <ele>148.18</ele>
        <time>2014-05-02T15:21:44Z</time>
      </trkpt>
      <trkpt lat="50.55591" lon="1.86459">
        <ele>149.14</ele>
        <time>2014-05-02T15:21:50Z</time>
      </trkpt>
      <trkpt lat="50.55587" lon="1.86473">
        <ele>148.18</ele>
        <time>2014-05-02T15:21:57Z</time>
      </trkpt>
      <trkpt lat="50.55584" lon="1.86487">
        <ele>149.62</ele>
        <time>2014-05-02T15:22:03Z</time>
      </trkpt>
      <trkpt lat="50.55579" lon="1.86502">
        <ele>150.1</ele>
        <time>2014-05-02T15:22:09Z</time>
      </trkpt>
      <trkpt lat="50.55575" lon="1.86515">
        <ele>150.1</ele>
        <time>2014-05-02T15:22:14Z</time>
      </trkpt>
      <trkpt lat="50.5557" lon="1.8653">
        <ele>150.58</ele>
        <time>2014-05-02T15:22:20Z</time>
      </trkpt>
      <trkpt lat="50.55566" lon="1.86546">
        <ele>151.06</ele>
        <time>2014-05-02T15:22:26Z</time>
      </trkpt>
      <trkpt lat="50.55561" lon="1.86561">
        <ele>152.03</ele>
        <time>2014-05-02T15:22:32Z</time>
      </trkpt>
      <trkpt lat="50.55557" lon="1.86575">
        <ele>151.54</ele>
        <time>2014-05-02T15:22:38Z</time>
      </trkpt>
      <trkpt lat="50.55552" lon="1.86588">
        <ele>152.99</ele>
        <time>2014-05-02T15:22:50Z</time>
      </trkpt>
      <trkpt lat="50.55544" lon="1.86598">
        <ele>153.47</ele>
        <time>2014-05-02T15:23:01Z</time>
      </trkpt>
      <trkpt lat="50.55534" lon="1.86603">
        <ele>154.91</ele>
        <time>2014-05-02T15:23:08Z</time>
      </trkpt>
      <trkpt lat="50.55521" lon="1.86602">
        <ele>155.87</ele>
        <time>2014-05-02T15:23:15Z</time>
      </trkpt>
      <trkpt lat="50.55512" lon="1.86599">
        <ele>155.87</ele>
        <time>2014-05-02T15:23:21Z</time>
      </trkpt>
      <trkpt lat="50.55503" lon="1.86605">
        <ele>156.35</ele>
        <time>2014-05-02T15:23:27Z</time>
      </trkpt>
      <trkpt lat="50.55498" lon="1.86618">
        <ele>155.87</ele>
        <time>2014-05-02T15:23:33Z</time>
      </trkpt>
      <trkpt lat="50.55494" lon="1.86633">
        <ele>155.39</ele>
        <time>2014-05-02T15:23:39Z</time>
      </trkpt>
      <trkpt lat="50.55489" lon="1.86649">
        <ele>156.35</ele>
        <time>2014-05-02T15:23:45Z</time>
      </trkpt>
      <trkpt lat="50.55486" lon="1.86663">
        <ele>155.87</ele>
        <time>2014-05-02T15:23:51Z</time>
      </trkpt>
      <trkpt lat="50.55482" lon="1.86677">
        <ele>156.35</ele>
        <time>2014-05-02T15:23:56Z</time>
      </trkpt>
      <trkpt lat="50.55478" lon="1.8669">
        <ele>156.35</ele>
        <time>2014-05-02T15:24:01Z</time>
      </trkpt>
      <trkpt lat="50.55475" lon="1.86704">
        <ele>156.35</ele>
        <time>2014-05-02T15:24:06Z</time>
      </trkpt>
      <trkpt lat="50.55471" lon="1.86718">
        <ele>155.87</ele>
        <time>2014-05-02T15:24:12Z</time>
      </trkpt>
      <trkpt lat="50.55468" lon="1.86733">
        <ele>155.87</ele>
        <time>2014-05-02T15:24:18Z</time>
      </trkpt>
      <trkpt lat="50.55464" lon="1.86748">
        <ele>155.87</ele>
        <time>2014-05-02T15:24:24Z</time>
      </trkpt>
      <trkpt lat="50.5546" lon="1.86763">
        <ele>155.39</ele>
        <time>2014-05-02T15:24:30Z</time>
      </trkpt>
      <trkpt lat="50.55455" lon="1.86778">
        <ele>155.39</ele>
        <time>2014-05-02T15:24:37Z</time>
      </trkpt>
      <trkpt lat="50.55452" lon="1.86793">
        <ele>154.43</ele>
        <time>2014-05-02T15:24:44Z</time>
      </trkpt>
      <trkpt lat="50.55448" lon="1.86809">
        <ele>154.91</ele>
        <time>2014-05-02T15:24:50Z</time>
      </trkpt>
      <trkpt lat="50.55445" lon="1.86822">
        <ele>155.39</ele>
        <time>2014-05-02T15:24:55Z</time>
      </trkpt>
      <trkpt lat="50.55442" lon="1.86835">
        <ele>155.87</ele>
        <time>2014-05-02T15:25:00Z</time>
      </trkpt>
      <trkpt lat="50.55439" lon="1.86848">
        <ele>155.39</ele>
        <time>2014-05-02T15:25:05Z</time>
      </trkpt>
      <trkpt lat="50.55435" lon="1.86862">
        <ele>154.91</ele>
        <time>2014-05-02T15:25:11Z</time>
      </trkpt>
      <trkpt lat="50.55432" lon="1.86876">
        <ele>154.43</ele>
        <time>2014-05-02T15:25:17Z</time>
      </trkpt>
      <trkpt lat="50.55433" lon="1.86891">
        <ele>155.39</ele>
        <time>2014-05-02T15:25:24Z</time>
      </trkpt>
      <trkpt lat="50.5544" lon="1.8688">
        <ele>155.39</ele>
        <time>2014-05-02T15:25:32Z</time>
      </trkpt>
      <trkpt lat="50.55444" lon="1.86878">
        <ele>154.91</ele>
        <time>2014-05-02T15:26:22Z</time>
      </trkpt>
      <trkpt lat="50.55435" lon="1.86885">
        <ele>155.87</ele>
        <time>2014-05-02T15:26:30Z</time>
      </trkpt>
      <trkpt lat="50.55427" lon="1.86895">
        <ele>155.39</ele>
        <time>2014-05-02T15:26:36Z</time>
      </trkpt>
      <trkpt lat="50.55424" lon="1.8691">
        <ele>154.43</ele>
        <time>2014-05-02T15:26:42Z</time>
      </trkpt>
      <trkpt lat="50.55422" lon="1.86924">
        <ele>154.43</ele>
        <time>2014-05-02T15:26:47Z</time>
      </trkpt>
      <trkpt lat="50.55417" lon="1.86939">
        <ele>155.87</ele>
        <time>2014-05-02T15:26:54Z</time>
      </trkpt>
      <trkpt lat="50.55412" lon="1.86953">
        <ele>155.39</ele>
        <time>2014-05-02T15:27:00Z</time>
      </trkpt>
      <trkpt lat="50.55408" lon="1.86968">
        <ele>155.39</ele>
        <time>2014-05-02T15:27:06Z</time>
      </trkpt>
      <trkpt lat="50.55404" lon="1.86983">
        <ele>155.39</ele>
        <time>2014-05-02T15:27:12Z</time>
      </trkpt>
      <trkpt lat="50.554" lon="1.86997">
        <ele>155.39</ele>
        <time>2014-05-02T15:27:18Z</time>
      </trkpt>
      <trkpt lat="50.55396" lon="1.87012">
        <ele>155.87</ele>
        <time>2014-05-02T15:27:24Z</time>
      </trkpt>
      <trkpt lat="50.55392" lon="1.87027">
        <ele>156.83</ele>
        <time>2014-05-02T15:27:31Z</time>
      </trkpt>
      <trkpt lat="50.55388" lon="1.87042">
        <ele>155.39</ele>
        <time>2014-05-02T15:27:37Z</time>
      </trkpt>
      <trkpt lat="50.55385" lon="1.87057">
        <ele>155.39</ele>
        <time>2014-05-02T15:27:43Z</time>
      </trkpt>
      <trkpt lat="50.55381" lon="1.87073">
        <ele>155.39</ele>
        <time>2014-05-02T15:27:49Z</time>
      </trkpt>
      <trkpt lat="50.55377" lon="1.87088">
        <ele>156.35</ele>
        <time>2014-05-02T15:27:55Z</time>
      </trkpt>
      <trkpt lat="50.55373" lon="1.87101">
        <ele>155.87</ele>
        <time>2014-05-02T15:28:00Z</time>
      </trkpt>
      <trkpt lat="50.5537" lon="1.87115">
        <ele>156.35</ele>
        <time>2014-05-02T15:28:06Z</time>
      </trkpt>
      <trkpt lat="50.55366" lon="1.87129">
        <ele>157.31</ele>
        <time>2014-05-02T15:28:12Z</time>
      </trkpt>
      <trkpt lat="50.55361" lon="1.87144">
        <ele>157.31</ele>
        <time>2014-05-02T15:28:18Z</time>
      </trkpt>
      <trkpt lat="50.55358" lon="1.87157">
        <ele>158.27</ele>
        <time>2014-05-02T15:28:24Z</time>
      </trkpt>
      <trkpt lat="50.55356" lon="1.87173">
        <ele>157.31</ele>
        <time>2014-05-02T15:28:30Z</time>
      </trkpt>
      <trkpt lat="50.55351" lon="1.87189">
        <ele>157.79</ele>
        <time>2014-05-02T15:28:36Z</time>
      </trkpt>
      <trkpt lat="50.55347" lon="1.87205">
        <ele>158.27</ele>
        <time>2014-05-02T15:28:42Z</time>
      </trkpt>
      <trkpt lat="50.55343" lon="1.87218">
        <ele>159.24</ele>
        <time>2014-05-02T15:28:47Z</time>
      </trkpt>
      <trkpt lat="50.5534" lon="1.87235">
        <ele>157.79</ele>
        <time>2014-05-02T15:28:53Z</time>
      </trkpt>
      <trkpt lat="50.55336" lon="1.87249">
        <ele>157.79</ele>
        <time>2014-05-02T15:28:58Z</time>
      </trkpt>
      <trkpt lat="50.55333" lon="1.87262">
        <ele>158.75</ele>
        <time>2014-05-02T15:29:03Z</time>
      </trkpt>
      <trkpt lat="50.55329" lon="1.87274">
        <ele>159.24</ele>
        <time>2014-05-02T15:29:08Z</time>
      </trkpt>
      <trkpt lat="50.55325" lon="1.87289">
        <ele>159.24</ele>
        <time>2014-05-02T15:29:14Z</time>
      </trkpt>
      <trkpt lat="50.55322" lon="1.87302">
        <ele>159.24</ele>
        <time>2014-05-02T15:29:19Z</time>
      </trkpt>
      <trkpt lat="50.55319" lon="1.87317">
        <ele>159.24</ele>
        <time>2014-05-02T15:29:25Z</time>
      </trkpt>
      <trkpt lat="50.55315" lon="1.87332">
        <ele>160.2</ele>
        <time>2014-05-02T15:29:31Z</time>
      </trkpt>
      <trkpt lat="50.55311" lon="1.87345">
        <ele>161.64</ele>
        <time>2014-05-02T15:29:36Z</time>
      </trkpt>
      <trkpt lat="50.55307" lon="1.87357">
        <ele>160.68</ele>
        <time>2014-05-02T15:29:41Z</time>
      </trkpt>
      <trkpt lat="50.55304" lon="1.87371">
        <ele>161.16</ele>
        <time>2014-05-02T15:29:46Z</time>
      </trkpt>
      <trkpt lat="50.55302" lon="1.87385">
        <ele>161.64</ele>
        <time>2014-05-02T15:29:52Z</time>
      </trkpt>
      <trkpt lat="50.55298" lon="1.87401">
        <ele>161.64</ele>
        <time>2014-05-02T15:29:58Z</time>
      </trkpt>
      <trkpt lat="50.55293" lon="1.87414">
        <ele>162.6</ele>
        <time>2014-05-02T15:30:04Z</time>
      </trkpt>
      <trkpt lat="50.55289" lon="1.8743">
        <ele>162.6</ele>
        <time>2014-05-02T15:30:10Z</time>
      </trkpt>
      <trkpt lat="50.55286" lon="1.87444">
        <ele>162.12</ele>
        <time>2014-05-02T15:30:16Z</time>
      </trkpt>
      <trkpt lat="50.55282" lon="1.87458">
        <ele>163.08</ele>
        <time>2014-05-02T15:30:22Z</time>
      </trkpt>
      <trkpt lat="50.55278" lon="1.87472">
        <ele>163.56</ele>
        <time>2014-05-02T15:30:28Z</time>
      </trkpt>
      <trkpt lat="50.55274" lon="1.87486">
        <ele>163.56</ele>
        <time>2014-05-02T15:30:34Z</time>
      </trkpt>
      <trkpt lat="50.5527" lon="1.87501">
        <ele>164.52</ele>
        <time>2014-05-02T15:30:40Z</time>
      </trkpt>
      <trkpt lat="50.55267" lon="1.87515">
        <ele>165.48</ele>
        <time>2014-05-02T15:30:46Z</time>
      </trkpt>
      <trkpt lat="50.55262" lon="1.87529">
        <ele>165.48</ele>
        <time>2014-05-02T15:30:52Z</time>
      </trkpt>
      <trkpt lat="50.55258" lon="1.87545">
        <ele>164.52</ele>
        <time>2014-05-02T15:30:58Z</time>
      </trkpt>
      <trkpt lat="50.55254" lon="1.87558">
        <ele>165.48</ele>
        <time>2014-05-02T15:31:04Z</time>
      </trkpt>
      <trkpt lat="50.55251" lon="1.87571">
        <ele>165</ele>
        <time>2014-05-02T15:31:10Z</time>
      </trkpt>
      <trkpt lat="50.55246" lon="1.87583">
        <ele>164.52</ele>
        <time>2014-05-02T15:31:16Z</time>
      </trkpt>
      <trkpt lat="50.55242" lon="1.87597">
        <ele>164.52</ele>
        <time>2014-05-02T15:31:22Z</time>
      </trkpt>
      <trkpt lat="50.55239" lon="1.87611">
        <ele>163.56</ele>
        <time>2014-05-02T15:31:29Z</time>
      </trkpt>
      <trkpt lat="50.55237" lon="1.87625">
        <ele>164.04</ele>
        <time>2014-05-02T15:31:35Z</time>
      </trkpt>
      <trkpt lat="50.55232" lon="1.87639">
        <ele>164.04</ele>
        <time>2014-05-02T15:31:41Z</time>
      </trkpt>
      <trkpt lat="50.55228" lon="1.87654">
        <ele>163.56</ele>
        <time>2014-05-02T15:31:47Z</time>
      </trkpt>
      <trkpt lat="50.55224" lon="1.8767">
        <ele>163.08</ele>
        <time>2014-05-02T15:31:53Z</time>
      </trkpt>
      <trkpt lat="50.5522" lon="1.87684">
        <ele>162.12</ele>
        <time>2014-05-02T15:31:58Z</time>
      </trkpt>
      <trkpt lat="50.55217" lon="1.87697">
        <ele>162.6</ele>
        <time>2014-05-02T15:32:03Z</time>
      </trkpt>
      <trkpt lat="50.55214" lon="1.87711">
        <ele>162.12</ele>
        <time>2014-05-02T15:32:08Z</time>
      </trkpt>
      <trkpt lat="50.55212" lon="1.87727">
        <ele>161.64</ele>
        <time>2014-05-02T15:32:14Z</time>
      </trkpt>
      <trkpt lat="50.55209" lon="1.87743">
        <ele>161.16</ele>
        <time>2014-05-02T15:32:20Z</time>
      </trkpt>
      <trkpt lat="50.55208" lon="1.87758">
        <ele>160.2</ele>
        <time>2014-05-02T15:32:25Z</time>
      </trkpt>
      <trkpt lat="50.55206" lon="1.87773">
        <ele>160.2</ele>
        <time>2014-05-02T15:32:31Z</time>
      </trkpt>
      <trkpt lat="50.55206" lon="1.87789">
        <ele>160.2</ele>
        <time>2014-05-02T15:32:37Z</time>
      </trkpt>
      <trkpt lat="50.55205" lon="1.87805">
        <ele>159.72</ele>
        <time>2014-05-02T15:32:43Z</time>
      </trkpt>
      <trkpt lat="50.55206" lon="1.87821">
        <ele>159.24</ele>
        <time>2014-05-02T15:32:49Z</time>
      </trkpt>
      <trkpt lat="50.55208" lon="1.87838">
        <ele>158.75</ele>
        <time>2014-05-02T15:32:55Z</time>
      </trkpt>
      <trkpt lat="50.5521" lon="1.87853">
        <ele>158.75</ele>
        <time>2014-05-02T15:33:01Z</time>
      </trkpt>
      <trkpt lat="50.55214" lon="1.8787">
        <ele>156.83</ele>
        <time>2014-05-02T15:33:08Z</time>
      </trkpt>
      <trkpt lat="50.55223" lon="1.87875">
        <ele>157.79</ele>
        <time>2014-05-02T15:33:15Z</time>
      </trkpt>
      <trkpt lat="50.55233" lon="1.87876">
        <ele>157.79</ele>
        <time>2014-05-02T15:33:21Z</time>
      </trkpt>
      <trkpt lat="50.55244" lon="1.87878">
        <ele>157.79</ele>
        <time>2014-05-02T15:33:27Z</time>
      </trkpt>
      <trkpt lat="50.55254" lon="1.87879">
        <ele>158.75</ele>
        <time>2014-05-02T15:33:33Z</time>
      </trkpt>
      <trkpt lat="50.55265" lon="1.87879">
        <ele>159.72</ele>
        <time>2014-05-02T15:33:39Z</time>
      </trkpt>
      <trkpt lat="50.55277" lon="1.8788">
        <ele>160.68</ele>
        <time>2014-05-02T15:33:46Z</time>
      </trkpt>
      <trkpt lat="50.55287" lon="1.87879">
        <ele>161.16</ele>
        <time>2014-05-02T15:33:52Z</time>
      </trkpt>
      <trkpt lat="50.55297" lon="1.87878">
        <ele>160.2</ele>
        <time>2014-05-02T15:33:58Z</time>
      </trkpt>
      <trkpt lat="50.55307" lon="1.87877">
        <ele>160.2</ele>
        <time>2014-05-02T15:34:04Z</time>
      </trkpt>
      <trkpt lat="50.55317" lon="1.87877">
        <ele>160.2</ele>
        <time>2014-05-02T15:34:10Z</time>
      </trkpt>
      <trkpt lat="50.55326" lon="1.87878">
        <ele>160.68</ele>
        <time>2014-05-02T15:34:15Z</time>
      </trkpt>
      <trkpt lat="50.55336" lon="1.8788">
        <ele>160.2</ele>
        <time>2014-05-02T15:34:21Z</time>
      </trkpt>
      <trkpt lat="50.55347" lon="1.87882">
        <ele>158.75</ele>
        <time>2014-05-02T15:34:27Z</time>
      </trkpt>
      <trkpt lat="50.55357" lon="1.87885">
        <ele>158.75</ele>
        <time>2014-05-02T15:34:33Z</time>
      </trkpt>
      <trkpt lat="50.55367" lon="1.87887">
        <ele>158.75</ele>
        <time>2014-05-02T15:34:39Z</time>
      </trkpt>
      <trkpt lat="50.55378" lon="1.87889">
        <ele>157.31</ele>
        <time>2014-05-02T15:34:45Z</time>
      </trkpt>
      <trkpt lat="50.55387" lon="1.87891">
        <ele>156.35</ele>
        <time>2014-05-02T15:34:50Z</time>
      </trkpt>
      <trkpt lat="50.55397" lon="1.87894">
        <ele>156.83</ele>
        <time>2014-05-02T15:34:56Z</time>
      </trkpt>
      <trkpt lat="50.55407" lon="1.87898">
        <ele>156.83</ele>
        <time>2014-05-02T15:35:02Z</time>
      </trkpt>
      <trkpt lat="50.55417" lon="1.87901">
        <ele>155.39</ele>
        <time>2014-05-02T15:35:08Z</time>
      </trkpt>
      <trkpt lat="50.55426" lon="1.87904">
        <ele>154.91</ele>
        <time>2014-05-02T15:35:14Z</time>
      </trkpt>
      <trkpt lat="50.55437" lon="1.87908">
        <ele>154.43</ele>
        <time>2014-05-02T15:35:21Z</time>
      </trkpt>
      <trkpt lat="50.55447" lon="1.87912">
        <ele>154.43</ele>
        <time>2014-05-02T15:35:27Z</time>
      </trkpt>
      <trkpt lat="50.55457" lon="1.87917">
        <ele>153.95</ele>
        <time>2014-05-02T15:35:33Z</time>
      </trkpt>
      <trkpt lat="50.55466" lon="1.87922">
        <ele>152.51</ele>
        <time>2014-05-02T15:35:39Z</time>
      </trkpt>
      <trkpt lat="50.55475" lon="1.87924">
        <ele>151.54</ele>
        <time>2014-05-02T15:35:45Z</time>
      </trkpt>
      <trkpt lat="50.55485" lon="1.87927">
        <ele>149.14</ele>
        <time>2014-05-02T15:35:51Z</time>
      </trkpt>
      <trkpt lat="50.55496" lon="1.87927">
        <ele>149.62</ele>
        <time>2014-05-02T15:35:57Z</time>
      </trkpt>
      <trkpt lat="50.55505" lon="1.87928">
        <ele>147.7</ele>
        <time>2014-05-02T15:36:03Z</time>
      </trkpt>
      <trkpt lat="50.55514" lon="1.87928">
        <ele>147.22</ele>
        <time>2014-05-02T15:36:09Z</time>
      </trkpt>
      <trkpt lat="50.55524" lon="1.87928">
        <ele>146.74</ele>
        <time>2014-05-02T15:36:15Z</time>
      </trkpt>
      <trkpt lat="50.55534" lon="1.8793">
        <ele>145.3</ele>
        <time>2014-05-02T15:36:22Z</time>
      </trkpt>
      <trkpt lat="50.55544" lon="1.8793">
        <ele>145.3</ele>
        <time>2014-05-02T15:36:28Z</time>
      </trkpt>
      <trkpt lat="50.55554" lon="1.87929">
        <ele>144.82</ele>
        <time>2014-05-02T15:36:33Z</time>
      </trkpt>
      <trkpt lat="50.55563" lon="1.87928">
        <ele>144.34</ele>
        <time>2014-05-02T15:36:38Z</time>
      </trkpt>
      <trkpt lat="50.55574" lon="1.87927">
        <ele>141.93</ele>
        <time>2014-05-02T15:36:44Z</time>
      </trkpt>
      <trkpt lat="50.55584" lon="1.87927">
        <ele>141.45</ele>
        <time>2014-05-02T15:36:50Z</time>
      </trkpt>
      <trkpt lat="50.55594" lon="1.87926">
        <ele>141.45</ele>
        <time>2014-05-02T15:37:15Z</time>
      </trkpt>
      <trkpt lat="50.55604" lon="1.87924">
        <ele>140.01</ele>
        <time>2014-05-02T15:37:21Z</time>
      </trkpt>
      <trkpt lat="50.55613" lon="1.87926">
        <ele>139.53</ele>
        <time>2014-05-02T15:37:26Z</time>
      </trkpt>
      <trkpt lat="50.55623" lon="1.87926">
        <ele>138.09</ele>
        <time>2014-05-02T15:37:33Z</time>
      </trkpt>
      <trkpt lat="50.55632" lon="1.87927">
        <ele>137.13</ele>
        <time>2014-05-02T15:37:38Z</time>
      </trkpt>
      <trkpt lat="50.5564" lon="1.87927">
        <ele>136.64</ele>
        <time>2014-05-02T15:37:44Z</time>
      </trkpt>
      <trkpt lat="50.55651" lon="1.87928">
        <ele>136.16</ele>
        <time>2014-05-02T15:37:51Z</time>
      </trkpt>
      <trkpt lat="50.55661" lon="1.87931">
        <ele>134.72</ele>
        <time>2014-05-02T15:37:57Z</time>
      </trkpt>
      <trkpt lat="50.5567" lon="1.87932">
        <ele>134.24</ele>
        <time>2014-05-02T15:38:03Z</time>
      </trkpt>
      <trkpt lat="50.55679" lon="1.87935">
        <ele>132.8</ele>
        <time>2014-05-02T15:38:10Z</time>
      </trkpt>
      <trkpt lat="50.55689" lon="1.87936">
        <ele>132.32</ele>
        <time>2014-05-02T15:38:16Z</time>
      </trkpt>
      <trkpt lat="50.55699" lon="1.87939">
        <ele>130.88</ele>
        <time>2014-05-02T15:38:22Z</time>
      </trkpt>
      <trkpt lat="50.55709" lon="1.87943">
        <ele>129.43</ele>
        <time>2014-05-02T15:38:28Z</time>
      </trkpt>
      <trkpt lat="50.55718" lon="1.87945">
        <ele>128.95</ele>
        <time>2014-05-02T15:38:33Z</time>
      </trkpt>
      <trkpt lat="50.55727" lon="1.87947">
        <ele>128.95</ele>
        <time>2014-05-02T15:38:38Z</time>
      </trkpt>
      <trkpt lat="50.55736" lon="1.87951">
        <ele>127.03</ele>
        <time>2014-05-02T15:38:44Z</time>
      </trkpt>
      <trkpt lat="50.55745" lon="1.87954">
        <ele>126.55</ele>
        <time>2014-05-02T15:38:51Z</time>
      </trkpt>
      <trkpt lat="50.55755" lon="1.87958">
        <ele>125.59</ele>
        <time>2014-05-02T15:38:58Z</time>
      </trkpt>
      <trkpt lat="50.55766" lon="1.87961">
        <ele>123.67</ele>
        <time>2014-05-02T15:39:04Z</time>
      </trkpt>
      <trkpt lat="50.55775" lon="1.87965">
        <ele>123.67</ele>
        <time>2014-05-02T15:39:10Z</time>
      </trkpt>
      <trkpt lat="50.55785" lon="1.87967">
        <ele>122.71</ele>
        <time>2014-05-02T15:39:15Z</time>
      </trkpt>
      <trkpt lat="50.55794" lon="1.8797">
        <ele>121.74</ele>
        <time>2014-05-02T15:39:20Z</time>
      </trkpt>
      <trkpt lat="50.55803" lon="1.87972">
        <ele>120.78</ele>
        <time>2014-05-02T15:39:25Z</time>
      </trkpt>
      <trkpt lat="50.55813" lon="1.87973">
        <ele>120.78</ele>
        <time>2014-05-02T15:39:30Z</time>
      </trkpt>
      <trkpt lat="50.55822" lon="1.87971">
        <ele>119.34</ele>
        <time>2014-05-02T15:39:36Z</time>
      </trkpt>
      <trkpt lat="50.55831" lon="1.87968">
        <ele>118.86</ele>
        <time>2014-05-02T15:39:41Z</time>
      </trkpt>
      <trkpt lat="50.55841" lon="1.87964">
        <ele>118.86</ele>
        <time>2014-05-02T15:39:47Z</time>
      </trkpt>
      <trkpt lat="50.55849" lon="1.87959">
        <ele>119.34</ele>
        <time>2014-05-02T15:39:52Z</time>
      </trkpt>
      <trkpt lat="50.55858" lon="1.87951">
        <ele>119.82</ele>
        <time>2014-05-02T15:39:58Z</time>
      </trkpt>
      <trkpt lat="50.55867" lon="1.87943">
        <ele>118.86</ele>
        <time>2014-05-02T15:40:04Z</time>
      </trkpt>
      <trkpt lat="50.55874" lon="1.87939">
        <ele>117.9</ele>
        <time>2014-05-02T15:40:36Z</time>
      </trkpt>
      <trkpt lat="50.55883" lon="1.87933">
        <ele>117.9</ele>
        <time>2014-05-02T15:40:42Z</time>
      </trkpt>
      <trkpt lat="50.55891" lon="1.87925">
        <ele>118.86</ele>
        <time>2014-05-02T15:40:48Z</time>
      </trkpt>
      <trkpt lat="50.559" lon="1.87918">
        <ele>118.38</ele>
        <time>2014-05-02T15:40:54Z</time>
      </trkpt>
      <trkpt lat="50.55909" lon="1.87912">
        <ele>119.34</ele>
        <time>2014-05-02T15:41:00Z</time>
      </trkpt>
      <trkpt lat="50.55919" lon="1.87907">
        <ele>120.3</ele>
        <time>2014-05-02T15:41:06Z</time>
      </trkpt>
      <trkpt lat="50.55928" lon="1.87901">
        <ele>120.78</ele>
        <time>2014-05-02T15:41:12Z</time>
      </trkpt>
      <trkpt lat="50.55937" lon="1.87895">
        <ele>121.26</ele>
        <time>2014-05-02T15:41:18Z</time>
      </trkpt>
      <trkpt lat="50.55946" lon="1.87889">
        <ele>121.74</ele>
        <time>2014-05-02T15:41:24Z</time>
      </trkpt>
      <trkpt lat="50.55954" lon="1.87883">
        <ele>121.26</ele>
        <time>2014-05-02T15:41:49Z</time>
      </trkpt>
      <trkpt lat="50.55964" lon="1.8788">
        <ele>121.26</ele>
        <time>2014-05-02T15:41:55Z</time>
      </trkpt>
      <trkpt lat="50.55975" lon="1.87878">
        <ele>121.26</ele>
        <time>2014-05-02T15:42:01Z</time>
      </trkpt>
      <trkpt lat="50.55985" lon="1.87876">
        <ele>121.26</ele>
        <time>2014-05-02T15:42:06Z</time>
      </trkpt>
      <trkpt lat="50.55995" lon="1.87875">
        <ele>122.22</ele>
        <time>2014-05-02T15:42:11Z</time>
      </trkpt>
      <trkpt lat="50.56006" lon="1.87876">
        <ele>121.74</ele>
        <time>2014-05-02T15:42:17Z</time>
      </trkpt>
      <trkpt lat="50.56016" lon="1.87878">
        <ele>121.26</ele>
        <time>2014-05-02T15:42:22Z</time>
      </trkpt>
      <trkpt lat="50.56026" lon="1.87879">
        <ele>121.26</ele>
        <time>2014-05-02T15:42:27Z</time>
      </trkpt>
      <trkpt lat="50.56035" lon="1.8788">
        <ele>121.26</ele>
        <time>2014-05-02T15:42:32Z</time>
      </trkpt>
      <trkpt lat="50.56044" lon="1.8788">
        <ele>121.26</ele>
        <time>2014-05-02T15:42:37Z</time>
      </trkpt>
      <trkpt lat="50.56054" lon="1.87881">
        <ele>121.26</ele>
        <time>2014-05-02T15:42:42Z</time>
      </trkpt>
      <trkpt lat="50.56064" lon="1.87884">
        <ele>119.82</ele>
        <time>2014-05-02T15:42:47Z</time>
      </trkpt>
      <trkpt lat="50.56074" lon="1.87885">
        <ele>120.3</ele>
        <time>2014-05-02T15:42:53Z</time>
      </trkpt>
      <trkpt lat="50.56086" lon="1.87887">
        <ele>119.82</ele>
        <time>2014-05-02T15:42:59Z</time>
      </trkpt>
      <trkpt lat="50.56095" lon="1.87889">
        <ele>118.38</ele>
        <time>2014-05-02T15:43:04Z</time>
      </trkpt>
      <trkpt lat="50.56104" lon="1.87891">
        <ele>117.9</ele>
        <time>2014-05-02T15:43:09Z</time>
      </trkpt>
      <trkpt lat="50.56114" lon="1.87892">
        <ele>117.42</ele>
        <time>2014-05-02T15:43:15Z</time>
      </trkpt>
      <trkpt lat="50.56125" lon="1.87894">
        <ele>117.42</ele>
        <time>2014-05-02T15:43:21Z</time>
      </trkpt>
      <trkpt lat="50.56134" lon="1.87896">
        <ele>117.42</ele>
        <time>2014-05-02T15:43:26Z</time>
      </trkpt>
      <trkpt lat="50.56145" lon="1.87897">
        <ele>118.38</ele>
        <time>2014-05-02T15:43:32Z</time>
      </trkpt>
      <trkpt lat="50.56155" lon="1.87898">
        <ele>117.9</ele>
        <time>2014-05-02T15:43:38Z</time>
      </trkpt>
      <trkpt lat="50.56167" lon="1.879">
        <ele>117.9</ele>
        <time>2014-05-02T15:43:43Z</time>
      </trkpt>
      <trkpt lat="50.56176" lon="1.87901">
        <ele>116.46</ele>
        <time>2014-05-02T15:43:48Z</time>
      </trkpt>
      <trkpt lat="50.56187" lon="1.87903">
        <ele>116.94</ele>
        <time>2014-05-02T15:43:54Z</time>
      </trkpt>
      <trkpt lat="50.56197" lon="1.87904">
        <ele>115.01</ele>
        <time>2014-05-02T15:43:59Z</time>
      </trkpt>
      <trkpt lat="50.56207" lon="1.87907">
        <ele>115.5</ele>
        <time>2014-05-02T15:44:06Z</time>
      </trkpt>
      <trkpt lat="50.56218" lon="1.87908">
        <ele>114.53</ele>
        <time>2014-05-02T15:44:12Z</time>
      </trkpt>
      <trkpt lat="50.56228" lon="1.8791">
        <ele>115.01</ele>
        <time>2014-05-02T15:44:18Z</time>
      </trkpt>
      <trkpt lat="50.56239" lon="1.87912">
        <ele>115.01</ele>
        <time>2014-05-02T15:44:24Z</time>
      </trkpt>
      <trkpt lat="50.5625" lon="1.87914">
        <ele>115.5</ele>
        <time>2014-05-02T15:44:30Z</time>
      </trkpt>
      <trkpt lat="50.56261" lon="1.87916">
        <ele>114.05</ele>
        <time>2014-05-02T15:44:36Z</time>
      </trkpt>
      <trkpt lat="50.56272" lon="1.87919">
        <ele>114.05</ele>
        <time>2014-05-02T15:44:42Z</time>
      </trkpt>
      <trkpt lat="50.56284" lon="1.87921">
        <ele>114.53</ele>
        <time>2014-05-02T15:44:48Z</time>
      </trkpt>
      <trkpt lat="50.56295" lon="1.87924">
        <ele>114.53</ele>
        <time>2014-05-02T15:44:53Z</time>
      </trkpt>
      <trkpt lat="50.56306" lon="1.87924">
        <ele>115.01</ele>
        <time>2014-05-02T15:44:59Z</time>
      </trkpt>
      <trkpt lat="50.56317" lon="1.87924">
        <ele>114.53</ele>
        <time>2014-05-02T15:45:05Z</time>
      </trkpt>
      <trkpt lat="50.56329" lon="1.87926">
        <ele>113.57</ele>
        <time>2014-05-02T15:45:12Z</time>
      </trkpt>
      <trkpt lat="50.5634" lon="1.87928">
        <ele>112.61</ele>
        <time>2014-05-02T15:45:18Z</time>
      </trkpt>
      <trkpt lat="50.5635" lon="1.8793">
        <ele>113.57</ele>
        <time>2014-05-02T15:45:24Z</time>
      </trkpt>
      <trkpt lat="50.56361" lon="1.8793">
        <ele>112.13</ele>
        <time>2014-05-02T15:45:30Z</time>
      </trkpt>
      <trkpt lat="50.56373" lon="1.87933">
        <ele>113.09</ele>
        <time>2014-05-02T15:45:36Z</time>
      </trkpt>
      <trkpt lat="50.56384" lon="1.87933">
        <ele>111.17</ele>
        <time>2014-05-02T15:45:42Z</time>
      </trkpt>
      <trkpt lat="50.56394" lon="1.87934">
        <ele>111.65</ele>
        <time>2014-05-02T15:45:48Z</time>
      </trkpt>
      <trkpt lat="50.56403" lon="1.87935">
        <ele>112.13</ele>
        <time>2014-05-02T15:45:53Z</time>
      </trkpt>
      <trkpt lat="50.56413" lon="1.87937">
        <ele>111.65</ele>
        <time>2014-05-02T15:45:59Z</time>
      </trkpt>
      <trkpt lat="50.56422" lon="1.87939">
        <ele>113.09</ele>
        <time>2014-05-02T15:46:04Z</time>
      </trkpt>
      <trkpt lat="50.56433" lon="1.87942">
        <ele>113.09</ele>
        <time>2014-05-02T15:46:11Z</time>
      </trkpt>
      <trkpt lat="50.56444" lon="1.87945">
        <ele>112.61</ele>
        <time>2014-05-02T15:46:19Z</time>
      </trkpt>
      <trkpt lat="50.56455" lon="1.87948">
        <ele>111.65</ele>
        <time>2014-05-02T15:46:25Z</time>
      </trkpt>
      <trkpt lat="50.56466" lon="1.87949">
        <ele>112.13</ele>
        <time>2014-05-02T15:46:31Z</time>
      </trkpt>
      <trkpt lat="50.56476" lon="1.87949">
        <ele>112.13</ele>
        <time>2014-05-02T15:46:37Z</time>
      </trkpt>
      <trkpt lat="50.56485" lon="1.8794">
        <ele>111.65</ele>
        <time>2014-05-02T15:47:15Z</time>
      </trkpt>
      <trkpt lat="50.56492" lon="1.87929">
        <ele>111.17</ele>
        <time>2014-05-02T15:47:21Z</time>
      </trkpt>
      <trkpt lat="50.56497" lon="1.87916">
        <ele>109.73</ele>
        <time>2014-05-02T15:47:28Z</time>
      </trkpt>
      <trkpt lat="50.56502" lon="1.87902">
        <ele>109.73</ele>
        <time>2014-05-02T15:47:35Z</time>
      </trkpt>
      <trkpt lat="50.56509" lon="1.8789">
        <ele>109.73</ele>
        <time>2014-05-02T15:47:42Z</time>
      </trkpt>
      <trkpt lat="50.56517" lon="1.87883">
        <ele>108.77</ele>
        <time>2014-05-02T15:47:48Z</time>
      </trkpt>
      <trkpt lat="50.56527" lon="1.87882">
        <ele>108.29</ele>
        <time>2014-05-02T15:47:55Z</time>
      </trkpt>
      <trkpt lat="50.56537" lon="1.87886">
        <ele>108.77</ele>
        <time>2014-05-02T15:48:01Z</time>
      </trkpt>
      <trkpt lat="50.56547" lon="1.87891">
        <ele>107.81</ele>
        <time>2014-05-02T15:48:08Z</time>
      </trkpt>
      <trkpt lat="50.56557" lon="1.87897">
        <ele>105.88</ele>
        <time>2014-05-02T15:48:25Z</time>
      </trkpt>
      <trkpt lat="50.5657" lon="1.87902">
        <ele>108.29</ele>
        <time>2014-05-02T15:48:33Z</time>
      </trkpt>
      <trkpt lat="50.56581" lon="1.87904">
        <ele>108.29</ele>
        <time>2014-05-02T15:48:40Z</time>
      </trkpt>
      <trkpt lat="50.5659" lon="1.87906">
        <ele>108.29</ele>
        <time>2014-05-02T15:48:47Z</time>
      </trkpt>
      <trkpt lat="50.56601" lon="1.87904">
        <ele>107.81</ele>
        <time>2014-05-02T15:48:53Z</time>
      </trkpt>
      <trkpt lat="50.56611" lon="1.87902">
        <ele>107.32</ele>
        <time>2014-05-02T15:48:59Z</time>
      </trkpt>
      <trkpt lat="50.56622" lon="1.87899">
        <ele>105.88</ele>
        <time>2014-05-02T15:49:06Z</time>
      </trkpt>
      <trkpt lat="50.56632" lon="1.87896">
        <ele>105.88</ele>
        <time>2014-05-02T15:49:12Z</time>
      </trkpt>
      <trkpt lat="50.56641" lon="1.87894">
        <ele>106.84</ele>
        <time>2014-05-02T15:49:18Z</time>
      </trkpt>
      <trkpt lat="50.56651" lon="1.87895">
        <ele>105.88</ele>
        <time>2014-05-02T15:49:25Z</time>
      </trkpt>
      <trkpt lat="50.56661" lon="1.87895">
        <ele>105.4</ele>
        <time>2014-05-02T15:49:32Z</time>
      </trkpt>
      <trkpt lat="50.56674" lon="1.87899">
        <ele>104.92</ele>
        <time>2014-05-02T15:49:40Z</time>
      </trkpt>
      <trkpt lat="50.56685" lon="1.87901">
        <ele>104.44</ele>
        <time>2014-05-02T15:49:48Z</time>
      </trkpt>
      <trkpt lat="50.56694" lon="1.87908">
        <ele>104.92</ele>
        <time>2014-05-02T15:49:55Z</time>
      </trkpt>
      <trkpt lat="50.56703" lon="1.87914">
        <ele>103.48</ele>
        <time>2014-05-02T15:50:01Z</time>
      </trkpt>
      <trkpt lat="50.56712" lon="1.87921">
        <ele>104.44</ele>
        <time>2014-05-02T15:50:08Z</time>
      </trkpt>
      <trkpt lat="50.56722" lon="1.87928">
        <ele>103.96</ele>
        <time>2014-05-02T15:50:15Z</time>
      </trkpt>
      <trkpt lat="50.56731" lon="1.87937">
        <ele>103.48</ele>
        <time>2014-05-02T15:50:22Z</time>
      </trkpt>
      <trkpt lat="50.56741" lon="1.87947">
        <ele>103</ele>
        <time>2014-05-02T15:50:36Z</time>
      </trkpt>
      <trkpt lat="50.56749" lon="1.87955">
        <ele>102.04</ele>
        <time>2014-05-02T15:50:42Z</time>
      </trkpt>
      <trkpt lat="50.56757" lon="1.87963">
        <ele>103</ele>
        <time>2014-05-02T15:50:48Z</time>
      </trkpt>
      <trkpt lat="50.56765" lon="1.8797">
        <ele>102.04</ele>
        <time>2014-05-02T15:50:55Z</time>
      </trkpt>
      <trkpt lat="50.56774" lon="1.87979">
        <ele>102.52</ele>
        <time>2014-05-02T15:51:02Z</time>
      </trkpt>
      <trkpt lat="50.56784" lon="1.87977">
        <ele>100.6</ele>
        <time>2014-05-02T15:51:10Z</time>
      </trkpt>
      <trkpt lat="50.56794" lon="1.8797">
        <ele>99.63</ele>
        <time>2014-05-02T15:51:17Z</time>
      </trkpt>
      <trkpt lat="50.56802" lon="1.87964">
        <ele>97.71</ele>
        <time>2014-05-02T15:51:27Z</time>
      </trkpt>
      <trkpt lat="50.56811" lon="1.8796">
        <ele>96.27</ele>
        <time>2014-05-02T15:51:36Z</time>
      </trkpt>
      <trkpt lat="50.56821" lon="1.87954">
        <ele>93.87</ele>
        <time>2014-05-02T15:51:45Z</time>
      </trkpt>
      <trkpt lat="50.56833" lon="1.87953">
        <ele>94.35</ele>
        <time>2014-05-02T15:51:59Z</time>
      </trkpt>
      <trkpt lat="50.56838" lon="1.87942">
        <ele>92.9</ele>
        <time>2014-05-02T15:52:06Z</time>
      </trkpt>
      <trkpt lat="50.56848" lon="1.87939">
        <ele>91.46</ele>
        <time>2014-05-02T15:52:16Z</time>
      </trkpt>
      <trkpt lat="50.56858" lon="1.87936">
        <ele>90.5</ele>
        <time>2014-05-02T15:52:24Z</time>
      </trkpt>
      <trkpt lat="50.56868" lon="1.87936">
        <ele>88.58</ele>
        <time>2014-05-02T15:52:34Z</time>
      </trkpt>
      <trkpt lat="50.56882" lon="1.8794">
        <ele>86.66</ele>
        <time>2014-05-02T15:52:43Z</time>
      </trkpt>
      <trkpt lat="50.56894" lon="1.87947">
        <ele>85.21</ele>
        <time>2014-05-02T15:52:52Z</time>
      </trkpt>
      <trkpt lat="50.56905" lon="1.87956">
        <ele>83.29</ele>
        <time>2014-05-02T15:53:03Z</time>
      </trkpt>
      <trkpt lat="50.56912" lon="1.87965">
        <ele>82.33</ele>
        <time>2014-05-02T15:53:11Z</time>
      </trkpt>
      <trkpt lat="50.5692" lon="1.87976">
        <ele>80.89</ele>
        <time>2014-05-02T15:53:19Z</time>
      </trkpt>
      <trkpt lat="50.56927" lon="1.87987">
        <ele>80.41</ele>
        <time>2014-05-02T15:53:27Z</time>
      </trkpt>
      <trkpt lat="50.56936" lon="1.87995">
        <ele>79.45</ele>
        <time>2014-05-02T15:53:37Z</time>
      </trkpt>
      <trkpt lat="50.56945" lon="1.88003">
        <ele>78.97</ele>
        <time>2014-05-02T15:53:45Z</time>
      </trkpt>
      <trkpt lat="50.56954" lon="1.8801">
        <ele>77.04</ele>
        <time>2014-05-02T15:53:55Z</time>
      </trkpt>
      <trkpt lat="50.56966" lon="1.88012">
        <ele>74.64</ele>
        <time>2014-05-02T15:54:04Z</time>
      </trkpt>
      <trkpt lat="50.56976" lon="1.88019">
        <ele>73.2</ele>
        <time>2014-05-02T15:54:12Z</time>
      </trkpt>
      <trkpt lat="50.56986" lon="1.88028">
        <ele>74.16</ele>
        <time>2014-05-02T15:54:20Z</time>
      </trkpt>
      <trkpt lat="50.56994" lon="1.8804">
        <ele>72.72</ele>
        <time>2014-05-02T15:54:36Z</time>
      </trkpt>
      <trkpt lat="50.57003" lon="1.88041">
        <ele>72.24</ele>
        <time>2014-05-02T15:54:43Z</time>
      </trkpt>
      <trkpt lat="50.57013" lon="1.88048">
        <ele>71.76</ele>
        <time>2014-05-02T15:54:50Z</time>
      </trkpt>
      <trkpt lat="50.5702" lon="1.8806">
        <ele>71.76</ele>
        <time>2014-05-02T15:54:59Z</time>
      </trkpt>
      <trkpt lat="50.57025" lon="1.88073">
        <ele>70.79</ele>
        <time>2014-05-02T15:55:06Z</time>
      </trkpt>
      <trkpt lat="50.57031" lon="1.88091">
        <ele>70.31</ele>
        <time>2014-05-02T15:55:18Z</time>
      </trkpt>
      <trkpt lat="50.57039" lon="1.88107">
        <ele>69.35</ele>
        <time>2014-05-02T15:55:27Z</time>
      </trkpt>
      <trkpt lat="50.5705" lon="1.88109">
        <ele>70.79</ele>
        <time>2014-05-02T15:55:36Z</time>
      </trkpt>
      <trkpt lat="50.57059" lon="1.88101">
        <ele>69.83</ele>
        <time>2014-05-02T15:55:44Z</time>
      </trkpt>
      <trkpt lat="50.57068" lon="1.88096">
        <ele>69.83</ele>
        <time>2014-05-02T15:55:53Z</time>
      </trkpt>
      <trkpt lat="50.57077" lon="1.88089">
        <ele>68.39</ele>
        <time>2014-05-02T15:56:00Z</time>
      </trkpt>
      <trkpt lat="50.57085" lon="1.88082">
        <ele>69.35</ele>
        <time>2014-05-02T15:56:06Z</time>
      </trkpt>
      <trkpt lat="50.57093" lon="1.88077">
        <ele>69.83</ele>
        <time>2014-05-02T15:56:13Z</time>
      </trkpt>
      <trkpt lat="50.57103" lon="1.88072">
        <ele>54.45</ele>
        <time>2014-05-02T15:56:20Z</time>
      </trkpt>
    </trkseg>
  </trk>
</gpx>